[[{"header":{"parameterUnit":"m.s-1","parameterCategory":1,"la1":30.6,"la2":29.2853,"lo1":-89.7004,"lo2":-87.6739,"dy":0.0162,"dx":0.0183,"nx":112,"ny":82,"refTime":"2023-07-17T12:00:00:Z","depth":0,"parameterNumber":2,"parameterNumberName":"U-component_of_WINDS"},"data":[0.0,0.0,0.0,0.0,0.0,0.0,0.0,0.0,0.0,0.0,0.0,0.0,0.0,0.0,0.0,0.0,0.0,0.0,0.0,0.0,0.0,0.0,0.0,0.0,0.0,0.0,0.0,0.0,0.0,0.0,0.0,0.0,0.0,0.0,0.0,0.0,0.0,0.0,0.0,0.0,0.0,0.0,0.0,0.0,0.0,0.0,0.0,0.0,0.0,0.0,0.0,0.0,0.0,0.0,0.0,0.0,0.0,0.0,0.0,0.0,0.0,0.0,0.0,0.0,0.0,0.0,0.0,0.0,0.0,0.0,0.0,0.0,0.0,0.0,0.0,0.0,0.0,0.0,0.0,0.0,0.0,0.0,0.0,0.0,0.0,0.0,0.0,0.0,0.0,0.0,0.0,-0.5154,-0.6609,-0.7513,-0.7513,-0.7426,-0.7218,-0.6973,0.0,0.0,0.0,0.0,0.0,0.0,0.0,0.0,0.0,0.0,0.0,0.0,0.0,0.0,0.0,0.0,0.0,0.0,0.0,0.0,0.0,0.0,0.0,0.0,0.0,0.0,0.0,0.0,0.0,0.0,0.0,0.0,0.0,0.0,0.0,0.0,0.0,0.0,0.0,0.0,0.0,0.0,0.0,0.0,0.0,0.0,0.0,0.0,0.0,0.0,0.0,0.0,0.0,0.0,0.0,0.0,0.0,0.0,0.0,0.0,0.0,0.0,0.0,0.0,0.0,0.0,0.0,0.0,0.0,0.0,0.0,0.0,0.0,0.0,0.0,0.0,0.0,0.0,0.0,0.0,0.0,0.0,0.0,0.0,0.0,0.0,0.0,0.0,0.0,0.0,0.0,0.0,0.0,0.0,0.0,0.0,0.0,0.0,0.0,0.0,0.0,0.0,0.0,0.0,-0.5281,-0.6565,-0.7191,-0.7513,-0.7513,-0.7049,-0.6706,-0.6657,0.0,0.0,0.0,0.0,0.0,0.0,0.0,0.0,0.0,0.0,0.0,0.0,0.0,0.0,0.0,0.0,0.0,0.0,0.0,0.0,0.0,0.0,0.0,0.0,0.0,0.0,0.0,0.0,0.0,0.0,0.0,0.0,0.0,0.0,0.0,0.0,0.0,0.0,0.0,0.0,0.0,0.0,0.0,0.0,0.0,0.0,0.0,0.0,0.0,0.0,0.0,0.0,0.0,0.0,0.0,0.0,0.0,0.0,0.0,0.0,0.0,0.0,0.0,0.0,0.0,0.0,0.0,0.0,0.0,0.0,0.0,0.0,0.0,0.0,0.0,0.0,0.0,0.0,0.0,0.0,0.0,0.0,0.0,0.0,0.0,0.0,0.0,0.0,0.0,0.0,0.0,0.0,0.0,0.0,0.0,0.0,0.0,0.0,0.0,0.0,0.0,0.0,0.0,-0.5372,-0.5907,-0.6692,-0.7047,-0.7228,-0.7228,-0.6727,-0.6593,-0.7058,-0.5666,0.0,0.0,0.0,0.0,0.0,0.0,0.0,0.0,0.0,0.0,0.0,0.0,0.0,0.0,0.0,0.0,0.0,0.0,0.0,0.0,0.0,0.0,0.0,0.0,0.0,0.0,0.0,0.0,0.0,0.0,0.0,0.0,0.0,0.0,0.0,0.0,0.0,0.0,0.0,0.0,0.0,0.0,0.0,0.0,0.0,0.0,0.0,0.0,0.0,0.0,0.0,0.0,0.0,0.0,0.0,0.0,0.0,0.0,0.0,0.0,0.0,0.0,0.0,0.0,0.0,0.0,0.0,0.0,0.0,0.0,0.0,0.0,0.0,0.0,0.0,0.0,0.0,0.0,0.0,0.0,0.0,0.0,0.0,0.0,0.0,0.0,0.0,0.0,0.0,0.0,0.0,0.0,0.0,0.0,0.0,0.0,0.0,0.0,0.0,0.0,0.0,0.0,-0.6006,-0.6311,-0.658,-0.6847,-0.6979,-0.6979,-0.6493,-0.6606,-0.7515,-0.5627,0.0,0.0,0.0,0.0,0.0,0.0,0.0,0.0,0.0,0.0,0.0,0.0,0.0,0.0,0.0,0.0,0.0,0.0,0.0,0.0,0.0,0.0,0.0,0.0,0.0,0.0,0.0,0.0,0.0,0.0,0.0,0.0,0.0,0.0,0.0,0.0,0.0,0.0,0.0,0.0,0.0,0.0,0.0,0.0,0.0,0.0,0.0,0.0,0.0,0.0,0.0,0.0,0.0,0.0,0.0,0.0,0.0,0.0,0.0,0.0,0.0,0.0,0.0,0.0,0.0,0.0,0.0,0.0,0.0,0.0,0.0,0.0,0.0,0.0,0.0,0.0,0.0,0.0,0.0,0.0,0.0,0.0,0.0,0.0,0.0,0.0,0.0,0.0,0.0,0.0,0.0,0.0,0.0,0.0,0.0,0.0,0.0,0.0,0.0,0.0,0.0,0.0,-0.5766,-0.6293,-0.656,-0.6847,-0.6979,-0.6979,-0.6493,-0.6693,-0.7822,-0.5793,0.0,0.0,0.0,0.0,0.0,0.0,0.0,0.0,0.0,0.0,0.0,0.0,0.0,0.0,0.0,0.0,0.0,0.0,0.0,0.0,0.0,0.0,0.0,0.0,0.0,0.0,0.0,0.0,0.0,0.0,0.0,0.0,0.0,0.0,0.0,0.0,0.0,0.0,0.0,0.0,0.0,0.0,0.0,0.0,0.0,0.0,0.0,0.0,0.0,0.0,0.0,0.0,0.0,0.0,0.0,0.0,0.0,0.0,0.0,0.0,0.0,0.0,0.0,0.0,0.0,0.0,0.0,0.0,0.0,0.0,0.0,0.0,0.0,0.0,0.0,0.0,0.0,0.0,0.0,0.0,0.0,0.0,0.0,0.0,0.0,0.0,0.0,0.0,0.0,0.0,0.0,0.0,0.0,0.0,0.0,0.0,0.0,0.0,0.0,0.0,0.0,0.0,-0.6286,-0.66,0.0,-0.674,-0.6947,-0.6767,-0.6424,-0.6619,-0.7582,0.0,0.0,0.0,0.0,0.0,0.0,0.0,0.0,0.0,0.0,0.0,0.0,0.0,0.0,0.0,0.0,0.0,0.0,0.0,0.0,0.0,0.0,0.0,0.0,0.0,0.0,0.0,0.0,0.0,0.0,0.0,0.0,0.0,0.0,0.0,0.0,0.0,0.0,0.0,0.0,0.0,0.0,0.0,0.0,0.0,0.0,0.0,0.0,0.0,0.0,0.0,0.0,0.0,0.0,0.0,0.0,0.0,0.0,0.0,0.0,0.0,0.0,0.0,0.0,0.0,0.0,0.0,0.0,0.0,0.0,0.0,0.0,0.0,0.0,0.0,0.0,0.0,0.0,0.0,0.0,0.0,0.0,0.0,0.0,0.0,0.0,0.0,0.0,0.0,0.0,0.0,0.0,0.0,0.0,0.0,0.0,0.0,0.0,0.0,0.0,0.0,0.0,-0.595,-0.6441,-0.6593,0.0,-0.6593,-0.6807,-0.6607,-0.6277,-0.6349,-0.7084,0.0,0.0,0.0,0.0,0.0,0.0,0.0,0.0,0.0,0.0,0.0,0.0,0.0,0.0,0.0,0.0,0.0,0.0,0.0,0.0,0.0,0.0,0.0,0.0,0.0,0.0,0.0,0.0,0.0,0.0,0.0,0.0,0.0,0.0,0.0,0.0,0.0,0.0,0.0,0.0,0.0,0.0,0.0,0.0,0.0,0.0,0.0,0.0,0.0,0.0,0.0,0.0,0.0,0.0,0.0,0.0,0.0,0.0,0.0,0.0,0.0,0.0,0.0,0.0,0.0,0.0,0.0,0.0,0.0,0.0,0.0,0.0,0.0,0.0,0.0,0.0,0.0,0.0,0.0,0.0,0.0,0.0,0.0,0.0,0.0,0.0,0.0,0.0,0.0,0.0,0.0,0.0,0.0,0.0,0.0,0.0,0.0,0.0,0.0,0.0,0.0,0.0,-0.591,-0.6115,-0.6196,-0.6196,-0.6458,-0.6587,-0.6587,-0.6045,-0.5907,0.0,0.0,0.0,0.0,0.0,0.0,0.0,0.0,0.0,0.0,0.0,0.0,0.0,0.0,0.0,0.0,0.0,0.0,0.0,0.0,0.0,0.0,0.0,0.0,0.0,0.0,0.0,0.0,0.0,0.0,0.0,0.0,0.0,0.0,0.0,0.0,0.0,0.0,0.0,0.0,0.0,0.0,0.0,0.0,0.0,0.0,0.0,0.0,0.0,0.0,0.0,0.0,0.0,0.0,0.0,0.0,0.0,0.0,0.0,0.0,0.0,0.0,0.0,0.0,0.0,0.0,0.0,0.0,0.0,0.0,0.0,0.0,0.0,0.0,0.0,0.0,0.0,0.0,0.0,0.0,0.0,0.0,0.0,0.0,0.0,0.0,0.0,0.0,0.0,0.0,0.0,0.0,0.0,0.0,0.0,0.0,0.0,0.0,0.0,0.0,0.0,0.0,0.0,0.0,-0.6115,-0.6196,-0.6196,-0.6458,-0.6506,-0.6337,-0.5932,-0.6015,-0.6783,0.0,0.0,0.0,0.0,0.0,0.0,0.0,0.0,0.0,0.0,0.0,0.0,0.0,0.0,0.0,0.0,0.0,0.0,0.0,0.0,0.0,0.0,0.0,0.0,0.0,0.0,0.0,0.0,0.0,0.0,0.0,0.0,0.0,0.0,0.0,0.0,0.0,0.0,0.0,0.0,0.0,0.0,0.0,0.0,0.0,0.0,0.0,0.0,0.0,0.0,0.0,0.0,0.0,0.0,0.0,0.0,0.0,0.0,0.0,0.0,0.0,0.0,0.0,0.0,0.0,0.0,0.0,0.0,0.0,0.0,0.0,0.0,0.0,0.0,0.0,0.0,0.0,0.0,0.0,0.0,0.0,0.0,0.0,0.0,0.0,0.0,0.0,0.0,0.0,0.0,0.0,0.0,0.0,0.0,0.0,0.0,0.0,0.0,0.0,0.0,0.0,0.0,-0.6252,-0.6278,-0.6196,-0.6196,-0.635,-0.6431,-0.6371,-0.5952,-0.5976,-0.6584,0.0,0.0,0.0,0.0,0.0,0.0,0.0,0.0,0.0,0.0,0.0,0.0,0.0,0.0,0.0,0.0,0.0,0.0,0.0,0.0,0.0,0.0,0.0,0.0,0.0,0.0,0.0,0.0,0.0,0.0,0.0,0.0,0.0,0.0,0.0,0.0,0.0,0.0,0.0,0.0,0.0,0.0,0.0,0.0,0.0,0.0,0.0,0.0,0.0,0.0,0.0,0.0,0.0,0.0,0.0,0.0,0.0,0.0,0.0,0.0,0.0,0.0,0.0,0.0,0.0,0.0,0.0,0.0,0.0,0.0,0.0,0.0,0.0,0.0,0.0,0.0,0.0,0.0,0.0,0.0,0.0,0.0,0.0,0.0,0.0,0.0,0.0,0.0,0.0,0.0,0.0,0.0,0.0,0.0,0.0,0.0,0.0,0.0,0.0,0.0,0.0,0.0,-0.6891,-0.656,-0.6236,-0.6236,-0.6236,-0.6344,-0.6567,-0.6072,-0.5855,-0.6072,0.0,0.0,0.0,0.0,0.0,0.0,0.0,0.0,0.0,0.0,0.0,0.0,0.0,0.0,0.0,0.0,0.0,0.0,0.0,0.0,0.0,0.0,0.0,0.0,0.0,0.0,0.0,0.0,0.0,0.0,0.0,0.0,0.0,0.0,0.0,0.0,0.0,0.0,0.0,0.0,0.0,0.0,0.0,0.0,0.0,0.0,0.0,0.0,0.0,0.0,0.0,0.0,0.0,0.0,0.0,0.0,0.0,0.0,0.0,0.0,-1.2978,0.0,0.0,0.0,0.0,0.0,0.0,0.0,0.0,0.0,0.0,0.0,0.0,0.0,0.0,0.0,0.0,0.0,0.0,0.0,0.0,0.0,0.0,0.0,0.0,0.0,0.0,0.0,0.0,0.0,0.0,0.0,0.0,0.0,0.0,0.0,0.0,0.0,0.0,0.0,0.0,0.0,-0.728,-0.686,-0.6493,-0.6493,-0.6493,-0.652,-0.6587,-0.6303,-0.6295,-0.6771,0.0,0.0,0.0,0.0,0.0,0.0,0.0,0.0,0.0,0.0,0.0,0.0,0.0,0.0,0.0,0.0,0.0,0.0,0.0,0.0,0.0,0.0,0.0,0.0,0.0,0.0,0.0,0.0,0.0,0.0,0.0,0.0,0.0,0.0,0.0,0.0,0.0,0.0,0.0,0.0,0.0,0.0,0.0,0.0,0.0,0.0,0.0,0.0,0.0,0.0,0.0,0.0,0.0,0.0,0.0,0.0,0.0,0.0,0.0,0.0,0.0,-1.3242,0.0,0.0,0.0,0.0,0.0,0.0,0.0,0.0,0.0,0.0,0.0,0.0,0.0,0.0,0.0,0.0,0.0,0.0,0.0,0.0,0.0,0.0,0.0,0.0,0.0,0.0,0.0,0.0,0.0,0.0,0.0,0.0,0.0,0.0,0.0,0.0,0.0,0.0,0.0,0.0,-0.7417,-0.6954,-0.6587,-0.6587,-0.6587,-0.6647,-0.6787,-0.6533,-0.6553,-0.6994,-0.6804,0.0,0.0,0.0,0.0,0.0,0.0,0.0,0.0,0.0,0.0,0.0,0.0,0.0,0.0,0.0,0.0,0.0,0.0,0.0,0.0,0.0,0.0,0.0,0.0,0.0,0.0,0.0,0.0,0.0,0.0,0.0,0.0,0.0,0.0,0.0,0.0,0.0,0.0,0.0,0.0,0.0,0.0,0.0,0.0,0.0,0.0,0.0,0.0,0.0,0.0,0.0,0.0,0.0,0.0,-1.6738,-1.6963,-1.6967,-1.6816,-1.6338,-1.5273,-1.4394,-1.3721,0.0,0.0,0.0,0.0,0.0,0.0,0.0,0.0,0.0,0.0,0.0,0.0,0.0,0.0,0.0,0.0,0.0,0.0,0.0,0.0,0.0,0.0,0.0,0.0,0.0,-0.8591,-0.837,0.0,0.0,0.0,0.0,0.0,0.0,0.0,0.0,0.0,0.0,0.0,0.0,-0.751,-0.7074,-0.672,-0.6667,-0.6667,-0.676,-0.7001,-0.68,-0.6767,-0.6965,-0.7255,-0.7453,0.0,0.0,0.0,0.0,0.0,0.0,0.0,0.0,0.0,0.0,0.0,0.0,0.0,0.0,0.0,0.0,0.0,0.0,0.0,0.0,0.0,0.0,0.0,0.0,0.0,0.0,0.0,0.0,0.0,0.0,0.0,0.0,-1.2373,-1.2754,0.0,0.0,0.0,0.0,0.0,0.0,0.0,0.0,0.0,0.0,0.0,0.0,0.0,0.0,-1.6299,-1.7158,-1.7432,-1.7139,-1.8311,-1.8506,-1.7852,-1.8213,-1.8154,-1.7744,-1.7568,0.0,-1.459,-1.4209,0.0,0.0,0.0,0.0,0.0,0.0,0.0,0.0,0.0,0.0,0.0,0.0,0.0,0.0,0.0,0.0,0.0,0.0,0.0,0.0,0.0,0.0,-0.8697,-0.8484,-0.8597,-0.8671,0.0,-0.8493,-0.8587,-0.8587,0.0,0.0,0.0,0.0,0.0,0.0,0.0,0.0,-0.7855,-0.7562,-0.7255,-0.6994,-0.6967,-0.6981,-0.6979,-0.6987,-0.6981,-0.7021,-0.7061,-0.7194,-0.75,-0.7553,0.0,0.0,0.0,0.0,0.0,0.0,0.0,0.0,0.0,0.0,0.0,0.0,0.0,0.0,0.0,0.0,0.0,0.0,0.0,0.0,0.0,0.0,0.0,0.0,0.0,0.0,0.0,0.0,0.0,-1.2646,-1.2842,-1.2549,-1.2939,-1.3145,0.0,0.0,0.0,0.0,0.0,0.0,0.0,0.0,0.0,-1.6846,-1.7285,-1.7607,-1.7803,-1.8652,-1.9111,-1.918,-1.999,-2.0312,-2.0185,-2.0127,-2.0,-1.9795,-1.9297,-1.8545,-1.7559,-1.6172,-1.5449,-1.5176,0.0,0.0,0.0,0.0,0.0,-1.4192,-1.4239,-1.4251,0.0,0.0,0.0,0.0,0.0,0.0,0.0,0.0,0.0,0.0,0.0,0.0,0.0,-0.9138,-0.9205,-0.9265,-0.9138,-0.9212,-0.9152,0.0,-0.8831,-0.8998,-0.8838,0.0,0.0,0.0,0.0,0.0,-0.8196,-0.7916,-0.7675,-0.7503,-0.749,-0.749,-0.749,-0.749,-0.7462,-0.7281,-0.7435,-0.7435,-0.7228,-0.7702,-0.7721,0.0,0.0,0.0,0.0,0.0,0.0,0.0,0.0,0.0,0.0,0.0,0.0,0.0,0.0,0.0,0.0,0.0,0.0,0.0,0.0,0.0,0.0,0.0,0.0,0.0,0.0,0.0,0.0,-1.3193,-1.3428,-1.2745,-1.3672,-1.4082,0.0,0.0,0.0,0.0,0.0,0.0,-1.666,-1.7148,-1.7773,-1.8633,-1.9082,-1.9355,-1.9463,-2.0098,-2.0635,-2.1064,-2.1406,-2.1728,-2.2031,-2.1709,-2.1445,-2.1201,-2.0537,-2.0185,-1.9922,-1.7891,-1.6732,-1.6271,-1.6001,-1.535,-1.4649,-1.5169,-1.5178,-1.4935,-1.5487,-1.5253,-1.4684,-1.4626,0.0,-1.288,-1.2206,0.0,0.0,0.0,0.0,-0.9813,-0.9886,-0.9907,-0.9907,-0.9907,-0.9967,-0.998,-0.9826,-0.9853,-0.9673,0.0,-0.8998,-0.9117,-0.8958,0.0,0.0,0.0,0.0,-0.8457,-0.8383,-0.8183,-0.8016,-0.7888,-0.7882,-0.7882,-0.7882,-0.7882,-0.7829,-0.7595,-0.7802,-0.7682,-0.7231,-0.7903,-0.7931,-0.723,0.0,0.0,0.0,0.0,0.0,0.0,0.0,0.0,0.0,0.0,0.0,0.0,0.0,0.0,0.0,0.0,0.0,0.0,0.0,0.0,0.0,0.0,0.0,0.0,0.0,0.0,0.0,0.0,0.0,-1.399,-1.5478,0.0,0.0,0.0,0.0,-1.6572,-1.6973,-1.7598,-1.8457,-1.8926,-1.9551,-2.041,-2.0869,-2.1299,-2.1719,-2.1768,-2.2002,-2.2412,-2.2432,-2.2461,-2.248,-2.2461,-2.2002,-2.123,-2.1191,-2.0928,-2.04,-1.8662,-1.7533,-1.6991,-1.7197,-1.6892,-1.6336,-1.7035,-1.6439,-1.5432,-1.6319,-1.489,-1.3059,-1.512,-1.5169,-1.4328,-1.3925,-1.2993,0.0,0.0,-1.1114,-1.016,-1.0441,-1.0577,-1.0577,-1.0577,-1.0728,-1.0775,-1.0214,-1.0314,-1.0403,0.0,-0.9412,-0.9183,-0.9163,0.0,-0.8804,-0.8804,-0.8798,-0.8684,-0.841,-0.8357,-0.8243,-0.7915,-0.7882,-0.7882,-0.7882,-0.7882,-0.7875,-0.7862,-0.7875,-0.7868,-0.7842,-0.7882,-0.8028,-0.8293,-0.6923,0.0,0.0,0.0,0.0,0.0,0.0,0.0,0.0,0.0,0.0,0.0,0.0,0.0,0.0,0.0,0.0,0.0,0.0,0.0,0.0,0.0,0.0,0.0,0.0,0.0,0.0,0.0,0.0,-1.6162,-1.7246,0.0,0.0,-1.7285,-1.7666,-1.7872,-1.8359,-1.9102,-2.0244,-2.0723,-2.1348,-2.2197,-2.2373,-2.2529,-2.2685,-2.2695,-2.2764,-2.292,-2.292,-2.292,-2.291,-2.2637,-2.2344,-2.2041,-2.1768,-2.1562,-2.1348,-2.0449,-1.9609,-1.8796,-1.7949,-1.7532,-1.7334,-1.681,-1.6301,-1.5787,-1.5275,-1.4678,-1.4077,-1.3687,-1.3078,-1.2427,-1.1913,-1.1625,-1.1435,-1.1435,-1.1166,-1.0982,-1.1089,-1.1116,-1.1116,-1.1116,-1.1196,-1.1162,-1.0768,-1.0762,-1.0722,-1.0327,-0.986,-0.9466,-0.9216,-0.8998,-0.8804,-0.8804,-0.8804,-0.8771,-0.8664,-0.8651,-0.8611,-0.851,-0.849,-0.849,-0.849,-0.849,-0.8417,-0.823,-0.839,-0.8323,-0.7895,-0.829,-0.8247,-0.7708,-0.6869,-0.6284,0.0,0.0,0.0,0.0,0.0,0.0,0.0,0.0,0.0,0.0,0.0,0.0,0.0,0.0,0.0,0.0,0.0,0.0,0.0,0.0,0.0,0.0,0.0,0.0,0.0,0.0,-1.7373,-1.7959,-1.916,-1.96,-1.874,-1.9316,-1.9805,-1.9932,-2.0352,-2.1094,-2.2246,-2.2314,-2.2627,-2.333,-2.3213,-2.3135,-2.3135,-2.3135,-2.3135,-2.3135,-2.3135,-2.3135,-2.3125,-2.2852,-2.2646,-2.25,-2.2217,-2.2021,-2.1865,-2.1135,-2.0429,-1.9667,-1.8565,-1.7714,-1.7081,-1.6754,-1.6285,-1.5676,-1.4369,-1.4411,-1.4843,-1.3138,-1.2277,-1.1804,-1.1485,-1.1363,-1.1505,-1.184,-1.1772,-1.1666,-1.204,-1.1852,-1.1577,-1.1577,-1.1577,-1.1496,-1.1202,-1.1062,-1.0935,-1.0742,-1.0154,-0.9619,-0.9426,-0.9065,-0.8838,-0.8938,-0.8871,-0.8844,-0.8938,-0.8871,-0.8804,-0.8804,-0.8804,-0.8804,-0.8804,-0.8804,-0.8619,-0.8165,-0.8541,-0.8527,-0.7834,-0.8229,-0.8122,-0.7471,-0.6615,-0.5873,-0.5164,0.0,0.0,0.0,0.0,0.0,0.0,0.0,0.0,0.0,0.0,0.0,0.0,0.0,0.0,0.0,0.0,0.0,0.0,0.0,0.0,0.0,0.0,0.0,-1.6243,-1.8008,-1.9355,-1.9385,-2.126,-2.1894,-2.0195,-2.1943,-2.3018,-2.2607,-2.2959,-2.3555,-2.4375,-2.3613,-2.3359,-2.3799,-2.3389,-2.3154,-2.3154,-2.3154,-2.3154,-2.3135,-2.3135,-2.3135,-2.3135,-2.3135,-2.292,-2.2529,-2.2529,-2.2295,-2.1812,-2.0736,-1.9969,-1.9498,-1.9128,-1.7666,-1.5861,-1.6846,-1.6387,-1.5013,-1.3712,-1.4106,-1.5005,-1.3612,-1.3013,-1.2849,-1.2842,-1.2559,-1.2546,-1.3404,-1.2827,-1.2172,-1.3382,-1.2806,-1.1884,-1.1884,-1.1884,-1.1804,-1.1503,-1.1223,-1.1015,-1.0995,-1.0301,-0.9706,-0.9699,-0.9212,-0.8918,-0.9143,-0.8991,0.0,-0.9137,-0.8978,-0.8811,-0.8818,-0.8811,-0.8811,-0.8824,-0.8811,-0.848,-0.7777,-0.8427,-0.848,-0.7723,-0.7723,-0.767,-0.7616,-0.6195,-0.5164,-0.4519,0.0,0.0,0.0,0.0,0.0,0.0,0.0,0.0,0.0,0.0,0.0,0.0,0.0,0.0,0.0,0.0,0.0,0.0,0.0,0.0,0.0,0.0,-1.8506,-1.8809,-1.9922,-2.0928,-2.1553,-2.2705,-2.3252,-2.2773,-2.3262,-2.3691,-2.3877,-2.4004,-2.417,-2.4404,-2.3906,-2.3809,-2.4228,-2.3828,-2.3613,-2.3613,-2.3613,-2.3457,-2.3135,-2.3135,-2.3135,-2.3135,-2.3135,-2.3076,-2.2969,-2.2969,-2.2734,-2.2314,-2.1659,-2.0255,-1.8454,-1.8351,-1.7738,-1.6764,-1.6355,-1.5256,-1.4028,-1.3628,-1.373,-1.3987,-1.338,-1.3293,-1.3353,-1.3146,-1.3026,-1.299,-1.3058,-1.2791,-1.2546,-1.2627,-1.2458,-1.2184,-1.2184,-1.2184,-1.2104,-1.181,-1.1683,-1.1503,-1.1076,-1.0628,-1.0247,-1.0033,-0.9512,-0.9097,-0.9176,-0.8991,0.0,-0.8918,-0.8858,-0.8884,-0.9044,-0.8931,-0.8891,-0.905,-0.8931,-0.8699,0.0,-0.8699,-0.848,-0.7723,-0.7723,-0.7176,-0.614,-0.5222,-0.4677,0.0,0.0,0.0,0.0,0.0,0.0,0.0,0.0,0.0,0.0,0.0,0.0,0.0,0.0,0.0,0.0,0.0,0.0,0.0,0.0,0.0,0.0,-1.9209,-2.0439,-2.1406,-2.1826,-2.2353,-2.3213,-2.3906,-2.4258,-2.4072,-2.4394,-2.4629,-2.4687,-2.4687,-2.4775,-2.4961,-2.4385,-2.4248,-2.4678,-2.4102,-2.3789,-2.3789,-2.3603,-2.3389,-2.3135,-2.3135,-2.3135,-2.3135,-2.3135,-2.3135,0.0,-2.3135,-2.2998,-2.2754,-2.251,-2.1109,0.0,0.0,0.0,0.0,0.0,-1.4539,-1.3828,-1.3828,-1.3828,-1.3801,-1.3634,-1.3607,-1.3614,-1.344,-1.3213,-1.305,-1.3328,-1.303,-1.2668,-1.2854,-1.2586,-1.2305,-1.2305,-1.2305,-1.2258,-1.2084,-1.1957,-1.177,-1.143,0.0,0.0,-1.0534,-0.9893,-0.9466,-0.9586,-0.9252,-0.9031,-0.9158,-0.8958,-0.8871,-0.9038,-0.8911,-0.8878,-0.9045,-0.8905,0.0,0.0,0.0,-0.7883,-0.6848,-0.6794,0.0,0.0,0.0,-0.4519,-0.4519,0.0,0.0,0.0,-0.4519,-0.4519,0.0,0.0,0.0,0.0,0.0,0.0,0.0,0.0,0.0,0.0,0.0,0.0,0.0,0.0,0.0,0.0,-2.083,-2.1982,-2.3691,-2.3613,-2.3643,-2.4336,-2.4805,-2.4912,-2.4531,-2.5205,-2.5518,-2.5166,-2.5146,-2.5322,-2.5713,0.0,0.0,0.0,0.0,-2.3906,-2.3857,-2.3477,-2.3232,-2.3135,-2.3135,-2.3135,-2.3135,-2.3135,-2.3135,-2.3135,-2.3135,-2.3135,-2.3135,-2.3086,-2.2178,-2.0535,-1.812,-1.6012,-1.4291,-1.4179,-1.4088,0.0,0.0,0.0,0.0,-1.4088,-1.3908,-1.3694,-1.3694,-1.332,-1.3117,-1.3918,-1.3325,-1.2662,-1.3433,-1.3058,-1.2405,-1.2405,-1.2405,-1.2392,-1.2358,-1.2151,-1.1951,-1.1884,-1.1657,-1.1383,-1.1089,-1.0341,-0.986,-1.0087,-0.9646,-0.9372,-0.9599,-0.9178,-0.8858,-0.8858,0.0,0.0,-0.8851,-0.8824,-0.8533,-0.7883,-0.767,-0.6956,-0.5542,-0.5433,-0.5109,-0.4519,-0.4519,-0.4525,-0.4543,-0.4543,-0.4553,-0.457,-0.4532,-0.4519,0.0,0.0,0.0,0.0,0.0,0.0,0.0,0.0,0.0,0.0,0.0,0.0,0.0,0.0,0.0,-2.1269,-2.1934,-2.2861,-2.458,-2.4746,-2.4629,-2.4443,-2.4805,-2.5029,-2.4951,-2.5098,-2.5312,-2.5586,-2.5605,-2.5644,-2.5732,-2.5234,0.0,-2.5596,-2.5098,-2.4648,-2.4297,-2.4209,-2.3828,-2.3135,0.0,0.0,-2.3135,-2.3135,-2.3135,-2.3135,-2.3135,-2.3135,-2.3105,-2.2773,-2.175,-2.009,-1.7524,-1.6254,-1.5723,-1.4585,-1.4088,-1.4088,-1.4088,-1.4088,-1.4088,-1.4088,-1.4048,-1.4001,-1.4001,-1.3921,0.0,-1.3777,-1.3507,-1.3327,-1.3328,-1.3189,-1.3039,-1.3039,-1.3039,-1.2966,-1.2712,-1.2694,-1.2513,-1.1957,-1.1824,-1.169,-1.1396,-1.0808,-1.0327,-1.014,-0.982,-0.9532,-0.9352,-0.917,-0.9103,-0.9103,-0.8945,-0.8898,-0.9084,-0.8938,-0.8752,-0.8593,-0.745,-0.6421,-0.5542,-0.5003,-0.4625,-0.4519,-0.4519,-0.458,-0.4646,-0.4646,-0.4711,-0.4823,-0.4575,-0.4519,0.0,0.0,0.0,0.0,0.0,0.0,0.0,0.0,0.0,0.0,0.0,-1.9102,0.0,0.0,-2.1641,-2.2939,-2.3701,-2.4424,-2.5283,-2.5596,-2.5566,-2.5127,-2.5273,-2.54,-2.54,-2.54,-2.5498,-2.5723,-2.5742,-2.5742,-2.5742,-2.5527,-2.5508,-2.5732,-2.5303,-2.4961,-2.4746,-2.4521,-2.4092,-2.3467,-2.3467,-2.335,-2.3135,-2.3135,-2.3135,-2.3135,-2.3135,-2.3135,-2.3125,-2.291,-2.1968,-2.0575,-1.846,-1.7266,-1.6391,-1.4826,-1.4302,-1.4282,-1.4135,-1.4088,-1.4088,-1.4088,-1.4088,-1.4088,-1.4088,-1.3981,-1.3834,-1.3687,-1.354,-1.3394,-1.3247,-1.3213,-1.3213,-1.3213,-1.3093,-1.2933,-1.2856,-1.2701,-1.2438,-1.2144,-1.2084,-1.1991,-1.1697,-1.141,-1.1062,-1.0621,-1.018,-0.9793,-0.9499,-0.9459,-0.9345,-0.9058,-0.9025,-0.9078,-0.9176,-0.9245,-0.8899,-0.8099,-0.7362,-0.6397,-0.5258,-0.4861,-0.4691,-0.4691,-0.4691,-0.4728,-0.4806,-0.4806,-0.4843,-0.4914,-0.4762,-0.4691,0.0,0.0,0.0,0.0,0.0,0.0,0.0,0.0,-1.7079,-1.8206,-1.9354,-2.0459,-2.1426,-2.2305,-2.3242,-2.4365,-2.5146,-2.5635,-2.5723,-2.6045,-2.6103,-2.5664,-2.5684,-2.5742,-2.5742,-2.5742,-2.5742,-2.5742,-2.5742,-2.5742,-2.5742,-2.5742,-2.5742,-2.5742,-2.5391,-2.5156,-2.5068,-2.4717,-2.4326,-2.3906,-2.3828,-2.3603,-2.3262,-2.3184,-2.3135,-2.3135,-2.3135,-2.3135,-2.3135,-2.3135,-2.2403,-2.1176,-1.9711,-1.8265,-1.6728,-1.5094,-1.4522,-1.4476,-1.443,-1.4412,-1.4412,-1.4657,-1.4573,-1.4412,-1.4412,-1.4081,-1.3728,-1.3728,-1.3561,-1.338,-1.338,-1.338,-1.338,-1.338,-1.3186,-1.2993,-1.2933,-1.2732,-1.2525,-1.2412,-1.2385,-1.2298,-1.2004,-1.1904,-1.167,-1.1082,-1.0595,-1.016,-0.9813,-0.9766,-0.9566,-0.9031,-0.9185,-0.9325,-0.9325,-0.9315,-0.8783,-0.7408,-0.7111,-0.6404,-0.4979,-0.4918,-0.4918,-0.4918,-0.4918,-0.4931,-0.4958,-0.4958,-0.4975,-0.5006,-0.5006,-0.4975,-1.1646,-1.1568,-1.22,-1.352,-1.3844,-1.4486,0.0,0.0,-1.9366,-1.9879,-2.1703,-2.3223,-2.2988,-2.3633,-2.4375,-2.4912,-2.5078,-2.5283,-2.5684,-2.5781,-2.5644,-2.5195,-2.5498,-2.5742,-2.5742,-2.5742,-2.5742,-2.5742,-2.5742,-2.5742,-2.5742,-2.5742,-2.5742,-2.5742,-2.5684,-2.5469,-2.5068,-2.5019,-2.4775,-2.4346,-2.3965,-2.3769,-2.3701,-2.332,-2.3135,-2.3135,-2.3135,-2.3135,-2.3135,-2.3135,-2.2403,-2.1194,-1.9901,-1.8684,-1.7375,-1.5253,-1.4522,-1.4562,-1.5238,-1.5538,-1.5703,-1.6601,-1.6281,-1.5538,-1.5538,-1.4789,-1.4041,-1.4041,-1.4015,-1.3988,-1.3988,-1.3988,-1.3988,-1.3988,-1.3961,-1.3861,-1.3601,-1.3514,-1.3333,-1.2876,-1.2775,-1.2681,-1.2305,-1.2037,-1.167,-1.1082,-1.0935,-1.0695,-1.014,-1.0067,-0.994,-0.9619,-0.9613,-0.9633,-0.9633,-0.872,-0.7886,-0.7333,-0.6584,-0.5755,-0.4918,-0.4918,-0.4918,-0.4918,-0.4918,-0.4982,-0.5108,-0.5108,-0.5176,-0.5311,-0.5311,-0.5169,-1.2512,-1.2531,0.0,0.0,-1.5673,-1.7579,-1.9188,-2.0449,-2.1508,-2.2168,-2.3519,-2.4482,-2.4307,-2.4775,-2.5244,0.0,-2.5674,-2.581,-2.5742,-2.5742,-2.5566,-2.5127,-2.501,-2.4971,-2.4971,-2.5195,-2.5352,-2.5352,-2.5596,-2.5742,-2.5742,-2.5742,-2.5742,-2.5742,-2.5742,-2.5644,-2.5459,-2.5459,-2.5234,-2.4785,-2.4355,-2.4033,-2.3769,-2.334,-2.3135,-2.3135,-2.3135,-2.3135,-2.3047,-2.2306,-2.1302,-2.0124,-1.8956,-1.7677,-1.6504,-1.5406,-1.4923,-1.4818,-1.494,-1.4881,-1.481,-1.5311,-1.5144,-1.4734,-1.4734,-1.4496,-1.4088,-1.4088,-1.4088,-1.4088,-1.4088,-1.4088,-1.4088,-1.4088,-1.3955,-1.3794,-1.3667,-1.3507,-1.3313,-1.3066,-1.3019,-1.2979,-1.2852,-1.2579,-1.2238,-1.1817,-1.1463,-1.1035,-1.0448,-1.0521,-1.0448,-0.9987,-0.9933,-0.9748,-0.9191,-0.8872,-0.8198,-0.7042,-0.6611,-0.6054,-0.524,-0.5176,-0.5176,-0.5176,-0.5176,-0.5206,-0.5267,-0.5267,-0.5298,-0.5428,-0.5428,-0.5294,-1.2933,0.0,0.0,-1.5056,-1.7691,-2.0254,-2.0851,-2.2273,-2.3545,-2.4043,-2.4736,-2.5215,-2.5088,-2.5234,0.0,-2.5537,-2.582,-2.5957,-2.5762,-2.5635,-2.5391,-2.4941,-2.4512,-2.4199,-2.4072,-2.456,-2.4941,-2.5059,-2.5371,-2.5605,-2.5732,-2.5742,-2.5742,-2.5742,-2.5742,-2.5742,-2.5742,-2.5742,-2.5576,-2.5244,-2.4805,-2.4375,-2.3945,-2.3389,-2.3135,-2.3135,-2.3135,-2.3135,-2.3047,-2.1756,-2.0576,-1.9405,-1.8141,-1.6943,-1.5805,-1.5591,-1.5331,-1.5127,-1.5082,-1.4922,-1.4822,-1.5156,-1.4993,-1.4822,-1.4822,-1.4572,-1.4315,-1.4229,-1.4208,-1.4208,-1.4208,-1.4208,-1.4229,-1.4309,-1.4102,-1.3908,-1.3988,-1.3714,-1.3454,-1.3454,-1.3387,-1.3307,-1.3227,-1.3026,-1.2772,-1.2472,-1.2064,-1.155,-1.0882,-1.0915,-1.0802,-1.0294,-0.991,-0.9518,-0.8968,-0.8639,-0.796,-0.678,-0.6461,-0.6075,-0.5428,-0.5428,-0.5428,-0.5428,-0.5428,-0.5428,-0.5428,-0.5428,-0.5428,-0.5428,-0.5428,-0.5428,0.0,0.0,-1.532,-1.7293,-1.9546,-2.1456,-2.1971,-2.3947,-2.5527,-2.5117,-2.54,-2.5586,-2.5146,-2.4736,-2.459,-2.5019,-2.5098,-2.5254,-2.5674,-2.5361,-2.4922,-2.4492,-2.4062,-2.3643,0.0,-2.3945,-2.4609,-2.5039,-2.5078,-2.5283,-2.5713,-2.5742,-2.5742,-2.5742,-2.5742,-2.5742,-2.5742,-2.5742,-2.5732,-2.5713,-2.5264,-2.4814,-2.4365,-2.3525,-2.3135,-2.3135,-2.3135,-2.3135,-2.3047,-2.1756,-2.0576,-1.9405,-1.8141,-1.6943,-1.5832,-1.5818,-1.5631,-1.5521,-1.6263,-1.6572,-1.674,-1.7778,-1.7344,-1.6565,-1.6565,-1.5793,-1.4877,-1.4589,-1.4502,-1.4502,-1.4502,-1.4502,-1.4583,-1.487,-1.471,-1.4569,-1.4863,-1.4469,-1.4062,-1.4062,-1.3828,-1.354,-1.326,-1.32,-1.3093,-1.2856,-1.2795,-1.2392,-1.151,-1.1162,-1.0875,-1.0638,-0.9519,-0.8968,-0.9238,-0.7438,-0.64,-0.6706,-0.5881,-0.5428,-0.5428,-0.5428,-0.5428,-0.5428,-0.5428,-0.5428,-0.5428,-0.5428,-0.5428,-0.5428,-0.5428,-0.5428,0.0,0.0,-1.9091,-2.0219,-2.2672,-2.4688,-2.4593,-2.5344,-2.5957,-2.5225,-2.4736,-2.4307,-2.3867,-2.3437,-2.3291,-2.3721,-2.4268,-2.4795,-2.5234,-2.5166,-2.4912,-2.4473,-2.4043,0.0,0.0,0.0,0.0,-2.4209,-2.4746,-2.5137,-2.5283,-2.5576,-2.5742,-2.5742,-2.5742,-2.5742,-2.5742,-2.5742,-2.5742,-2.5732,-2.5283,-2.4834,-2.4404,-2.4121,-2.3838,-2.3475,-2.274,-2.2203,-2.1756,-1.977,-1.868,-1.8133,-1.6943,-1.6204,-1.5832,-1.5832,-1.5765,-1.5638,-1.5796,-1.5646,-1.5562,-1.5917,-1.5828,-1.5569,-1.5569,-1.5821,-1.6139,-1.6031,-1.6002,-1.6002,-1.6002,-1.5408,-1.4836,-1.4943,-1.4883,-1.4843,-1.4943,-1.481,-1.4669,-1.4669,-1.4429,-1.4195,-1.4095,-1.3754,-1.3327,-1.2896,-1.2486,-1.2058,-1.1757,-1.1296,-1.0955,-1.0862,-0.9804,-0.8914,-0.8474,-0.7247,-0.6331,-0.5877,-0.5557,-0.5428,-0.5428,-0.5428,-0.5428,-0.5428,-0.5428,-0.541,-0.5511,-0.5511,-0.5511,-0.5511,-0.5511,-0.5511,-1.7605,-1.9879,-2.1911,-2.3208,-2.4958,-2.6318,-2.6035,-2.6064,-2.5859,-2.4824,-2.3926,-2.3154,-2.2568,-2.1728,-2.1475,-2.2519,-2.3027,-2.3643,-2.4687,-2.4834,-2.4785,-2.4668,-2.4268,0.0,0.0,0.0,0.0,-2.3799,-2.459,-2.5068,-2.5068,-2.5488,-2.5742,-2.5742,-2.5742,-2.5742,-2.5742,-2.5742,-2.5742,-2.5732,-2.4785,-2.443,-2.4639,-2.4492,-2.3905,-2.3138,-2.2309,-2.1508,-2.0486,-1.8503,-1.7692,-1.7591,-1.6292,-1.5832,-1.5832,-1.5832,-1.5832,-1.5805,-1.5618,-1.5431,-1.5277,-1.5277,-1.5277,-1.5277,-1.5277,-1.6154,-1.7011,-1.6453,-1.6588,-1.6847,-1.6417,-1.5729,-1.5144,-1.5251,-1.5197,-1.515,-1.5251,-1.511,-1.4997,-1.5097,-1.4796,-1.4522,-1.4522,-1.4035,-1.3507,-1.3126,-1.2559,-1.2104,-1.1897,-1.1543,-1.1088,-1.0612,-0.9634,-0.8576,-0.7637,-0.6724,-0.6009,-0.5428,-0.5428,-0.5428,-0.5428,-0.5428,-0.5428,-0.5428,-0.5428,-0.541,-0.5508,-0.5562,-0.5562,-0.5508,-0.5562,-0.5589,-2.0545,-2.2102,-2.3828,-2.5879,-2.6426,-2.6426,-2.6338,-2.5986,-2.5293,-2.3965,-2.2978,-2.208,0.0,0.0,-1.9326,-2.1406,-2.1514,-2.2051,-2.4131,-2.4473,-2.4668,0.0,0.0,0.0,0.0,0.0,0.0,-2.3857,0.0,-2.5068,-2.5068,-2.5488,-2.5742,-2.5742,-2.5742,-2.5752,-2.5771,-2.5664,-2.5655,-2.5625,-2.3906,-2.3712,-2.4983,-2.4575,-2.3483,-2.2052,-2.1868,-2.0885,-1.9314,-1.8141,-1.7598,-1.7505,-1.6292,-1.5832,-1.5832,-1.5832,-1.5832,-1.5832,-1.5832,-1.5832,-1.5832,-1.5832,-1.5832,-1.5832,-1.5832,-1.6669,-1.7345,-1.5954,-1.6303,-1.6919,-1.5773,-1.551,-1.5484,-1.5765,-1.5618,-1.5491,-1.5772,-1.5398,-1.509,-1.5364,-1.4957,-1.4556,-1.4522,-1.4055,-1.3674,-1.3566,-1.3146,-1.2565,-1.1919,-1.1813,-1.13,-0.9811,-0.8845,-0.7865,-0.6815,-0.5885,-0.5428,-0.5428,-0.5428,-0.5428,-0.5428,-0.5428,-0.5428,-0.5428,-0.5435,-0.5446,-0.5452,-0.5532,-0.5532,-0.5466,-0.5538,-0.5606,-2.3076,-2.4675,-2.6084,-2.6328,-2.6875,-2.7002,-2.5703,-2.5068,-2.4307,-2.2695,-2.1162,-1.9756,0.0,0.0,0.0,-1.9805,-2.1475,0.0,-2.4248,-2.5264,0.0,0.0,0.0,-2.5273,-2.4932,-2.4902,0.0,0.0,-2.4766,-2.5068,-2.5068,-2.5488,-2.5742,-2.5742,-2.5742,-2.5889,-2.6221,-2.5167,-2.449,-2.4196,-2.379,-2.3735,-2.4039,-2.3929,-2.3304,-2.2366,-2.035,-1.9059,-1.8048,-1.6756,-1.6292,-1.6292,-1.592,-1.5832,-1.5832,-1.5832,-1.5832,-1.5832,-1.5832,-1.5832,-1.5832,-1.5832,-1.5832,-1.5832,-1.5832,-1.6669,-1.7584,-1.7223,-1.7379,-1.7465,-1.7194,-1.6362,-1.5738,-1.5812,-1.5772,-1.5738,-1.5812,-1.5712,-1.5631,-1.5705,-1.5424,-1.5037,-1.4596,-1.4396,-1.4148,-1.3707,-1.3327,-1.2719,-1.1499,-1.1022,-1.0354,-0.9148,-0.7998,-0.7188,-0.6869,-0.5952,-0.5428,-0.5428,-0.5428,-0.5428,-0.5428,-0.5428,-0.5428,-0.5428,-0.5474,-0.5583,-0.5688,-0.5728,-0.5786,-0.5857,-0.5783,-0.5806,-2.5098,-2.6416,-2.7285,-2.7236,-2.7168,-2.6699,-2.5137,-2.3867,-2.2529,-2.081,-1.9082,0.0,0.0,0.0,0.0,0.0,0.0,0.0,-2.3887,-2.4941,-2.5576,0.0,-2.5742,0.0,-2.5391,-2.5537,-2.5469,0.0,-2.5225,-2.5273,-2.5078,-2.5488,-2.5742,-2.5742,-2.5918,-2.623,-2.666,-2.4642,-2.3709,-2.3944,-2.2715,-2.2325,-2.2868,-2.2868,-2.2249,-2.1003,0.0,-1.8081,-1.7049,-1.6164,-1.5832,-1.5832,-1.5832,-1.5832,-1.5832,-1.5832,-1.5832,-1.5832,-1.5832,-1.5832,-1.5832,-1.5832,-1.5832,-1.5832,-1.5832,-1.6669,-1.7598,-1.7037,-1.7225,-1.7591,-1.7037,-1.6386,-1.5832,-1.5832,-1.5832,-1.5832,-1.5832,-1.5832,-1.5792,-1.5665,-1.5504,-1.5251,-1.479,-1.4603,-1.4409,-1.4075,-1.3244,-1.2184,-1.0975,-1.0656,-0.9941,-0.8373,-0.7588,-0.6937,-0.6441,-0.5873,-0.5528,-0.5464,-0.546,-0.5433,-0.5432,-0.5428,-0.5428,-0.5428,-0.5511,-0.563,-0.5708,-0.5837,-0.5911,-0.5928,-0.584,-0.5884,-2.666,-2.7412,-2.7812,-2.8066,-2.7207,-2.5908,-2.4414,-2.251,-2.0547,-1.875,0.0,-1.6017,-1.5968,0.0,-1.5762,-1.8232,0.0,-2.0537,-2.3389,-2.4258,-2.4873,-2.5644,-2.584,-2.5908,-2.5908,-2.625,-2.619,-2.5546,-2.5517,-2.5421,-2.5185,-2.5527,-2.5635,-2.543,-2.5746,-2.603,-2.6394,-2.3738,-2.2825,-2.375,-2.1217,-2.0524,-2.1448,-2.1448,-2.0655,-1.9134,0.0,0.0,-1.6253,-1.5999,-1.5865,-1.5832,-1.5832,-1.5832,-1.5832,-1.5832,-1.5832,-1.5832,-1.5832,-1.5832,-1.5832,-1.5832,-1.5832,-1.5832,-1.5832,-1.6574,-1.7225,-1.6109,-1.6574,-1.7225,-1.6109,-1.5832,-1.5832,-1.5832,-1.5832,-1.5832,-1.5832,-1.5832,-1.5752,-1.5504,-1.5451,-1.5357,-1.507,-1.481,-1.4522,-1.4348,-1.2917,-1.1477,-1.0361,-1.0374,-0.9658,-0.7588,-0.7327,-0.6946,-0.5916,-0.5813,-0.5749,-0.5627,-0.5616,-0.5559,-0.5426,-0.547,-0.5459,-0.5459,-0.5521,-0.5589,-0.5589,-0.5847,-0.5922,-0.583,-0.581,-0.5895,-2.7285,-2.7861,-2.8037,-2.7393,-2.6543,-2.5225,-2.2861,-2.1191,0.0,0.0,0.0,-1.542,-1.5068,-1.5469,0.0,-1.833,0.0,0.0,0.0,0.0,-2.5566,0.0,0.0,0.0,0.0,0.0,0.0,0.0,0.0,0.0,-2.5548,-2.5693,-2.5226,-2.4097,-2.3361,-2.2971,-2.2936,-2.1465,-2.0703,-2.0852,-2.0045,-1.9783,-1.993,-1.993,-1.9653,-1.9142,0.0,0.0,-1.6273,-1.6219,-1.6052,-1.5832,-1.5832,-1.5832,-1.5832,-1.5832,-1.5832,-1.5832,-1.5832,-1.5832,-1.5832,-1.5832,-1.5832,-1.5832,-1.5832,-1.592,-1.6109,-1.5825,-1.592,-1.6109,-1.5832,-1.5832,-1.5832,-1.5832,-1.5832,-1.5832,-1.5832,-1.5832,-1.5812,-1.5765,-1.5752,-1.5665,-1.5371,-1.5277,-1.4702,-1.3322,-1.2629,-1.142,-0.9297,-0.8795,-0.8159,-0.6803,-0.6599,-0.6384,-0.6003,-0.5874,-0.5789,-0.5766,-0.5766,-0.5752,-0.5725,-0.5613,-0.5549,-0.5549,-0.5576,-0.5589,-0.5589,-0.564,-0.5779,-0.5986,-0.5861,-0.5952,-2.7432,-2.7969,-2.8144,-2.751,-2.6191,-2.4375,-2.1787,0.0,0.0,0.0,0.0,-1.4053,-1.3838,0.0,0.0,0.0,0.0,0.0,0.0,0.0,0.0,0.0,0.0,0.0,0.0,0.0,0.0,0.0,0.0,0.0,-2.3619,-2.3592,-2.3373,-2.297,-2.2535,-2.2407,-2.2493,-2.1222,-2.0392,-2.0227,-1.9247,-1.8668,-1.861,-1.861,-1.8525,-1.8281,-1.7517,0.0,-1.6486,-1.6333,-1.6099,-1.5832,-1.5832,-1.5832,-1.5832,-1.5832,-1.5832,-1.5832,-1.5832,-1.5832,-1.5832,-1.5832,-1.5832,-1.5832,-1.5832,-1.5832,-1.5832,-1.5832,-1.5832,-1.5832,-1.5832,-1.5832,-1.5832,-1.5832,-1.5832,-1.5832,-1.5832,-1.5832,-1.5832,-1.5832,-1.5832,-1.5785,-1.5645,-1.492,-1.4019,-1.3165,-1.1634,-1.0173,-0.8949,-0.808,-0.7308,-0.6585,-0.641,-0.6312,-0.6162,-0.6081,-0.6006,-0.5925,-0.5922,-0.585,-0.5698,-0.5698,-0.5627,-0.5474,-0.5623,-0.5664,-0.5589,-0.5664,-0.5813,-0.6027,-0.5874,-0.5966,-2.7295,-2.79,-2.8174,-2.7656,-2.5889,-2.3584,-2.074,-1.8228,0.0,0.0,-1.3151,-1.2808,-1.285,0.0,0.0,0.0,0.0,0.0,0.0,0.0,0.0,0.0,0.0,0.0,0.0,0.0,0.0,0.0,0.0,0.0,0.0,-2.1448,-2.1374,-2.1674,-2.1474,-2.1433,-2.1889,-2.0642,-1.9986,-1.981,-1.8493,-1.7816,-1.7582,-1.7582,-1.7582,-1.7569,-1.7341,0.0,0.0,-1.6486,-1.6226,-1.6005,-1.5879,-1.5872,-1.5919,-1.5852,-1.5832,-1.5832,-1.5832,-1.5832,-1.5832,-1.5832,-1.5832,-1.5832,-1.5832,-1.5832,-1.5832,-1.5832,-1.5832,-1.5832,-1.5832,-1.5832,-1.5832,-1.5832,-1.5832,-1.5832,-1.5832,-1.5832,-1.573,-1.5439,-1.5439,-1.5337,-1.5051,-1.3903,-1.2907,-1.2517,-1.0582,-0.9041,-0.8568,-0.7665,-0.6993,-0.661,-0.6569,-0.6498,-0.6322,-0.6305,-0.624,-0.6088,-0.6078,-0.5976,-0.5742,-0.581,-0.5742,-0.5508,-0.5698,-0.5732,-0.5589,-0.5732,-0.5864,-0.5979,-0.5891,-0.5996,-2.6846,-2.7676,-2.8096,-2.7275,-2.5449,-2.2892,-1.9296,0.0,0.0,-1.2272,-1.2166,-1.2538,-1.2635,-1.3442,0.0,0.0,0.0,0.0,0.0,0.0,0.0,0.0,0.0,0.0,0.0,0.0,0.0,0.0,0.0,0.0,0.0,-2.0538,-1.9842,-1.9879,-1.8653,-1.8187,-1.8502,-1.8115,-1.7995,-1.8252,-1.7862,-1.7609,-1.7582,-1.7582,-1.7582,-1.7582,0.0,0.0,0.0,-1.6787,-1.6653,-1.6573,-1.6039,-1.5999,-1.6199,-1.5925,-1.5832,-1.5832,-1.5832,-1.5832,-1.5832,-1.5832,-1.5832,-1.5832,-1.5832,-1.5832,-1.5832,-1.5832,-1.5832,-1.5832,-1.5832,-1.5832,-1.5832,-1.5832,-1.5832,-1.5832,-1.5832,-1.5832,-1.5439,-1.4262,-1.407,-1.3686,-1.2431,-1.2124,-1.1576,-1.0036,-0.9595,-0.8909,-0.7439,-0.7139,-0.7075,-0.6905,-0.6888,-0.677,-0.6478,-0.6454,-0.639,-0.6247,-0.624,-0.6227,-0.62,-0.6078,-0.5996,-0.5969,-0.5857,-0.5732,-0.5589,-0.5732,-0.581,-0.5827,-0.5949,-0.6098,-2.5469,-2.6855,-2.7705,-2.6855,-2.501,-2.2494,-1.906,0.0,0.0,-1.1631,-1.1427,-1.1693,-1.1477,-1.2114,-1.2569,0.0,0.0,0.0,0.0,0.0,0.0,0.0,0.0,0.0,0.0,0.0,0.0,0.0,0.0,0.0,0.0,-1.8914,-1.8401,-1.8401,-1.7891,-1.7642,-1.7762,-1.7642,-1.7642,-1.7762,-1.7642,-1.7582,-1.7582,-1.7582,-1.7582,-1.7582,0.0,0.0,0.0,-1.7021,-1.6767,-1.642,-1.6186,-1.6059,-1.5992,-1.5872,-1.5832,-1.5832,-1.5832,-1.5832,-1.5832,-1.5832,-1.5832,-1.5832,-1.5832,-1.5832,-1.5832,-1.5832,-1.5832,-1.5832,-1.5832,-1.5832,-1.5832,-1.5832,-1.5832,-1.5832,-1.5832,-1.5242,-1.4555,-1.3974,-1.3204,-1.2528,-1.1945,-1.1268,-1.0489,-0.9828,-0.8953,-0.8066,-0.7396,-0.7197,-0.7119,-0.7061,-0.698,-0.6844,-0.6627,-0.6525,-0.6447,-0.639,-0.6308,-0.6217,-0.6125,-0.6152,-0.6081,-0.5895,-0.5922,-0.5867,-0.5718,-0.5772,-0.5847,-0.5939,-0.6,-0.6112,-2.373,-2.5478,-2.6748,-2.6152,-2.3987,-2.1291,0.0,0.0,0.0,-1.0743,-1.0711,-1.0973,-1.091,-1.1443,-1.1697,-1.1085,0.0,-1.1947,0.0,0.0,0.0,0.0,0.0,0.0,0.0,0.0,0.0,0.0,0.0,0.0,0.0,-1.7963,-1.7622,-1.7716,-1.7629,-1.7582,-1.7582,-1.7582,-1.7582,-1.7582,-1.7582,-1.7582,-1.7582,-1.7582,-1.7582,-1.7582,0.0,0.0,0.0,-1.7188,-1.6907,-1.6513,-1.6339,-1.6146,-1.5952,-1.5865,-1.5832,-1.5832,-1.5832,-1.5832,-1.5832,-1.5832,-1.5832,-1.5832,-1.5832,-1.5832,-1.5832,-1.5832,-1.5832,-1.5832,-1.5832,-1.5832,-1.5832,-1.5832,-1.5832,-1.5832,-1.5832,-1.5146,-1.4268,-1.3494,-1.2528,-1.1653,-1.0872,-0.9998,-0.9351,-0.9268,-0.8292,-0.7607,-0.7458,-0.7302,-0.7207,-0.7207,-0.7078,-0.6929,-0.678,-0.6627,-0.6519,-0.6474,-0.6339,-0.621,-0.6101,-0.6203,-0.6159,-0.5942,-0.6044,-0.6023,-0.5871,-0.5915,-0.5969,-0.603,-0.6074,-0.6156,-2.167,-2.3477,-2.5088,-2.5088,-2.2371,-1.9136,0.0,0.0,0.0,-0.9459,-0.9776,-1.0509,-1.1152,-1.187,-1.2233,-1.1843,-1.1548,0.0,0.0,0.0,0.0,0.0,0.0,0.0,0.0,0.0,0.0,0.0,0.0,0.0,0.0,0.0,-1.7722,-1.8029,-1.7742,-1.7582,-1.7582,-1.7582,-1.7582,-1.7582,-1.7582,-1.7582,-1.7582,-1.7582,-1.7582,0.0,0.0,0.0,0.0,-1.7268,-1.725,-1.7081,-1.65,-1.6273,-1.6233,-1.5939,-1.5832,-1.5832,-1.5832,-1.5832,-1.5832,-1.5832,-1.5832,-1.5832,-1.5832,-1.5832,-1.5832,-1.5832,-1.5832,-1.5832,-1.5832,-1.5832,-1.5832,-1.5832,-1.5832,-1.5832,-1.5832,-1.5825,-1.5051,-1.2431,-1.195,-1.1068,-0.8531,-0.8038,-0.7987,-0.7834,-0.7811,-0.7756,-0.7614,-0.7465,-0.737,-0.737,-0.7231,-0.7082,-0.6939,-0.6787,-0.6634,-0.6481,-0.6339,-0.6261,-0.6257,-0.6261,-0.6335,-0.6331,-0.6257,-0.6183,-0.6027,-0.6179,-0.6176,-0.6034,-0.6186,-0.6335,-1.8916,-2.0371,-2.1475,-2.1191,-1.9497,-1.7321,-1.5277,0.0,0.0,-0.9931,-1.0539,-1.1471,-1.1688,-1.2313,-1.2647,-1.2175,-1.2011,0.0,0.0,0.0,0.0,0.0,0.0,0.0,0.0,0.0,0.0,0.0,0.0,0.0,0.0,0.0,-1.7722,-1.8036,-1.7742,-1.7582,-1.7582,-1.7582,-1.7582,-1.7582,-1.7582,-1.7582,-1.7582,-1.7582,0.0,0.0,0.0,0.0,0.0,-1.7188,-1.6914,-1.6533,-1.6346,-1.6146,-1.5959,-1.5865,-1.5832,-1.5832,-1.5832,-1.5832,-1.5832,-1.5832,-1.5832,-1.5832,-1.5832,-1.5832,-1.5832,-1.5832,-1.5832,-1.5832,-1.5832,-1.5832,-1.5832,-1.5832,-1.5832,-1.5832,-1.5832,-1.4376,-1.2915,-1.2042,-1.0485,-0.9019,-0.8137,-0.8038,-0.8024,-0.7974,-0.7879,-0.7794,-0.775,-0.7617,-0.7529,-0.7529,-0.739,-0.7238,-0.7085,-0.6939,-0.6793,-0.6637,-0.6488,-0.6363,-0.6342,-0.6338,-0.6338,-0.6338,-0.6338,-0.6237,-0.6186,-0.6237,-0.6237,-0.619,-0.6237,-0.6338,0.0,-1.7978,-1.8936,-1.8828,-1.7425,0.0,0.0,0.0,0.0,-0.9802,-1.0364,-1.1182,-1.1455,-1.1756,-1.1905,-1.1847,-1.1538,0.0,0.0,0.0,0.0,0.0,0.0,0.0,0.0,0.0,0.0,0.0,0.0,0.0,0.0,0.0,-1.7722,-1.8036,-1.7742,-1.7582,-1.7582,-1.7582,-1.7582,-1.7582,-1.7582,-1.7582,-1.7582,-1.7582,0.0,0.0,0.0,0.0,0.0,-1.7148,-1.68,-1.6273,-1.6273,-1.6092,-1.5832,-1.5832,-1.5832,-1.5832,-1.5832,-1.5832,-1.5832,-1.5832,-1.5832,-1.5832,-1.5832,-1.5832,-1.5832,-1.5832,-1.5832,-1.5832,-1.5832,-1.5832,-1.5832,-1.5832,-1.5832,-1.5832,-1.5832,-1.4172,-1.2528,-1.2042,-1.019,-0.8627,-0.8038,-0.8038,-0.8038,-0.8038,-0.796,-0.7896,-0.7896,-0.777,-0.7678,-0.7678,-0.7546,-0.7397,-0.7241,-0.7044,-0.6888,-0.6793,-0.6586,-0.6434,-0.6342,-0.6288,-0.6338,-0.6338,-0.6338,-0.6338,-0.6338,-0.6338,-0.6338,-0.6338,-0.6338,-0.6338,0.0,0.0,0.0,0.0,0.0,0.0,0.0,0.0,0.0,0.0,0.0,0.0,-1.0872,-1.0623,-1.0551,-1.1248,-1.0576,0.0,0.0,0.0,0.0,0.0,0.0,0.0,0.0,0.0,0.0,0.0,0.0,0.0,0.0,0.0,0.0,-1.8003,-1.7736,-1.7582,-1.7582,-1.7582,-1.7582,-1.7582,-1.7562,-1.7549,-1.7549,-1.7549,0.0,0.0,0.0,0.0,0.0,-1.7094,-1.6754,-1.6239,-1.6239,-1.6072,-1.5832,-1.5832,-1.5832,-1.5832,-1.5832,-1.5832,-1.5832,-1.5832,-1.5832,-1.5832,-1.5832,-1.5832,-1.5832,-1.5832,-1.5832,-1.5832,-1.5832,-1.5832,-1.5832,-1.5832,-1.5832,-1.5832,-1.5832,-1.4752,-1.3392,-1.2139,-1.0779,-0.9509,-0.8237,-0.8038,-0.8038,-0.8038,-0.8038,-0.8038,-0.8038,-0.7916,-0.7828,-0.7828,-0.7699,-0.7553,-0.74,-0.7126,-0.6953,-0.6929,-0.6651,-0.6481,-0.6471,-0.6335,-0.6338,-0.6338,-0.6338,-0.6338,-0.6338,-0.6338,-0.6338,-0.6338,-0.6338,-0.6338,-1.3369,0.0,-1.3965,-1.4062,-1.327,0.0,0.0,0.0,0.0,0.0,0.0,0.0,0.0,0.0,0.0,0.0,0.0,0.0,0.0,0.0,0.0,0.0,0.0,0.0,0.0,0.0,0.0,0.0,0.0,0.0,0.0,0.0,0.0,-1.7689,-1.7622,-1.7582,-1.7582,-1.7582,-1.7582,-1.7582,-1.7361,-1.7248,-1.7248,-1.7248,0.0,0.0,0.0,0.0,-1.6794,-1.6573,-1.6266,-1.5932,-1.5932,-1.5892,-1.5832,-1.5832,-1.5832,-1.5832,-1.5832,-1.5832,-1.5832,-1.5832,-1.5832,-1.5832,-1.5832,-1.5832,-1.5832,-1.5832,-1.5832,-1.5832,-1.5832,-1.5832,-1.5832,-1.5832,-1.5832,-1.5832,-1.5832,-1.398,-1.2237,-1.1945,-0.9998,-0.8333,-0.8038,-0.8038,-0.8038,-0.8038,-0.8038,-0.8038,-0.8038,-0.8007,-0.7984,-0.7984,-0.7851,-0.7702,-0.7556,-0.7373,-0.717,-0.6943,-0.6753,-0.6597,-0.6478,-0.6335,-0.6338,-0.6338,-0.6338,-0.6338,-0.6338,-0.6338,-0.6338,-0.6338,-0.6338,-0.6338,-1.1999,-1.2544,-1.3066,-1.2548,-1.2485,-1.2259,0.0,0.0,0.0,0.0,0.0,0.0,0.0,0.0,0.0,0.0,0.0,0.0,0.0,0.0,0.0,0.0,0.0,0.0,0.0,0.0,0.0,0.0,0.0,0.0,0.0,0.0,0.0,0.0,-1.7582,-1.7582,-1.7582,-1.7582,-1.7515,-1.7382,-1.7228,-1.7081,-1.6947,-1.6947,0.0,0.0,0.0,0.0,-1.65,-1.6339,-1.6099,-1.5832,-1.5832,-1.5832,-1.5832,-1.5832,-1.5832,-1.5832,-1.5832,-1.5832,-1.5832,-1.5832,-1.5832,-1.5832,-1.5832,-1.5832,-1.5832,-1.5832,-1.5832,-1.5832,-1.5832,-1.5832,-1.5865,-1.5999,-1.6032,-1.6032,-1.6032,-1.3969,-1.2071,-1.1965,-0.9801,-0.8038,-0.8038,-0.8038,-0.8038,-0.8038,-0.8038,-0.8038,-0.8038,-0.8038,-0.8038,-0.8038,-0.7967,-0.7855,-0.7709,-0.756,-0.7346,-0.7044,-0.682,-0.6664,-0.658,-0.6434,-0.6359,-0.6359,-0.6295,-0.6338,-0.6338,-0.6338,-0.6338,-0.6338,-0.6338,-0.6338,-1.0965,-1.2057,-1.3082,-1.195,-1.2393,-1.2698,-1.1057,0.0,0.0,0.0,0.0,0.0,0.0,0.0,0.0,0.0,0.0,0.0,0.0,0.0,0.0,0.0,0.0,0.0,0.0,0.0,0.0,0.0,0.0,0.0,0.0,0.0,0.0,-1.7582,-1.7582,-1.7562,-1.7515,-1.7515,-1.7388,-1.7148,-1.7163,-1.6887,-1.664,-1.664,-1.664,0.0,0.0,0.0,-1.6273,-1.6226,-1.6059,-1.5832,-1.5832,-1.5832,-1.5832,-1.5832,-1.5832,-1.5832,-1.5832,-1.5832,-1.5832,-1.5832,-1.5832,-1.5832,-1.5832,-1.5832,-1.5832,-1.5832,-1.5832,-1.5832,-1.5832,-1.5832,-1.5905,-1.6206,-1.6273,-1.6273,-1.6273,-1.4272,-1.2312,-1.1991,-0.9801,-0.8038,-0.8038,-0.8038,-0.8038,-0.8038,-0.8038,-0.8038,-0.8038,-0.8038,-0.8038,-0.8038,-0.8038,-0.7977,-0.7824,-0.7702,-0.7502,-0.7193,-0.6898,-0.6725,-0.6702,-0.6552,-0.6471,-0.6471,-0.6332,-0.6338,-0.6338,-0.6338,-0.6349,-0.6291,-0.6291,-0.6305,-1.0813,-1.1656,-1.2293,-1.1216,-1.1301,-1.1328,-1.0192,0.0,0.0,0.0,0.0,0.0,0.0,0.0,0.0,0.0,0.0,0.0,0.0,0.0,0.0,0.0,0.0,0.0,0.0,0.0,0.0,0.0,0.0,0.0,0.0,0.0,0.0,-1.7582,-1.7582,-1.7462,-1.7215,-1.7215,-1.7194,-1.7141,-1.6647,-1.638,-1.6339,-1.6339,-1.6339,0.0,0.0,-1.6313,-1.6253,-1.6005,-1.5872,-1.5832,-1.5832,-1.5832,-1.5832,-1.5832,-1.5832,-1.5832,-1.5832,-1.5832,-1.5832,-1.5832,-1.5832,-1.5832,-1.5832,-1.5832,-1.5832,-1.5832,-1.5832,-1.5832,-1.5832,-1.5832,-1.5905,-1.6206,-1.6273,-1.6273,-1.6273,-1.4272,-1.2312,-1.1991,-0.9801,-0.8038,-0.8038,-0.8038,-0.8038,-0.8038,-0.8038,-0.8038,-0.8038,-0.8038,-0.8038,-0.8038,-0.8038,-0.7977,-0.7824,-0.779,-0.7651,-0.7356,-0.7058,-0.6834,-0.6705,-0.6552,-0.6471,-0.6471,-0.6332,-0.6338,-0.6338,-0.6338,-0.6322,-0.6441,-0.6441,-0.6508,-0.9814,-1.0176,-1.0546,-1.0034,-1.1112,-1.1993,-1.0604,0.0,0.0,0.0,0.0,0.0,0.0,0.0,0.0,0.0,0.0,0.0,0.0,0.0,0.0,0.0,0.0,0.0,0.0,0.0,0.0,0.0,0.0,0.0,0.0,0.0,0.0,0.0,-1.7428,-1.7281,-1.7148,-1.6834,-1.6673,-1.6673,-1.569,-1.5486,-1.6032,-1.5338,-1.5338,-1.6032,0.0,-1.6032,-1.6019,-1.5885,-1.5832,-1.5832,-1.5832,-1.5832,-1.5832,-1.5832,-1.5832,-1.5832,-1.5832,-1.5832,-1.5832,-1.5832,-1.5832,-1.5832,-1.5832,-1.5832,-1.5832,-1.5832,-1.5832,-1.5832,-1.5832,-1.5832,-1.5945,-1.64,-1.6506,-1.6506,-1.6506,-1.4477,-1.2455,-1.2011,-0.9801,-0.8038,-0.8038,-0.8038,-0.8038,-0.8038,-0.8038,-0.8038,-0.8038,-0.8038,-0.8038,-0.8038,-0.8038,-0.8011,-0.794,-0.7858,-0.7648,-0.7268,-0.7048,-0.6898,-0.6827,-0.6678,-0.6597,-0.6597,-0.6451,-0.6335,-0.6338,-0.6339,-0.641,-0.6474,-0.6556,-0.6634,-0.8962,-0.9065,-0.9312,-0.9117,0.0,-1.1997,-1.1011,0.0,0.0,0.0,0.0,0.0,0.0,0.0,0.0,0.0,0.0,0.0,0.0,0.0,0.0,0.0,0.0,0.0,0.0,0.0,0.0,0.0,0.0,0.0,0.0,0.0,0.0,0.0,-1.7161,-1.7014,-1.6947,-1.65,-1.6273,-1.6273,-1.5193,-1.5049,-1.5737,-1.4758,-1.4854,-1.5832,-1.5832,-1.5832,-1.5832,-1.5832,-1.5832,-1.5832,-1.5832,-1.5832,-1.5832,-1.5832,-1.5832,-1.5832,-1.5832,-1.5832,-1.5832,-1.5832,-1.5832,-1.5832,-1.5832,-1.5832,-1.5832,-1.5832,-1.5832,-1.5832,-1.5832,-1.5586,-1.5667,-1.6481,-1.6192,-1.5878,-1.6192,-1.4095,-1.2112,-1.1531,-0.9608,-0.8038,-0.8038,-0.8038,-0.8038,-0.8038,-0.8038,-0.8038,-0.8038,-0.8038,-0.8038,-0.8038,-0.8038,-0.8038,-0.8038,-0.7899,-0.7665,-0.7319,-0.7129,-0.7034,-0.7034,-0.6854,-0.6753,-0.6753,-0.6603,-0.6471,-0.6366,-0.6471,-0.6546,-0.658,-0.6698,-0.6773,-0.8804,-0.9218,-0.9526,-0.8978,-0.9159,0.0,-1.0725,-1.085,0.0,-1.1995,0.0,0.0,0.0,0.0,0.0,0.0,0.0,0.0,0.0,0.0,0.0,0.0,0.0,0.0,0.0,0.0,0.0,0.0,0.0,0.0,0.0,0.0,0.0,0.0,0.0,-1.6607,-1.6339,-1.6293,-1.6273,-1.6273,-1.5896,-1.575,-1.5832,-1.573,-1.573,-1.5832,-1.5832,-1.5832,-1.5832,-1.5832,-1.5832,-1.5832,-1.5832,-1.5832,-1.5832,-1.5832,-1.5832,-1.5832,-1.5832,-1.5832,-1.5832,-1.5832,-1.5832,-1.5832,-1.5832,-1.5832,-1.5832,-1.5832,-1.5832,-1.5832,-1.5832,-1.5042,-1.461,-1.6321,-1.4749,-1.3314,-1.4642,-1.2638,-1.0536,-1.0233,-0.9019,-0.8038,-0.8038,-0.8038,-0.8038,-0.8038,-0.8038,-0.8038,-0.8038,-0.8038,-0.8038,-0.8038,-0.8038,-0.8038,-0.8038,-0.7899,-0.7797,-0.7767,-0.7495,-0.7339,-0.7339,-0.7065,-0.6912,-0.6912,-0.6763,-0.6678,-0.6668,-0.6678,-0.6756,-0.6895,-0.6909,-0.6983,-0.8804,-0.9232,-0.9586,-0.9178,-0.9432,0.0,0.0,-1.1463,-1.1877,0.0,0.0,0.0,0.0,0.0,0.0,0.0,0.0,0.0,0.0,0.0,0.0,0.0,0.0,0.0,0.0,0.0,0.0,0.0,0.0,0.0,0.0,0.0,0.0,0.0,0.0,-1.6386,-1.6273,-1.6086,-1.5999,-1.5992,-1.5096,-1.5045,-1.5737,-1.4949,-1.5045,-1.5832,-1.5832,-1.5832,-1.5832,-1.5832,-1.5832,-1.5832,-1.5832,-1.5832,-1.5832,-1.5832,-1.5832,-1.5832,-1.5832,-1.5832,-1.5832,-1.5832,-1.5832,-1.5832,-1.5832,-1.5832,-1.5832,-1.5832,-1.5832,-1.5872,-1.6059,-1.5784,-1.5436,-1.5507,-1.4743,-1.3886,-1.3439,-1.1831,-1.0318,-1.0036,-0.892,-0.8038,-0.8038,-0.8038,-0.8038,-0.8038,-0.8038,-0.8038,-0.8038,-0.8038,-0.8038,-0.8038,-0.8038,-0.8038,-0.8038,-0.7987,-0.7953,-0.7953,-0.7678,-0.7512,-0.7512,-0.7407,-0.7302,-0.7207,-0.7146,-0.7027,-0.6844,-0.6932,-0.6959,-0.6929,-0.7017,-0.7088,-0.8804,-0.9098,-0.9323,0.0,0.0,0.0,-1.1153,-1.1939,-1.2726,0.0,0.0,0.0,0.0,0.0,0.0,0.0,0.0,0.0,0.0,0.0,0.0,0.0,0.0,0.0,0.0,0.0,0.0,0.0,0.0,0.0,0.0,0.0,0.0,0.0,0.0,0.0,-1.6132,-1.5932,-1.5832,-1.5825,-1.4949,-1.4949,-1.5737,-1.4854,-1.4949,-1.5737,-1.5337,-1.5439,-1.5737,-1.5337,-1.5439,-1.5832,-1.5832,-1.5832,-1.5832,-1.5832,-1.5832,-1.5832,-1.5832,-1.5832,-1.5832,-1.5832,-1.5832,-1.5832,-1.5832,-1.5832,-1.5845,-1.5945,-1.5905,-1.5919,-1.6306,-1.5731,-1.493,-1.4791,-1.3667,-1.2577,-1.1991,-1.0668,-0.9554,-0.9434,-0.8627,-0.8038,-0.8038,-0.8038,-0.8038,-0.8038,-0.8038,-0.8038,-0.8038,-0.8038,-0.8038,-0.8038,-0.8038,-0.8038,-0.8038,-0.8038,-0.8038,-0.8038,-0.7848,-0.7716,-0.7668,-0.7624,-0.755,-0.7444,-0.7397,-0.7295,-0.7139,-0.7139,-0.7115,-0.7071,-0.7119,-0.7139,-0.8804,-0.8811,-0.8665,0.0,0.0,0.0,0.0,0.0,0.0,0.0,0.0,0.0,0.0,0.0,0.0,0.0,0.0,0.0,0.0,0.0,0.0,0.0,0.0,0.0,0.0,0.0,0.0,0.0,0.0,0.0,0.0,0.0,0.0,0.0,0.0,0.0,-1.5832,-1.5832,-1.5832,-1.5832,-1.5832,-1.5832,-1.5832,-1.5832,-1.5832,-1.573,-1.4459,-1.4657,-1.5635,-1.4459,-1.4657,-1.5832,-1.5832,-1.5832,-1.5832,-1.5832,-1.5832,-1.5832,-1.5832,-1.5832,-1.5832,-1.5832,-1.5832,-1.5832,-1.5832,-1.5825,-1.5892,-1.6186,-1.6059,-1.5959,-1.6547,-1.4454,-1.262,-1.4072,-1.1318,-0.8713,-1.0294,-0.9248,-0.8038,-0.8038,-0.8038,-0.8038,-0.8038,-0.8038,-0.8038,-0.8038,-0.8038,-0.8038,-0.8038,-0.8038,-0.8038,-0.8038,-0.8038,-0.8038,-0.8038,-0.8038,-0.8038,-0.8038,-0.8038,-0.797,-0.7821,-0.7678,-0.7604,-0.7604,-0.7455,-0.7451,-0.76,-0.7295,-0.7221,-0.7366,-0.7214,-0.7139,-0.8804,-0.9112,0.0,0.0,0.0,0.0,0.0,0.0,0.0,0.0,0.0,0.0,0.0,0.0,0.0,0.0,0.0,0.0,0.0,0.0,0.0,0.0,0.0,0.0,0.0,0.0,0.0,0.0,0.0,0.0,0.0,0.0,0.0,0.0,0.0,0.0,-1.5832,-1.5832,-1.5832,-1.5832,-1.5832,-1.5832,-1.5832,-1.5832,-1.5832,-1.573,-1.4459,-1.407,-1.4459,-1.407,-1.4657,-1.5832,-1.5832,-1.5832,-1.5832,-1.5832,-1.5832,-1.5832,-1.5832,-1.5832,-1.5832,-1.5832,-1.5832,-1.5832,-1.5832,-1.514,-1.4669,-1.5645,-1.521,-1.4496,-1.4655,-1.3367,-1.2195,-1.2825,-1.1318,-0.9552,-0.8981,-0.8396,-0.8038,-0.8038,-0.8038,-0.8038,-0.8038,-0.8038,-0.8038,-0.8038,-0.8038,-0.8038,-0.8038,-0.8038,-0.8038,-0.8038,-0.8038,-0.8038,-0.8038,-0.8038,-0.8038,-0.8038,-0.8038,-0.8018,-0.7974,-0.7933,-0.7909,-0.7909,-0.7865,-0.7811,-0.7746,-0.7556,-0.7431,-0.7366,-0.7214,-0.7139,-0.8374,0.0,0.0,0.0,0.0,0.0,0.0,0.0,0.0,0.0,0.0,0.0,0.0,0.0,0.0,0.0,0.0,0.0,0.0,0.0,0.0,0.0,0.0,0.0,0.0,0.0,0.0,0.0,0.0,0.0,0.0,0.0,0.0,0.0,0.0,0.0,-1.5658,-1.5772,-1.5832,-1.5832,-1.5832,-1.5832,-1.5832,-1.5832,-1.5832,-1.573,-1.4949,-1.4076,-1.3204,-1.4268,-1.514,-1.5832,-1.5832,-1.5832,-1.5832,-1.5832,-1.5832,-1.5832,-1.5832,-1.5439,-1.5045,-1.5045,-1.4663,-1.4274,-1.4274,-1.3692,-1.3318,-1.4207,-1.4154,-1.3806,-1.3419,-1.2597,-1.1805,-1.1625,-1.0414,-0.916,-0.8334,-0.8082,-0.8038,-0.8038,-0.8038,-0.8038,-0.8038,-0.8038,-0.8038,-0.8038,-0.8038,-0.8038,-0.8038,-0.8038,-0.8038,-0.8038,-0.8038,-0.8038,-0.8038,-0.8038,-0.8038,-0.8038,-0.8038,-0.8038,-0.8038,-0.8038,-0.8038,-0.8038,-0.798,-0.7933,-0.7899,-0.7699,-0.758,-0.7539,-0.7329,-0.7231,0.0,0.0,0.0,0.0,0.0,0.0,0.0,0.0,0.0,0.0,0.0,0.0,0.0,0.0,0.0,0.0,0.0,0.0,0.0,0.0,0.0,0.0,0.0,0.0,0.0,0.0,0.0,0.0,0.0,0.0,0.0,0.0,0.0,0.0,0.0,0.0,-1.5398,-1.5658,-1.5805,0.0,-1.5832,-1.5832,-1.5832,-1.5832,-1.5717,-1.5596,-1.5622,-1.4256,-1.2206,-1.4651,-1.573,-1.5832,-1.5832,-1.5832,-1.5825,-1.5635,-1.5635,-1.5635,-1.554,-1.4657,-1.368,-1.368,-1.2909,-1.1945,-1.1945,-1.1848,-1.1795,-1.2193,-1.2883,-1.3346,-1.2391,-1.1998,-1.1409,-1.0297,-0.9026,-0.8079,-0.8218,-0.814,-0.8038,-0.8038,-0.8038,-0.8038,-0.8038,-0.8038,-0.8038,-0.8038,-0.8038,-0.8038,-0.8038,-0.8038,-0.8038,-0.8038,-0.8038,-0.8038,-0.8038,-0.8038,-0.8038,-0.8038,-0.8038,-0.8038,-0.8038,-0.8038,-0.8038,-0.8038,-0.7902,-0.7899,-0.8038,-0.7756,-0.7685,-0.7804,-0.7522,-0.7387,0.0,-0.7381,0.0,0.0,0.0,0.0,0.0,0.0,0.0,0.0,0.0,0.0,0.0,0.0,0.0,0.0,0.0,0.0,0.0,0.0,0.0,0.0,0.0,0.0,0.0,0.0,0.0,0.0,0.0,0.0,0.0,0.0,0.0,0.0,0.0,-1.5231,-1.5398,-1.5458,-1.5605,0.0,-1.5832,-1.5832,-1.5832,-1.5832,-1.5119,-1.3966,-1.4177,-1.3856,-1.3114,-1.3987,-1.4854,-1.5832,-1.5832,-1.5832,-1.5635,-1.4657,-1.4268,-1.4172,-1.3108,-1.2528,-1.2334,-1.2334,-1.2139,-1.1945,-1.1945,-1.1165,-1.0592,-1.1712,-1.1394,-1.0783,-1.0538,-1.0417,-1.0105,-0.8766,-0.8258,-0.8048,-0.8082,-0.8062,-0.8038,-0.8038,-0.8038,-0.8038,-0.8038,-0.8038,-0.8038,-0.8038,-0.8038,-0.8038,-0.8038,-0.8038,-0.8038,-0.8038,-0.8038,-0.8038,-0.8038,-0.8038,-0.8038,-0.8038,-0.8038,-0.8038,-0.8038,-0.8038,-0.8038,-0.8038,-0.8007,-0.8007,-0.8038,-0.7855,-0.778,-0.7807,-0.7631,-0.7485,0.0,0.0,0.0,0.0,0.0,0.0,0.0,0.0,0.0,0.0,0.0,0.0,0.0,0.0,0.0,0.0,0.0,0.0,0.0,0.0,0.0,0.0,0.0,0.0,0.0,0.0,0.0,0.0,0.0,0.0,0.0,0.0,0.0,0.0,-1.489,-1.497,-1.4977,-1.5257,-1.5471,-1.5625,-1.5765,-1.5758,-1.5625,-1.5765,-1.4892,-1.3496,-1.4303,-1.4117,-1.3234,-1.4253,-1.5042,-1.5631,-1.5772,-1.5832,-1.5635,-1.4364,-1.3878,-1.3686,-1.2334,-1.1463,-1.0974,-1.0974,-1.0583,-0.9998,-0.9998,-0.9608,-0.9217,-0.9801,-0.9998,-0.9805,-0.9217,-0.9509,-0.9706,-0.8333,-0.8038,-0.8038,-0.8038,-0.8038,-0.8038,-0.8038,-0.8038,-0.8038,-0.8038,-0.8038,-0.8038,-0.8038,-0.8038,-0.8038,-0.8038,-0.8038,-0.8038,-0.8038,-0.8038,-0.8038,-0.8038,-0.8038,-0.8038,-0.8038,-0.8038,-0.8038,-0.8038,-0.8038,-0.8038,-0.8038,-0.8038,-0.8038,-0.8038,-0.796,-0.7919,-0.7916,-0.777,-0.7621,0.0,0.0,0.0,0.0,0.0,0.0,0.0,0.0,0.0,0.0,0.0,0.0,0.0,0.0,0.0,0.0,0.0,0.0,0.0,0.0,0.0,0.0,0.0,0.0,0.0,0.0,0.0,0.0,0.0,0.0,0.0,0.0,-1.4623,-1.4376,-1.4656,-1.4716,-1.4522,-1.5003,-1.5271,-1.5324,-1.5371,-1.5171,-1.4759,-1.4991,-1.4559,-1.3638,-1.4635,-1.4311,-1.3339,-1.4734,-1.5317,-1.5351,-1.535,-1.5556,-1.5563,-1.4058,-1.3584,-1.3392,-1.2042,-1.0681,-0.9608,-0.9608,-0.892,-0.8038,-0.8038,-0.8038,-0.8038,-0.8038,-0.8825,-0.941,-0.8333,-0.8821,-0.9414,-0.8233,-0.8038,-0.8038,-0.8038,-0.8038,-0.8038,-0.8038,-0.8038,-0.8038,-0.8038,-0.8038,-0.8038,-0.8038,-0.8038,-0.8038,-0.8038,-0.8038,-0.8038,-0.8038,-0.8038,-0.8038,-0.8038,-0.8038,-0.8038,-0.8038,-0.8038,-0.8038,-0.8038,-0.8038,-0.8038,-0.8038,-0.8038,-0.8038,-0.8038,-0.8038,-0.8024,-0.7997,-0.7896,-0.7746,0.0,0.0,0.0,0.0,0.0,0.0,0.0,0.0,0.0,0.0,0.0,0.0,0.0,0.0,0.0,0.0,0.0,0.0,0.0,0.0,0.0,0.0,0.0,0.0,0.0,0.0,0.0,0.0,0.0,0.0,0.0,-1.3681,-1.3801,-1.3761,-1.4048,-1.4302,-1.4516,-1.4596,-1.477,-1.5023,-1.4041,-1.3014,-1.2054,-1.2086,-1.2887,-1.4291,-1.3718,-1.3758,-1.4333,-1.4807,-1.5023,-1.4953,-1.4106,-1.4403,-1.5199,-1.2934,-1.2139,-1.1945,-1.0681,-0.941,-0.8233,-0.8233,-0.8137,-0.8038,-0.8038,-0.8038,-0.8038,-0.8038,-0.8137,-0.8233,-0.8038,-0.8137,-0.8233,-0.8038,-0.8038,-0.8038,-0.8038,-0.8038,-0.8038,-0.8038,-0.8038,-0.8038,-0.8038,-0.8038,-0.8038,-0.8038,-0.8038,-0.8038,-0.8038,-0.8038,-0.8038,-0.8038,-0.8038,-0.8038,-0.8038,-0.8038,-0.8038,-0.8038,-0.8038,-0.8038,-0.8038,-0.8038,-0.8038,-0.8038,-0.8038,-0.8038,-0.8038,-0.8038,-0.797,-0.7845,-0.7957,-0.779,0.0,0.0,0.0,0.0,0.0,0.0,0.0,0.0,0.0,0.0,0.0,0.0,0.0,0.0,0.0,0.0,0.0,0.0,0.0,0.0,0.0,0.0,0.0,0.0,0.0,0.0,0.0,0.0,0.0,0.0,-1.3213,-1.3333,-1.3474,-1.3641,-1.3614,-1.3814,-1.4275,-1.4282,-1.4148,-1.3948,-1.2751,-1.1855,-1.1266,-0.9826,-1.041,-1.2557,-1.2221,-1.2126,-1.2354,-1.2703,-1.2896,-1.2865,-1.2549,-1.3297,-1.43,-1.1716,-1.1263,-1.1653,-0.9608,-0.8531,-0.8038,-0.8038,-0.8038,-0.8038,-0.8038,-0.8038,-0.8038,-0.8038,-0.8038,-0.8038,-0.8038,-0.8038,-0.8038,-0.8038,-0.8038,-0.8038,-0.8038,-0.8106,-0.817,-0.817,-0.8099,-0.8038,-0.8038,-0.8038,-0.8038,-0.8038,-0.8038,-0.8038,-0.8038,-0.8038,-0.8038,-0.8038,-0.8038,-0.8038,-0.8038,-0.8038,-0.8038,-0.8038,-0.8038,-0.8038,-0.8038,-0.8038,-0.8038,-0.8038,-0.8038,-0.8038,-0.8038,-0.8038,-0.796,-0.7814,-0.7879,-0.7719,0.0,0.0,0.0,0.0,0.0,0.0,0.0,0.0,0.0,0.0,0.0,0.0,0.0,0.0,0.0,0.0,0.0,0.0,0.0,0.0,0.0,0.0,0.0,0.0,0.0,0.0,0.0,0.0,0.0,0.0,-1.2866,-1.2939,-1.3113,-1.3407,-1.328,-1.342,-1.3861,-1.3935,-1.3493,-1.2466,-1.1536,-1.0751,-1.0061,-0.82,-0.829,-1.0061,-1.0416,-1.0592,-1.0626,-1.0942,-1.1045,-1.1227,-1.15,-1.2273,-1.3109,-1.1526,-1.1361,-1.1653,-0.9702,-0.8825,-0.8432,-0.8137,-0.8038,-0.8038,-0.8038,-0.8038,-0.8038,-0.8038,-0.8038,-0.8038,-0.8038,-0.8038,-0.8038,-0.8038,-0.8038,-0.8038,-0.8038,-0.813,-0.8211,-0.8211,-0.8116,-0.8038,-0.8038,-0.8038,-0.8038,-0.8038,-0.8038,-0.8038,-0.8038,-0.8038,-0.8038,-0.8038,-0.8038,-0.8038,-0.8038,-0.8038,-0.8041,-0.8048,-0.8041,-0.8041,-0.8048,-0.8041,-0.8038,-0.8038,-0.8038,-0.8038,-0.8038,-0.8038,-0.7943,-0.7756,-0.7794,-0.7631,0.0,0.0,0.0,0.0,0.0,0.0,0.0,0.0,0.0,0.0,0.0,0.0,0.0,0.0,0.0,0.0,0.0,0.0,0.0,0.0,0.0,0.0,0.0,0.0,0.0,0.0,0.0,0.0,0.0,0.0,-1.1924,-1.2204,-1.2485,-1.2856,-1.3066,-1.3227,-1.3253,-1.3527,-1.2502,-1.0338,-1.0545,-0.951,-0.7326,-0.7149,-0.7153,-0.7415,-0.8552,-0.9589,-1.0626,-1.077,-1.0776,-1.0831,-1.1336,-1.1601,-1.1826,-1.3205,-1.2909,-1.1848,-1.175,-1.0877,-0.9706,-0.8432,-0.8038,-0.8038,-0.8038,-0.8038,-0.8038,-0.8038,-0.8038,-0.8038,-0.8038,-0.8038,-0.8038,-0.8038,-0.8038,-0.8038,-0.8038,-0.8045,-0.8052,-0.8052,-0.8045,-0.8038,-0.8038,-0.8038,-0.8038,-0.8038,-0.8038,-0.8038,-0.8038,-0.8038,-0.8038,-0.8038,-0.8038,-0.8038,-0.8038,-0.8038,-0.8048,-0.7969,-0.7952,-0.8048,-0.7969,-0.7952,-0.8038,-0.8038,-0.8038,-0.8038,-0.8038,-0.8038,-0.7892,-0.7614,-0.7746,-0.7573,0.0,0.0,0.0,0.0,0.0,0.0,0.0,0.0,0.0,0.0,0.0,0.0,0.0,0.0,0.0,0.0,0.0,0.0,0.0,0.0,0.0,0.0,0.0,0.0,0.0,0.0,0.0,0.0,0.0,0.0,-1.1577,-1.1683,-1.1877,-1.2244,-1.2291,-1.2224,-1.1883,-1.1588,-1.064,-0.9279,-0.9351,-0.8595,-0.7139,-0.7139,-0.7139,-0.7139,-0.7577,-0.8013,-0.8372,-0.8551,-0.8695,-0.8729,-0.9052,-1.0167,-1.1732,-1.1521,-1.2134,-1.3102,-1.2237,-1.1072,-0.9899,-0.941,-0.8726,-0.8038,-0.8038,-0.8038,-0.8038,-0.8038,-0.8038,-0.8038,-0.8038,-0.8038,-0.8038,-0.8038,-0.8038,-0.8038,-0.8038,-0.8038,-0.8069,-0.817,-0.8106,-0.8038,-0.8038,-0.8038,-0.8038,-0.8038,-0.8038,-0.8038,-0.8038,-0.8038,-0.8038,-0.8038,-0.8038,-0.8038,-0.8038,-0.8038,-0.8041,-0.7952,-0.8045,-0.8041,-0.7952,-0.8045,-0.8038,-0.8038,-0.8038,-0.8038,-0.8038,-0.8038,-0.7889,-0.76,-0.7651,-0.7482,0.0,0.0,0.0,0.0,0.0,0.0,0.0,0.0,0.0,0.0,0.0,0.0,0.0,0.0,0.0,0.0,0.0,0.0,0.0,0.0,0.0,0.0,0.0,0.0,0.0,0.0,0.0,0.0,0.0,0.0,-1.1276,-1.1283,-1.1416,-1.171,-1.1817,-1.1761,-1.1458,-1.0802,-0.9999,-0.8995,-0.873,-0.8017,-0.7068,-0.7068,-0.7095,-0.7139,-0.7139,-0.7139,-0.7153,-0.7309,-0.7461,-0.7614,-0.8229,-0.9635,-1.1263,-1.1263,-1.242,-1.3776,-1.2915,-1.175,-1.0583,-1.0096,-0.9118,-0.8038,-0.8038,-0.8038,-0.8038,-0.8038,-0.8038,-0.8038,-0.8038,-0.8038,-0.8038,-0.8038,-0.8038,-0.8038,-0.8038,-0.8038,-0.8069,-0.8174,-0.8109,-0.8038,-0.8038,-0.8038,-0.8038,-0.8038,-0.8038,-0.8038,-0.8038,-0.8038,-0.8038,-0.8038,-0.8038,-0.8038,-0.8038,-0.8038,-0.8041,-0.8048,-0.8041,-0.8041,-0.7952,-0.8041,-0.8038,-0.8038,-0.8038,-0.8038,-0.8038,-0.7987,-0.7838,-0.7597,-0.7546,-0.7387,0.0,0.0,0.0,0.0,0.0,0.0,0.0,0.0,0.0,0.0,0.0,0.0,0.0,0.0,0.0,0.0,0.0,0.0,0.0,0.0,0.0,0.0,0.0,0.0,0.0,0.0,0.0,0.0,0.0,-1.0675,-1.0962,-1.0982,-1.1109,-1.139,-1.169,-1.1844,-1.1857,-1.1371,-1.0545,-0.9448,-0.8702,-0.784,-0.6922,-0.6926,-0.7004,-0.7136,-0.7139,-0.7139,-0.7153,-0.7309,-0.7458,-0.7698,-0.9172,-0.9829,-1.0284,-1.2904,-1.3878,-1.3878,-1.3878,-1.3006,-1.1658,-1.0386,-0.9118,-0.8038,-0.8038,-0.8038,-0.8038,-0.8038,-0.8038,-0.8038,-0.8038,-0.8038,-0.8038,-0.8038,-0.8038,-0.8038,-0.8038,-0.8038,-0.8038,-0.8038,-0.8038,-0.8038,-0.8038,-0.8038,-0.8038,-0.8038,-0.8038,-0.8038,-0.8038,-0.8038,-0.8038,-0.8038,-0.8038,-0.8038,-0.8038,-0.8038,-0.8048,-0.7972,-0.7952,-0.8048,-0.7972,-0.7952,-0.8038,-0.8038,-0.8038,-0.8038,-0.8038,-0.7889,-0.7743,-0.7597,-0.7438,-0.7285,-0.7563,0.0,0.0,0.0,0.0,0.0,0.0,0.0,0.0,0.0,0.0,0.0,0.0,0.0,0.0,0.0,0.0,0.0,0.0,0.0,0.0,0.0,0.0,0.0,0.0,0.0,0.0,0.0,-1.0241,-1.0367,-1.0661,-1.0681,-1.0715,-1.0795,-1.0397,-1.0287,-1.0481,-0.979,-0.8985,-0.8154,-0.8111,-0.7659,-0.6766,-0.6878,-0.6949,-0.6993,-0.7095,-0.7139,-0.7153,-0.7309,-0.7397,-0.755,-0.809,-0.8983,-1.0097,-1.1788,-1.3102,-1.3878,-1.3878,-1.3006,-1.1658,-1.0386,-0.9118,-0.8038,-0.8038,-0.8038,-0.8038,-0.8038,-0.8038,-0.8038,-0.8038,-0.8038,-0.8038,-0.8038,-0.8038,-0.8038,-0.8038,-0.8038,-0.8038,-0.8038,-0.8038,-0.8038,-0.8038,-0.8038,-0.8038,-0.8038,-0.8038,-0.8038,-0.8038,-0.8038,-0.8038,-0.8038,-0.8038,-0.8038,-0.8038,-0.8038,-0.8041,-0.8048,-0.8041,-0.8041,-0.8048,-0.8041,-0.8038,-0.8038,-0.8038,-0.8038,-0.8038,-0.7997,-0.7845,-0.7594,-0.7329,-0.718,0.0,0.0,0.0,0.0,0.0,0.0,0.0,0.0,0.0,0.0,0.0,0.0,0.0,0.0,0.0,0.0,0.0,0.0,0.0,0.0,0.0,0.0,0.0,0.0,0.0,0.0,0.0,0.0,-0.9933,-1.0013,-1.018,-1.0194,-1.0247,-1.0374,-1.0129,-0.994,-0.9793,-0.9053,-0.834,-0.758,-0.731,-0.6979,-0.6705,-0.6793,-0.6902,-0.7021,-0.7105,-0.7139,-0.7146,-0.7238,-0.7312,-0.739,-0.756,-0.8551,-0.9918,-1.0702,-1.1859,-1.3102,-1.3102,-1.2237,-1.0974,-1.0194,-0.9118,-0.8038,-0.8038,-0.8038,-0.8038,-0.8038,-0.8038,-0.8038,-0.8038,-0.8038,-0.8038,-0.8038,-0.8038,-0.8038,-0.8038,-0.8038,-0.8038,-0.8038,-0.8038,-0.8038,-0.8038,-0.8038,-0.8038,-0.8038,-0.8038,-0.8038,-0.8038,-0.8038,-0.8038,-0.8038,-0.8038,-0.8038,-0.8038,-0.8038,-0.8038,-0.8038,-0.8038,-0.8038,-0.8038,-0.8038,-0.8038,-0.8038,-0.8038,-0.8007,-0.7943,-0.7943,-0.7824,-0.7594,-0.735,-0.7272,0.0,0.0,0.0,0.0,0.0,0.0,-0.7462,-0.7221,-0.7141,0.0,0.0,0.0,0.0,0.0,0.0,0.0,0.0,0.0,0.0,0.0,0.0,0.0,0.0,0.0,0.0,0.0,-0.9633,-0.9633,-0.9666,-0.9653,-0.9586,-0.9646,-0.9786,-1.0013,-1.0272,-1.011,-0.9628,-0.8949,-0.8193,-0.7432,-0.66,-0.6314,-0.6627,-0.6661,-0.6817,-0.7065,-0.7085,-0.7102,-0.7115,-0.7115,-0.7207,-0.735,-0.7383,-0.8296,-0.9598,-0.9731,-1.0624,-1.1658,-1.1658,-1.0974,-0.9998,-0.9801,-0.892,-0.8038,-0.8038,-0.8038,-0.8038,-0.8038,-0.8038,-0.8038,-0.8038,-0.8038,-0.8038,-0.8038,-0.8038,-0.8038,-0.8038,-0.8038,-0.8038,-0.8038,-0.8038,-0.8038,-0.8038,-0.8038,-0.8038,-0.8038,-0.8038,-0.8038,-0.8038,-0.8038,-0.8038,-0.8038,-0.8038,-0.8038,-0.8038,-0.8038,-0.8038,-0.8038,-0.8038,-0.8038,-0.8038,-0.8038,-0.8038,-0.8038,-0.8038,-0.7974,-0.7834,-0.7804,-0.7723,-0.7597,-0.7461,-0.7468,0.0,0.0,0.0,0.0,0.0,0.0,-0.851,-0.8457,-0.8377,0.0,0.0,0.0,0.0,0.0,0.0,0.0,0.0,0.0,0.0,0.0,0.0,0.0,0.0,0.0,0.0,0.0,-0.9325,-0.9325,-0.9546,-0.9479,-0.9005,-0.9426,-0.9599,-0.9356,-0.9244,-0.9086,-0.8947,-0.8612,-0.7966,-0.7047,-0.7134,-0.6813,-0.6169,-0.6407,-0.6549,-0.661,-0.6732,-0.6858,-0.697,-0.697,-0.7054,-0.721,-0.7458,-0.7778,-0.8233,-0.9449,-1.016,-1.0386,-1.0386,-1.0194,-0.9801,-0.8726,-0.8237,-0.8038,-0.8038,-0.8038,-0.8038,-0.8038,-0.8038,-0.8038,-0.8038,-0.8038,-0.8038,-0.8038,-0.8038,-0.8038,-0.8038,-0.8038,-0.8038,-0.8038,-0.8038,-0.8038,-0.8038,-0.8038,-0.8038,-0.8038,-0.8038,-0.8038,-0.8038,-0.8038,-0.8038,-0.8038,-0.8038,-0.8038,-0.8038,-0.8038,-0.8038,-0.8038,-0.8038,-0.8038,-0.8038,-0.8038,-0.8038,-0.8038,-0.8038,-0.8024,-0.7994,-0.7756,-0.7628,-0.76,-0.757,-0.757,0.0,0.0,0.0,-0.8804,0.0,0.0,0.0,-0.7916,0.0,0.0,0.0,0.0,0.0,0.0,0.0,0.0,0.0,0.0,0.0,0.0,0.0,0.0,0.0,0.0,0.0,0.0,-0.9025,-0.9025,-0.9165,-0.9118,-0.8824,-0.9085,-0.9079,-0.8732,-0.8588,-0.8186,-0.7618,-0.7462,-0.7021,-0.6268,-0.6436,-0.6434,-0.6149,-0.6298,-0.6447,-0.6597,-0.6749,-0.6858,-0.6932,-0.7004,-0.7078,-0.7156,-0.7309,-0.7465,-0.7712,-0.8523,-0.8825,-0.8905,-0.8989,-0.8962,-0.8811,-0.8209,-0.8038,-0.8038,-0.8038,-0.8038,-0.8038,-0.8038,-0.8038,-0.8038,-0.8038,-0.8038,-0.8038,-0.8038,-0.8038,-0.8038,-0.8038,-0.8038,-0.8038,-0.8038,-0.8038,-0.8038,-0.8038,-0.8038,-0.8038,-0.8038,-0.8038,-0.8038,-0.8038,-0.8038,-0.8038,-0.8038,-0.8038,-0.8038,-0.8038,-0.8038,-0.8038,-0.8038,-0.8038,-0.8038,-0.8038,-0.8038,-0.8038,-0.8038,-0.7896,-0.7855,-0.7926,-0.7706,-0.7675,-0.7818,-0.774,-0.7746,0.0,0.0,0.0,0.0,0.0,-0.8557,0.0,0.0,0.0,0.0,0.0,0.0,0.0,0.0,0.0,0.0,0.0,0.0,0.0,0.0,0.0,0.0,0.0,0.0,0.0,0.0,-0.8804,-0.8804,-0.8804,-0.8804,-0.8804,-0.8804,-0.8644,-0.8312,-0.8081,-0.7512,-0.6515,-0.6304,-0.5979,-0.5545,-0.5576,-0.5796,-0.6173,-0.6203,-0.6363,-0.6624,-0.6746,-0.6831,-0.6895,-0.7007,-0.7088,-0.7143,-0.7173,-0.7336,-0.7563,-0.7617,-0.7712,-0.7831,-0.7987,-0.796,-0.7875,-0.7997,-0.8038,-0.8038,-0.8038,-0.8038,-0.8038,-0.8038,-0.8038,-0.8038,-0.8038,-0.8038,-0.8038,-0.8038,-0.8038,-0.8038,-0.8038,-0.8038,-0.8038,-0.8038,-0.8038,-0.8038,-0.8038,-0.8038,-0.8038,-0.8038,-0.8038,-0.8038,-0.8038,-0.8038,-0.8038,-0.8038,-0.8038,-0.8038,-0.8038,-0.8038,-0.8038,-0.8038,-0.8038,-0.8038,-0.8038,-0.8038,-0.8038,-0.8038,-0.7804,-0.7726,-0.7811,-0.7726,-0.7777,-0.7953,-0.7885,-0.7906,0.0,0.0,0.0,0.0,-0.8804,0.0,0.0,0.0,0.0,0.0,0.0,0.0,0.0,0.0,0.0,0.0,0.0,0.0,0.0,0.0,0.0,0.0,0.0,0.0,0.0,0.0,0.0,-0.8804,-0.8804,-0.8804,-0.8804,-0.8804,-0.8765,-0.8745,-0.7644,-0.7024,-0.7036,-0.5868,-0.5281,-0.5456,-0.5525,-0.5684,-0.5857,-0.5996,-0.6149,-0.6312,-0.6329,-0.6485,-0.6725,-0.6746,-0.6905,-0.7153,-0.7292,-0.7366,-0.7431,-0.7692,-0.7797,-0.7831,-0.7987,-0.8028,-0.8018,-0.8035,-0.8038,-0.8038,-0.8038,-0.8038,-0.8038,-0.8038,-0.8038,-0.8038,-0.8038,-0.8038,-0.8038,-0.8038,-0.8038,-0.8038,-0.8038,-0.8038,-0.8038,-0.8038,-0.8038,-0.8038,-0.8038,-0.8038,-0.8038,-0.8038,-0.8038,-0.8038,-0.8038,-0.8038,-0.8038,-0.8038,-0.8038,-0.8038,-0.8038,-0.8038,-0.8038,-0.8038,-0.8038,-0.8038,-0.8038,-0.8038,-0.8038,-0.8038,-0.8007,-0.7929,-0.7811,-0.7929,-0.7872,-0.7655,-0.7899,-0.795,0.0,0.0,0.0,0.0,0.0,0.0,0.0,0.0,-0.8804,0.0,0.0,0.0,0.0,0.0,0.0,0.0,0.0,0.0,0.0,0.0,0.0,0.0,0.0,0.0,0.0,0.0,0.0,0.0,0.0,-0.8804,-0.8804,-0.8804,-0.8586,-0.8156,-0.722,-0.6604,-0.6352,-0.5411,-0.5081,-0.523,-0.5382,-0.5579,-0.5803,-0.5867,-0.603,-0.6268,-0.6346,-0.6454,-0.6573,-0.6664,-0.6824,-0.7024,-0.7088,-0.7221,-0.7397,-0.7611,-0.7689,-0.7723,-0.796,-0.798,-0.7923,-0.8011,-0.8038,-0.8038,-0.8038,-0.8038,-0.8038,-0.8038,-0.8038,-0.8038,-0.8038,-0.8038,-0.8038,-0.8038,-0.8038,-0.8038,-0.8038,-0.8038,-0.8038,-0.8038,-0.8038,-0.8038,-0.8038,-0.8038,-0.8038,-0.8038,-0.8038,-0.8038,-0.8038,-0.8038,-0.8038,-0.8038,-0.8038,-0.8038,-0.8038,-0.8038,-0.8038,-0.8038,-0.8038,-0.8038,-0.8038,-0.8038,-0.8038,-0.8038,-0.795,-0.7875,-0.7811,-0.7875,-0.7801,-0.7607,-0.7902,-0.8004,-0.8804,0.0,0.0,0.0,0.0,0.0,0.0,0.0,0.0,0.0,0.0,0.0,0.0,0.0,0.0,0.0,0.0,0.0,0.0,0.0,0.0,0.0,0.0,0.0,0.0,0.0,0.0,0.0,-0.8804,0.0,-0.8804,-0.8593,-0.8262,-0.7723,-0.6799,-0.6138,-0.5825,-0.5195,-0.4989,-0.5131,-0.5287,-0.5515,-0.58,-0.58,-0.5969,-0.6345,-0.6369,-0.6437,-0.6481,-0.6593,-0.6729,-0.6871,-0.6912,-0.7061,-0.7278,-0.7512,-0.76,-0.7641,-0.7936,-0.7967,-0.7892,-0.8004,-0.8038,-0.8038,-0.8038,-0.8038,-0.8038,-0.8038,-0.8038,-0.8038,-0.8038,-0.8038,-0.8038,-0.8038,-0.8038,-0.8038,-0.8038,-0.8038,-0.8038,-0.8038,-0.8038,-0.8038,-0.8038,-0.8038,-0.8038,-0.8038,-0.8038,-0.8038,-0.8038,-0.8038,-0.8038,-0.8038,-0.8038,-0.8038,-0.8038,-0.8038,-0.8038,-0.8038,-0.8038,-0.8038,-0.8038,-0.8038,-0.8038,-0.8038,-0.7929,-0.7834,-0.7753,-0.7834,-0.778,-0.7607,-0.7902,-0.8018,0.0,0.0,0.0,-0.8646,0.0,0.0,0.0,0.0,-0.8804,0.0,0.0,0.0,0.0,0.0,0.0,-0.8804,0.0,0.0,0.0,0.0,0.0,0.0,0.0,0.0,0.0,0.0,0.0,0.0,-0.8804,0.0,-0.8804,-0.8103,-0.7723,-0.7723,-0.6303,-0.5631,-0.5768,-0.5195,-0.4989,-0.5131,-0.5287,-0.5515,-0.58,-0.58,-0.5969,-0.6338,-0.6345,-0.6346,-0.6471,-0.6478,-0.6569,-0.6722,-0.6871,-0.6936,-0.6997,-0.7438,-0.76,-0.7641,-0.7936,-0.8035,-0.8031,-0.8038,-0.8038,-0.8038,-0.8038,-0.8038,-0.8038,-0.8038,-0.8038,-0.8038,-0.8038,-0.8038,-0.8038,-0.8038,-0.8038,-0.8038,-0.8038,-0.8038,-0.8038,-0.8038,-0.8038,-0.8038,-0.8038,-0.8038,-0.8038,-0.8038,-0.8038,-0.8038,-0.8038,-0.8038,-0.8038,-0.8038,-0.8038,-0.8038,-0.8038,-0.8038,-0.8038,-0.8038,-0.8038,-0.8038,-0.8038,-0.8038,-0.8038,-0.8038,-0.8035,-0.7892,-0.7607,-0.7892,-0.7882,-0.7607,-0.7902,-0.796,0.0,0.0,-0.8374,-0.8156,0.0,0.0,0.0,0.0,0.0,0.0,0.0,0.0,0.0,0.0,-0.8209,-0.8699,-0.8804,0.0,0.0,0.0,0.0,0.0,0.0,0.0,0.0,0.0,0.0,-0.8804,-0.8804,-0.8804,0.0,-0.8103,-0.7723,-0.7723,-0.6249,-0.558,-0.5768,-0.5195,-0.4989,-0.5131,-0.5287,-0.5467,-0.5661,-0.5661,-0.5823,-0.6108,-0.6108,-0.6193,-0.6332,-0.6332,-0.6417,-0.6566,-0.6719,-0.6841,-0.697,-0.7319,-0.7448,-0.7492,-0.7787,-0.7889,-0.7906,-0.8007,-0.8038,-0.8038,-0.8038,-0.8038,-0.8038,-0.8038,-0.8038,-0.8038,-0.8038,-0.8038,-0.8038,-0.8038,-0.8038,-0.8038,-0.8038,-0.8038,-0.8038,-0.8038,-0.8038,-0.8038,-0.8038,-0.8038,-0.8038,-0.8038,-0.8038,-0.8038,-0.8038,-0.8038,-0.8038,-0.8038,-0.8038,-0.8038,-0.8038,-0.8038,-0.8038,-0.8038,-0.8038,-0.8038,-0.8038,-0.8038,-0.8038,-0.8038,-0.8038,-0.794,-0.774,-0.794,-0.7936,-0.7743,-0.7946,-0.8011,-0.8804,-0.8593,0.0,-0.8156,-0.8049,0.0,-0.7128,0.0,0.0,0.0,0.0,0.0,0.0,0.0,0.0,-0.8374,-0.8646,-0.8804,0.0,-0.8804,0.0,0.0,0.0,0.0,0.0,0.0,-0.8804,-0.8804,-0.8804,-0.8804,0.0,0.0,-0.7563,-0.7343,-0.614,-0.5436,-0.5337,-0.5047,-0.4965,-0.5057,-0.5264,-0.5443,-0.5589,-0.5589,-0.5749,-0.603,-0.603,-0.6118,-0.6338,-0.6338,-0.6315,-0.6417,-0.662,-0.6759,-0.6892,-0.7241,-0.7438,-0.7563,-0.7807,-0.7892,-0.7909,-0.8007,-0.8038,-0.8038,-0.8038,-0.8038,-0.8038,-0.8038,-0.8038,-0.8038,-0.8038,-0.8038,-0.8038,-0.8038,-0.8038,-0.8038,-0.8038,-0.8038,-0.8038,-0.8038,-0.8038,-0.8038,-0.8038,-0.8038,-0.8038,-0.8038,-0.8038,-0.8038,-0.8038,-0.8038,-0.8038,-0.8038,-0.8038,-0.8038,-0.8038,-0.8038,-0.8038,-0.8038,-0.8038,-0.8038,-0.8038,-0.8038,-0.8065,-0.8123,-0.8069,-0.7991,-0.7892,-0.7991,-0.796,-0.7814,-0.7967,-0.8038]},{"header":{"parameterUnit":"m.s-1","parameterCategory":1,"la1":30.6,"la2":29.2853,"lo1":-89.7004,"lo2":-87.6739,"dy":0.0162,"dx":0.0183,"nx":112,"ny":82,"refTime":"2023-07-17T12:00:00:Z","depth":0,"parameterNumber":3,"parameterNumberName":"V-component_of_WINDS"},"data":[0.0,0.0,0.0,0.0,0.0,0.0,0.0,0.0,0.0,0.0,0.0,0.0,0.0,0.0,0.0,0.0,0.0,0.0,0.0,0.0,0.0,0.0,0.0,0.0,0.0,0.0,0.0,0.0,0.0,0.0,0.0,0.0,0.0,0.0,0.0,0.0,0.0,0.0,0.0,0.0,0.0,0.0,0.0,0.0,0.0,0.0,0.0,0.0,0.0,0.0,0.0,0.0,0.0,0.0,0.0,0.0,0.0,0.0,0.0,0.0,0.0,0.0,0.0,0.0,0.0,0.0,0.0,0.0,0.0,0.0,0.0,0.0,0.0,0.0,0.0,0.0,0.0,0.0,0.0,0.0,0.0,0.0,0.0,0.0,0.0,0.0,0.0,0.0,0.0,0.0,0.0,-1.754,-1.9331,-2.0503,-2.0503,-2.0264,-1.9966,-1.9556,0.0,0.0,0.0,0.0,0.0,0.0,0.0,0.0,0.0,0.0,0.0,0.0,0.0,0.0,0.0,0.0,0.0,0.0,0.0,0.0,0.0,0.0,0.0,0.0,0.0,0.0,0.0,0.0,0.0,0.0,0.0,0.0,0.0,0.0,0.0,0.0,0.0,0.0,0.0,0.0,0.0,0.0,0.0,0.0,0.0,0.0,0.0,0.0,0.0,0.0,0.0,0.0,0.0,0.0,0.0,0.0,0.0,0.0,0.0,0.0,0.0,0.0,0.0,0.0,0.0,0.0,0.0,0.0,0.0,0.0,0.0,0.0,0.0,0.0,0.0,0.0,0.0,0.0,0.0,0.0,0.0,0.0,0.0,0.0,0.0,0.0,0.0,0.0,0.0,0.0,0.0,0.0,0.0,0.0,0.0,0.0,0.0,0.0,0.0,0.0,0.0,0.0,0.0,0.0,-1.8418,-1.8933,-1.9892,-2.0503,-2.0503,-1.9237,-1.907,-2.0489,0.0,0.0,0.0,0.0,0.0,0.0,0.0,0.0,0.0,0.0,0.0,0.0,0.0,0.0,0.0,0.0,0.0,0.0,0.0,0.0,0.0,0.0,0.0,0.0,0.0,0.0,0.0,0.0,0.0,0.0,0.0,0.0,0.0,0.0,0.0,0.0,0.0,0.0,0.0,0.0,0.0,0.0,0.0,0.0,0.0,0.0,0.0,0.0,0.0,0.0,0.0,0.0,0.0,0.0,0.0,0.0,0.0,0.0,0.0,0.0,0.0,0.0,0.0,0.0,0.0,0.0,0.0,0.0,0.0,0.0,0.0,0.0,0.0,0.0,0.0,0.0,0.0,0.0,0.0,0.0,0.0,0.0,0.0,0.0,0.0,0.0,0.0,0.0,0.0,0.0,0.0,0.0,0.0,0.0,0.0,0.0,0.0,0.0,0.0,0.0,0.0,0.0,0.0,-1.8432,-1.8453,-1.864,-1.9363,-1.9858,-1.9858,-1.8357,-1.8364,-2.0498,-1.9282,0.0,0.0,0.0,0.0,0.0,0.0,0.0,0.0,0.0,0.0,0.0,0.0,0.0,0.0,0.0,0.0,0.0,0.0,0.0,0.0,0.0,0.0,0.0,0.0,0.0,0.0,0.0,0.0,0.0,0.0,0.0,0.0,0.0,0.0,0.0,0.0,0.0,0.0,0.0,0.0,0.0,0.0,0.0,0.0,0.0,0.0,0.0,0.0,0.0,0.0,0.0,0.0,0.0,0.0,0.0,0.0,0.0,0.0,0.0,0.0,0.0,0.0,0.0,0.0,0.0,0.0,0.0,0.0,0.0,0.0,0.0,0.0,0.0,0.0,0.0,0.0,0.0,0.0,0.0,0.0,0.0,0.0,0.0,0.0,0.0,0.0,0.0,0.0,0.0,0.0,0.0,0.0,0.0,0.0,0.0,0.0,0.0,0.0,0.0,0.0,0.0,0.0,-1.8215,-1.7946,-1.8078,-1.8812,-1.9305,-1.9305,-1.7839,-1.8027,-2.0647,-1.8846,0.0,0.0,0.0,0.0,0.0,0.0,0.0,0.0,0.0,0.0,0.0,0.0,0.0,0.0,0.0,0.0,0.0,0.0,0.0,0.0,0.0,0.0,0.0,0.0,0.0,0.0,0.0,0.0,0.0,0.0,0.0,0.0,0.0,0.0,0.0,0.0,0.0,0.0,0.0,0.0,0.0,0.0,0.0,0.0,0.0,0.0,0.0,0.0,0.0,0.0,0.0,0.0,0.0,0.0,0.0,0.0,0.0,0.0,0.0,0.0,0.0,0.0,0.0,0.0,0.0,0.0,0.0,0.0,0.0,0.0,0.0,0.0,0.0,0.0,0.0,0.0,0.0,0.0,0.0,0.0,0.0,0.0,0.0,0.0,0.0,0.0,0.0,0.0,0.0,0.0,0.0,0.0,0.0,0.0,0.0,0.0,0.0,0.0,0.0,0.0,0.0,0.0,-1.8149,-1.7289,-1.8023,-1.8812,-1.9305,-1.9305,-1.7839,-1.8265,-2.1492,-1.9713,0.0,0.0,0.0,0.0,0.0,0.0,0.0,0.0,0.0,0.0,0.0,0.0,0.0,0.0,0.0,0.0,0.0,0.0,0.0,0.0,0.0,0.0,0.0,0.0,0.0,0.0,0.0,0.0,0.0,0.0,0.0,0.0,0.0,0.0,0.0,0.0,0.0,0.0,0.0,0.0,0.0,0.0,0.0,0.0,0.0,0.0,0.0,0.0,0.0,0.0,0.0,0.0,0.0,0.0,0.0,0.0,0.0,0.0,0.0,0.0,0.0,0.0,0.0,0.0,0.0,0.0,0.0,0.0,0.0,0.0,0.0,0.0,0.0,0.0,0.0,0.0,0.0,0.0,0.0,0.0,0.0,0.0,0.0,0.0,0.0,0.0,0.0,0.0,0.0,0.0,0.0,0.0,0.0,0.0,0.0,0.0,0.0,0.0,0.0,0.0,0.0,0.0,-1.8925,-1.8133,0.0,-1.8519,-1.9087,-1.8592,-1.7532,-1.8064,-2.0831,0.0,0.0,0.0,0.0,0.0,0.0,0.0,0.0,0.0,0.0,0.0,0.0,0.0,0.0,0.0,0.0,0.0,0.0,0.0,0.0,0.0,0.0,0.0,0.0,0.0,0.0,0.0,0.0,0.0,0.0,0.0,0.0,0.0,0.0,0.0,0.0,0.0,0.0,0.0,0.0,0.0,0.0,0.0,0.0,0.0,0.0,0.0,0.0,0.0,0.0,0.0,0.0,0.0,0.0,0.0,0.0,0.0,0.0,0.0,0.0,0.0,0.0,0.0,0.0,0.0,0.0,0.0,0.0,0.0,0.0,0.0,0.0,0.0,0.0,0.0,0.0,0.0,0.0,0.0,0.0,0.0,0.0,0.0,0.0,0.0,0.0,0.0,0.0,0.0,0.0,0.0,0.0,0.0,0.0,0.0,0.0,0.0,0.0,0.0,0.0,0.0,0.0,-1.9769,-1.8976,-1.8115,0.0,-1.8115,-1.8702,-1.8151,-1.7128,-1.7684,-2.0428,0.0,0.0,0.0,0.0,0.0,0.0,0.0,0.0,0.0,0.0,0.0,0.0,0.0,0.0,0.0,0.0,0.0,0.0,0.0,0.0,0.0,0.0,0.0,0.0,0.0,0.0,0.0,0.0,0.0,0.0,0.0,0.0,0.0,0.0,0.0,0.0,0.0,0.0,0.0,0.0,0.0,0.0,0.0,0.0,0.0,0.0,0.0,0.0,0.0,0.0,0.0,0.0,0.0,0.0,0.0,0.0,0.0,0.0,0.0,0.0,0.0,0.0,0.0,0.0,0.0,0.0,0.0,0.0,0.0,0.0,0.0,0.0,0.0,0.0,0.0,0.0,0.0,0.0,0.0,0.0,0.0,0.0,0.0,0.0,0.0,0.0,0.0,0.0,0.0,0.0,0.0,0.0,0.0,0.0,0.0,0.0,0.0,0.0,0.0,0.0,0.0,0.0,-1.9638,-1.8014,-1.6908,-1.6908,-1.7624,-1.8096,-1.8096,-1.661,-1.7156,0.0,0.0,0.0,0.0,0.0,0.0,0.0,0.0,0.0,0.0,0.0,0.0,0.0,0.0,0.0,0.0,0.0,0.0,0.0,0.0,0.0,0.0,0.0,0.0,0.0,0.0,0.0,0.0,0.0,0.0,0.0,0.0,0.0,0.0,0.0,0.0,0.0,0.0,0.0,0.0,0.0,0.0,0.0,0.0,0.0,0.0,0.0,0.0,0.0,0.0,0.0,0.0,0.0,0.0,0.0,0.0,0.0,0.0,0.0,0.0,0.0,0.0,0.0,0.0,0.0,0.0,0.0,0.0,0.0,0.0,0.0,0.0,0.0,0.0,0.0,0.0,0.0,0.0,0.0,0.0,0.0,0.0,0.0,0.0,0.0,0.0,0.0,0.0,0.0,0.0,0.0,0.0,0.0,0.0,0.0,0.0,0.0,0.0,0.0,0.0,0.0,0.0,0.0,0.0,-1.8014,-1.6908,-1.6908,-1.7624,-1.7876,-1.7293,-1.6298,-1.687,-1.956,0.0,0.0,0.0,0.0,0.0,0.0,0.0,0.0,0.0,0.0,0.0,0.0,0.0,0.0,0.0,0.0,0.0,0.0,0.0,0.0,0.0,0.0,0.0,0.0,0.0,0.0,0.0,0.0,0.0,0.0,0.0,0.0,0.0,0.0,0.0,0.0,0.0,0.0,0.0,0.0,0.0,0.0,0.0,0.0,0.0,0.0,0.0,0.0,0.0,0.0,0.0,0.0,0.0,0.0,0.0,0.0,0.0,0.0,0.0,0.0,0.0,0.0,0.0,0.0,0.0,0.0,0.0,0.0,0.0,0.0,0.0,0.0,0.0,0.0,0.0,0.0,0.0,0.0,0.0,0.0,0.0,0.0,0.0,0.0,0.0,0.0,0.0,0.0,0.0,0.0,0.0,0.0,0.0,0.0,0.0,0.0,0.0,0.0,0.0,0.0,0.0,0.0,-1.9532,-1.7978,-1.6908,-1.6908,-1.733,-1.755,-1.7385,-1.6353,-1.6759,-1.9257,0.0,0.0,0.0,0.0,0.0,0.0,0.0,0.0,0.0,0.0,0.0,0.0,0.0,0.0,0.0,0.0,0.0,0.0,0.0,0.0,0.0,0.0,0.0,0.0,0.0,0.0,0.0,0.0,0.0,0.0,0.0,0.0,0.0,0.0,0.0,0.0,0.0,0.0,0.0,0.0,0.0,0.0,0.0,0.0,0.0,0.0,0.0,0.0,0.0,0.0,0.0,0.0,0.0,0.0,0.0,0.0,0.0,0.0,0.0,0.0,0.0,0.0,0.0,0.0,0.0,0.0,0.0,0.0,0.0,0.0,0.0,0.0,0.0,0.0,0.0,0.0,0.0,0.0,0.0,0.0,0.0,0.0,0.0,0.0,0.0,0.0,0.0,0.0,0.0,0.0,0.0,0.0,0.0,0.0,0.0,0.0,0.0,0.0,0.0,0.0,0.0,0.0,-1.946,-1.8023,-1.7018,-1.7018,-1.7018,-1.7312,-1.8041,-1.6683,-1.6885,-1.9404,0.0,0.0,0.0,0.0,0.0,0.0,0.0,0.0,0.0,0.0,0.0,0.0,0.0,0.0,0.0,0.0,0.0,0.0,0.0,0.0,0.0,0.0,0.0,0.0,0.0,0.0,0.0,0.0,0.0,0.0,0.0,0.0,0.0,0.0,0.0,0.0,0.0,0.0,0.0,0.0,0.0,0.0,0.0,0.0,0.0,0.0,0.0,0.0,0.0,0.0,0.0,0.0,0.0,0.0,0.0,0.0,0.0,0.0,0.0,0.0,-2.2479,0.0,0.0,0.0,0.0,0.0,0.0,0.0,0.0,0.0,0.0,0.0,0.0,0.0,0.0,0.0,0.0,0.0,0.0,0.0,0.0,0.0,0.0,0.0,0.0,0.0,0.0,0.0,0.0,0.0,0.0,0.0,0.0,0.0,0.0,0.0,0.0,0.0,0.0,0.0,0.0,0.0,-2.0276,-1.8849,-1.7839,-1.7839,-1.7839,-1.7913,-1.8096,-1.7202,-1.7413,-1.9254,0.0,0.0,0.0,0.0,0.0,0.0,0.0,0.0,0.0,0.0,0.0,0.0,0.0,0.0,0.0,0.0,0.0,0.0,0.0,0.0,0.0,0.0,0.0,0.0,0.0,0.0,0.0,0.0,0.0,0.0,0.0,0.0,0.0,0.0,0.0,0.0,0.0,0.0,0.0,0.0,0.0,0.0,0.0,0.0,0.0,0.0,0.0,0.0,0.0,0.0,0.0,0.0,0.0,0.0,0.0,0.0,0.0,0.0,0.0,0.0,0.0,-2.2936,0.0,0.0,0.0,0.0,0.0,0.0,0.0,0.0,0.0,0.0,0.0,0.0,0.0,0.0,0.0,0.0,0.0,0.0,0.0,0.0,0.0,0.0,0.0,0.0,0.0,0.0,0.0,0.0,0.0,0.0,0.0,0.0,0.0,0.0,0.0,0.0,0.0,0.0,0.0,0.0,-2.0517,-1.9106,-1.8096,-1.8096,-1.8096,-1.8262,-1.8647,-1.795,-1.8005,-1.9216,-1.976,0.0,0.0,0.0,0.0,0.0,0.0,0.0,0.0,0.0,0.0,0.0,0.0,0.0,0.0,0.0,0.0,0.0,0.0,0.0,0.0,0.0,0.0,0.0,0.0,0.0,0.0,0.0,0.0,0.0,0.0,0.0,0.0,0.0,0.0,0.0,0.0,0.0,0.0,0.0,0.0,0.0,0.0,0.0,0.0,0.0,0.0,0.0,0.0,0.0,0.0,0.0,0.0,0.0,0.0,-2.8991,-2.9381,-2.9536,-2.9127,-2.8298,-2.6454,-2.4932,-2.3765,0.0,0.0,0.0,0.0,0.0,0.0,0.0,0.0,0.0,0.0,0.0,0.0,0.0,0.0,0.0,0.0,0.0,0.0,0.0,0.0,0.0,0.0,0.0,0.0,0.0,-2.3602,-2.2997,0.0,0.0,0.0,0.0,0.0,0.0,0.0,0.0,0.0,0.0,0.0,0.0,-2.0774,-1.9436,-1.8463,-1.8317,-1.8317,-1.8574,-1.9234,-1.8684,-1.8592,-1.9268,-1.9932,-2.0338,0.0,0.0,0.0,0.0,0.0,0.0,0.0,0.0,0.0,0.0,0.0,0.0,0.0,0.0,0.0,0.0,0.0,0.0,0.0,0.0,0.0,0.0,0.0,0.0,0.0,0.0,0.0,0.0,0.0,0.0,0.0,0.0,-2.1431,-2.209,0.0,0.0,0.0,0.0,0.0,0.0,0.0,0.0,0.0,0.0,0.0,0.0,0.0,0.0,-2.823,-2.9719,-3.0192,-2.9685,-3.1715,-3.2053,-3.092,-3.1546,-3.1444,-3.0734,-3.0429,0.0,-2.527,-2.4611,0.0,0.0,0.0,0.0,0.0,0.0,0.0,0.0,0.0,0.0,0.0,0.0,0.0,0.0,0.0,0.0,0.0,0.0,0.0,0.0,0.0,0.0,-2.3896,-2.3309,-2.3621,-2.3823,0.0,-2.3492,-2.4081,-2.4081,0.0,0.0,0.0,0.0,0.0,0.0,0.0,0.0,-2.1729,-2.0776,-1.9932,-1.9216,-1.9143,-1.9179,-1.9305,-1.9198,-1.9179,-1.9289,-1.9399,-1.9767,-2.0466,-2.0613,0.0,0.0,0.0,0.0,0.0,0.0,0.0,0.0,0.0,0.0,0.0,0.0,0.0,0.0,0.0,0.0,0.0,0.0,0.0,0.0,0.0,0.0,0.0,0.0,0.0,0.0,0.0,0.0,0.0,-2.1904,-2.2243,-2.1735,-2.2412,-2.2767,0.0,0.0,0.0,0.0,0.0,0.0,0.0,0.0,0.0,-2.9178,-2.9939,-3.0497,-3.0835,-3.2307,-3.3102,-3.322,-3.4624,-3.5182,-3.4962,-3.4861,-3.4641,-3.4286,-3.3423,-3.2121,-3.0412,-2.801,-2.6759,-2.6285,0.0,0.0,0.0,0.0,0.0,-2.6275,-2.6361,-2.5709,0.0,0.0,0.0,0.0,0.0,0.0,0.0,0.0,0.0,0.0,0.0,0.0,0.0,-2.5107,-2.5291,-2.5456,-2.5107,-2.5309,-2.5144,0.0,-2.4263,-2.4722,-2.4281,0.0,0.0,0.0,0.0,0.0,-2.252,-2.1749,-2.1088,-2.0756,-2.0719,-2.0719,-2.0719,-2.0719,-2.0501,-2.0005,-2.0427,-2.0427,-1.9858,-2.1161,-2.2109,0.0,0.0,0.0,0.0,0.0,0.0,0.0,0.0,0.0,0.0,0.0,0.0,0.0,0.0,0.0,0.0,0.0,0.0,0.0,0.0,0.0,0.0,0.0,0.0,0.0,0.0,0.0,0.0,-2.2852,-2.3257,-2.2186,-2.368,-2.4391,0.0,0.0,0.0,0.0,0.0,0.0,-2.8856,-2.9702,-3.0784,-3.2273,-3.3051,-3.3525,-3.3711,-3.481,-3.574,-3.6485,-3.7077,-3.7635,-3.8159,-3.7601,-3.7144,-3.6721,-3.5571,-3.4962,-3.4506,-3.0987,-2.9423,-2.9055,-2.7996,-2.798,-2.8595,-2.8831,-2.8848,-2.8843,-2.9281,-2.8388,-2.7186,-2.7947,0.0,-2.5834,-2.5879,0.0,0.0,0.0,0.0,-2.6961,-2.7163,-2.7218,-2.7218,-2.7218,-2.7383,-2.742,-2.6998,-2.7071,-2.6576,0.0,-2.4722,-2.5219,-2.4612,0.0,0.0,0.0,0.0,-2.3235,-2.3033,-2.2483,-2.2024,-2.1821,-2.1803,-2.1803,-2.1803,-2.1803,-2.151,-2.0868,-2.1437,-2.1252,-2.0003,-2.1712,-2.2552,-2.2253,0.0,0.0,0.0,0.0,0.0,0.0,0.0,0.0,0.0,0.0,0.0,0.0,0.0,0.0,0.0,0.0,0.0,0.0,0.0,0.0,0.0,0.0,0.0,0.0,0.0,0.0,0.0,0.0,0.0,-2.4354,-2.6945,0.0,0.0,0.0,0.0,-2.8704,-2.9397,-3.048,-3.1968,-3.278,-3.3863,-3.5351,-3.6146,-3.6891,-3.7618,-3.7702,-3.8108,-3.8819,-3.8853,-3.8903,-3.8937,-3.8903,-3.8108,-3.6772,-3.6705,-3.6248,-3.5334,-3.2324,-3.1794,-3.2639,-3.0708,-3.0631,-3.1549,-3.0418,-2.9811,-2.9487,-2.914,-2.8603,-2.8326,-2.9998,-3.076,-3.0902,-3.0206,-2.9704,0.0,0.0,-2.8579,-2.7915,-2.8686,-2.8865,-2.8865,-2.8865,-2.9475,-2.9604,-2.8062,-2.8338,-2.8388,0.0,-2.586,-2.5403,-2.5348,0.0,-2.419,-2.419,-2.4171,-2.3859,-2.3107,-2.296,-2.2648,-2.1894,-2.1803,-2.1803,-2.1803,-2.1803,-2.1784,-2.1748,-2.1784,-2.1766,-2.1692,-2.1803,-2.2207,-2.2941,-2.3371,0.0,0.0,0.0,0.0,0.0,0.0,0.0,0.0,0.0,0.0,0.0,0.0,0.0,0.0,0.0,0.0,0.0,0.0,0.0,0.0,0.0,0.0,0.0,0.0,0.0,0.0,0.0,0.0,-2.7994,-2.9871,0.0,0.0,-2.9939,-3.0598,-3.1111,-3.1799,-3.3085,-3.5064,-3.5893,-3.6975,-3.8447,-3.8751,-3.9022,-3.9292,-3.9309,-3.9428,-3.9698,-3.9698,-3.9698,-3.9681,-3.9208,-3.87,-3.8176,-3.7702,-3.7347,-3.6975,-3.5419,-3.4482,-3.3909,-3.3059,-3.2972,-3.3297,-3.3171,-3.3055,-3.2913,-3.2573,-3.1838,-3.0889,-3.0208,-3.0625,-3.1148,-2.986,-2.9701,-2.9983,-2.9983,-3.0064,-3.0173,-3.0467,-3.054,-3.054,-3.054,-3.076,-3.0668,-2.9586,-2.9567,-2.9457,-2.8374,-2.709,-2.6007,-2.5495,-2.4722,-2.419,-2.419,-2.419,-2.4098,-2.3804,-2.3768,-2.3657,-2.3382,-2.3327,-2.3327,-2.3327,-2.3327,-2.3125,-2.2611,-2.3052,-2.2868,-2.1839,-2.2776,-2.329,-2.3206,-2.3956,-2.452,0.0,0.0,0.0,0.0,0.0,0.0,0.0,0.0,0.0,0.0,0.0,0.0,0.0,0.0,0.0,0.0,0.0,0.0,0.0,0.0,0.0,0.0,0.0,0.0,0.0,0.0,-3.0091,-3.1106,-3.3186,-3.3947,-3.2459,-3.3457,-3.4303,-3.4523,-3.525,-3.6535,-3.8531,-3.865,-3.9191,-4.0409,-4.0206,-4.007,-4.007,-4.007,-4.007,-4.007,-4.007,-4.007,-4.0054,-3.958,-3.9225,-3.8971,-3.8481,-3.8142,-3.7872,-3.7546,-3.6666,-3.548,-3.51,-3.5144,-3.5412,-3.5525,-3.5528,-3.5416,-3.5123,-3.4578,-3.3734,-3.2314,-3.2192,-3.243,-3.1341,-3.1219,-3.1396,-3.125,-3.1485,-3.1836,-3.1989,-3.1913,-3.1806,-3.1806,-3.1806,-3.1586,-3.0779,-3.0393,-3.0044,-2.9512,-2.7897,-2.6429,-2.5897,-2.4905,-2.4281,-2.4557,-2.4373,-2.43,-2.4557,-2.4373,-2.419,-2.419,-2.419,-2.419,-2.419,-2.419,-2.4007,-2.3546,-2.3952,-2.375,-2.2751,-2.3731,-2.4098,-2.3694,-2.4473,-2.4943,-2.5099,0.0,0.0,0.0,0.0,0.0,0.0,0.0,0.0,0.0,0.0,0.0,0.0,0.0,0.0,0.0,0.0,0.0,0.0,0.0,0.0,0.0,0.0,0.0,-2.7992,-3.119,-3.3525,-3.3575,-3.6823,-3.7922,-3.4979,-3.8007,-3.9868,-3.9157,-3.9766,-4.0798,-4.2219,-4.0899,-4.046,-4.1221,-4.051,-4.0104,-4.0104,-4.0104,-4.0104,-4.007,-4.007,-4.007,-4.007,-4.007,-3.9698,-3.9022,-3.9022,-3.8616,-3.797,-3.8391,-3.8157,-3.7455,-3.6745,-3.7038,-3.7825,-3.7396,-3.7024,-3.6696,-3.6431,-3.651,-3.6678,-3.6406,-3.5752,-3.5064,-3.5045,-3.4504,-3.3781,-3.3386,-3.2984,-3.2773,-3.3121,-3.293,-3.2651,-3.2651,-3.2651,-3.243,-3.1604,-3.0834,-3.0265,-3.021,-2.8301,-2.6667,-2.6649,-2.5309,-2.4502,-2.5293,-2.4704,0.0,-2.5274,-2.4667,-2.4208,-2.4226,-2.4208,-2.4208,-2.4245,-2.4208,-2.4284,-2.4478,-2.4303,-2.4284,-2.4495,-2.4495,-2.4512,-2.4528,-2.4845,-2.5099,-2.5303,0.0,0.0,0.0,0.0,0.0,0.0,0.0,0.0,0.0,0.0,0.0,0.0,0.0,0.0,0.0,0.0,0.0,0.0,0.0,0.0,0.0,0.0,-3.2053,-3.2577,-3.4506,-3.6248,-3.733,-3.9326,-4.0273,-3.9445,-4.029,-4.1035,-4.1356,-4.1576,-4.1863,-4.2269,-4.1407,-4.1238,-4.1965,-4.1271,-4.0899,-4.0899,-4.0899,-4.0629,-4.007,-4.007,-4.007,-4.007,-4.007,-3.9969,-3.9783,-3.9783,-3.9377,-3.865,-3.8282,-3.8094,-3.8046,-3.7835,-3.7609,-3.7433,-3.7614,-3.7525,-3.7272,-3.7191,-3.7216,-3.7162,-3.6512,-3.6523,-3.6688,-3.6119,-3.5789,-3.5449,-3.4694,-3.444,-3.4238,-3.3771,-3.3542,-3.3476,-3.3476,-3.3476,-3.3256,-3.2449,-3.21,-3.1604,-3.043,-2.92,-2.8154,-2.7567,-2.6135,-2.5164,-2.5384,-2.4704,0.0,-2.4502,-2.4337,-2.441,-2.5017,-2.4538,-2.4428,-2.5035,-2.4538,-2.4228,0.0,-2.4228,-2.4284,-2.4495,-2.4495,-2.462,-2.4858,-2.5107,-2.5234,0.0,0.0,0.0,0.0,0.0,0.0,0.0,0.0,0.0,0.0,0.0,0.0,0.0,0.0,0.0,0.0,0.0,0.0,0.0,0.0,0.0,0.0,-3.3271,-3.5402,-3.7077,-3.7804,-3.8717,-4.0206,-4.1407,-4.2016,-4.1694,-4.2252,-4.2658,-4.276,-4.276,-4.2912,-4.3234,-4.2236,-4.1999,-4.2743,-4.1745,-4.1204,-4.1204,-4.0882,-4.051,-4.007,-4.007,-4.007,-4.007,-4.007,-4.007,0.0,-4.007,-3.9834,-3.9411,-3.8988,-3.8877,0.0,0.0,0.0,0.0,0.0,-3.8123,-3.7991,-3.7991,-3.7991,-3.7918,-3.7459,-3.7386,-3.7404,-3.6927,-3.6303,-3.5614,-3.4947,-3.4621,-3.4339,-3.3706,-3.3662,-3.3807,-3.3807,-3.3807,-3.3678,-3.3201,-3.2852,-3.2339,-3.1403,0.0,0.0,-2.8943,-2.7181,-2.6007,-2.6337,-2.5419,-2.4814,-2.5162,-2.4612,-2.4373,-2.4832,-2.4483,-2.4392,-2.485,-2.4465,0.0,0.0,0.0,-2.4444,-2.4693,-2.4708,0.0,0.0,0.0,-2.5303,-2.5303,0.0,0.0,0.0,-2.5303,-2.5303,0.0,0.0,0.0,0.0,0.0,0.0,0.0,0.0,0.0,0.0,0.0,0.0,0.0,0.0,0.0,0.0,-3.6079,-3.8075,-4.1035,-4.0899,-4.095,-4.2151,-4.2963,-4.3149,-4.2489,-4.3656,-4.4198,-4.3589,-4.3555,-4.3859,-4.4536,0.0,0.0,0.0,0.0,-4.1407,-4.1322,-4.0663,-4.024,-4.007,-4.007,-4.007,-4.007,-4.007,-4.007,-4.007,-4.007,-4.007,-4.007,-3.9986,-3.9805,-3.9448,-3.799,-3.7952,-3.8737,-3.8695,-3.8707,0.0,0.0,0.0,0.0,-3.8707,-3.8212,-3.7624,-3.7624,-3.6597,-3.5318,-3.4885,-3.4488,-3.4092,-3.3669,-3.3796,-3.4082,-3.4082,-3.4082,-3.4045,-3.3954,-3.3385,-3.2834,-3.2651,-3.2027,-3.1274,-3.0467,-2.8411,-2.709,-2.7714,-2.6502,-2.575,-2.6374,-2.5217,-2.4337,-2.4337,0.0,0.0,-2.4318,-2.4245,-2.4266,-2.4444,-2.4512,-2.4663,-2.4998,-2.5022,-2.5111,-2.5303,-2.5303,-2.5341,-2.5437,-2.5437,-2.5495,-2.5591,-2.538,-2.5303,0.0,0.0,0.0,0.0,0.0,0.0,0.0,0.0,0.0,0.0,0.0,0.0,0.0,0.0,0.0,-3.684,-3.799,-3.9597,-4.2574,-4.2861,-4.2658,-4.2337,-4.2963,-4.3352,-4.3217,-4.347,-4.3842,-4.4316,-4.435,-4.4418,-4.457,-4.3707,0.0,-4.4333,-4.347,-4.2692,-4.2083,-4.1931,-4.1271,-4.007,0.0,0.0,-4.007,-4.007,-4.007,-4.007,-4.007,-4.007,-4.002,-3.9445,-3.9037,-3.8799,-3.8676,-3.8761,-3.8916,-3.8752,-3.8707,-3.8707,-3.8707,-3.8707,-3.8707,-3.8707,-3.8597,-3.8469,-3.8469,-3.8248,0.0,-3.7094,-3.6861,-3.6615,-3.5886,-3.575,-3.5826,-3.5826,-3.5826,-3.5624,-3.4926,-3.4642,-3.4147,-3.2852,-3.2485,-3.2118,-3.1311,-2.9696,-2.8374,-2.786,-2.6979,-2.619,-2.5695,-2.5366,-2.5182,-2.5182,-2.4575,-2.4447,-2.5127,-2.4557,-2.4209,-2.4266,-2.4559,-2.4828,-2.4998,-2.5152,-2.5264,-2.5303,-2.5303,-2.5649,-2.6351,-2.6351,-2.6717,-2.7351,-2.5947,-2.5303,0.0,0.0,0.0,0.0,0.0,0.0,0.0,0.0,0.0,0.0,0.0,-3.3085,0.0,0.0,-3.7483,-3.9732,-4.1052,-4.2303,-4.3792,-4.4333,-4.4282,-4.3521,-4.3775,-4.3995,-4.3995,-4.3995,-4.4164,-4.4553,-4.4587,-4.4587,-4.4587,-4.4215,-4.4181,-4.457,-4.3826,-4.3234,-4.2861,-4.2472,-4.1728,-4.0646,-4.0646,-4.0443,-4.007,-4.007,-4.007,-4.007,-4.007,-4.007,-4.0054,-3.9681,-3.9631,-3.9735,-3.9815,-3.9709,-3.9572,-3.9392,-3.9294,-3.9239,-3.8836,-3.8707,-3.8707,-3.8707,-3.8707,-3.8707,-3.8707,-3.8414,-3.801,-3.7606,-3.7202,-3.6798,-3.6395,-3.6303,-3.6303,-3.6303,-3.5973,-3.5532,-3.5082,-3.466,-3.4174,-3.3366,-3.3201,-3.2944,-3.2137,-3.1347,-3.0393,-2.9182,-2.797,-2.6906,-2.6098,-2.5988,-2.5676,-2.4887,-2.4795,-2.4942,-2.5384,-2.5401,-2.5483,-2.5687,-2.5888,-2.6143,-2.6435,-2.6551,-2.6601,-2.6601,-2.6601,-2.6813,-2.7255,-2.7255,-2.7467,-2.7871,-2.7005,-2.6601,0.0,0.0,0.0,0.0,0.0,0.0,0.0,0.0,-3.0034,-3.2179,-3.3863,-3.5436,-3.711,-3.8633,-4.0257,-4.2202,-4.3555,-4.4401,-4.4553,-4.5111,-4.5213,-4.4451,-4.4485,-4.4587,-4.4587,-4.4587,-4.4587,-4.4587,-4.4587,-4.4587,-4.4587,-4.4587,-4.4587,-4.4587,-4.3978,-4.3572,-4.342,-4.2811,-4.2134,-4.1407,-4.1271,-4.0882,-4.029,-4.0155,-4.007,-4.007,-4.007,-4.007,-4.007,-4.007,-4.0417,-4.0897,-4.0866,-4.0784,-4.0637,-4.0105,-3.99,-3.9772,-3.8852,-3.8546,-3.8546,-3.8433,-3.8465,-3.8546,-3.8546,-3.8169,-3.7716,-3.7716,-3.7257,-3.6762,-3.6762,-3.6762,-3.6762,-3.6762,-3.6229,-3.5697,-3.5532,-3.4981,-3.4412,-3.41,-3.4027,-3.3788,-3.2981,-3.2706,-3.2063,-3.0448,-2.9108,-2.7915,-2.6961,-2.6833,-2.6282,-2.4814,-2.5236,-2.5621,-2.5621,-2.6123,-2.6636,-2.7172,-2.7251,-2.7466,-2.7879,-2.789,-2.789,-2.789,-2.789,-2.7967,-2.8121,-2.8121,-2.8217,-2.839,-2.839,-2.8217,-2.4416,-2.4949,-2.6313,-2.8995,-2.9188,-3.0201,0.0,0.0,-3.5668,-3.7387,-3.9153,-4.0223,-3.9817,-4.0933,-4.2219,-4.3149,-4.3436,-4.3792,-4.4485,-4.4654,-4.4418,-4.3639,-4.4164,-4.4587,-4.4587,-4.4587,-4.4587,-4.4587,-4.4587,-4.4587,-4.4587,-4.4587,-4.4587,-4.4587,-4.4485,-4.4113,-4.342,-4.3335,-4.2912,-4.2168,-4.1508,-4.117,-4.1052,-4.0392,-4.007,-4.007,-4.007,-4.007,-4.007,-4.007,-4.0417,-4.0932,-4.149,-4.1966,-4.2208,-4.0525,-3.99,-3.974,-3.8437,-3.798,-3.7911,-3.7506,-3.7667,-3.798,-3.798,-3.8277,-3.8579,-3.8579,-3.8505,-3.8432,-3.8432,-3.8432,-3.8432,-3.8432,-3.8358,-3.8083,-3.7367,-3.7129,-3.6633,-3.5137,-3.4862,-3.4605,-3.3807,-3.3073,-3.2063,-3.0448,-3.0044,-2.9384,-2.786,-2.7658,-2.731,-2.6429,-2.641,-2.6465,-2.6465,-2.606,-2.6202,-2.7132,-2.7424,-2.7669,-2.789,-2.789,-2.789,-2.789,-2.789,-2.8255,-2.8967,-2.8967,-2.9352,-3.0121,-3.0121,-2.9313,-2.8102,-2.8649,0.0,0.0,-3.286,-3.4687,-3.7659,-3.8057,-3.821,-3.9788,-4.1359,-4.2405,-4.21,-4.2912,-4.3724,0.0,-4.4468,-4.4705,-4.4587,-4.4587,-4.4282,-4.3521,-4.3318,-4.325,-4.325,-4.3639,-4.391,-4.391,-4.4333,-4.4587,-4.4587,-4.4587,-4.4587,-4.4587,-4.4587,-4.4418,-4.4096,-4.4096,-4.3707,-4.2929,-4.2185,-4.1627,-4.117,-4.0426,-4.007,-4.007,-4.007,-4.007,-4.0121,-4.0449,-4.092,-4.149,-4.208,-4.2675,-4.2996,-4.176,-4.1001,-4.0437,-3.9433,-3.8765,-3.8332,-3.8135,-3.8201,-3.8382,-3.8382,-3.8515,-3.8707,-3.8707,-3.8707,-3.8707,-3.8707,-3.8707,-3.8707,-3.8707,-3.834,-3.79,-3.7551,-3.711,-3.6578,-3.5899,-3.5771,-3.5661,-3.5312,-3.4559,-3.3623,-3.2467,-3.1494,-3.032,-2.8705,-2.8906,-2.8705,-2.7438,-2.7291,-2.7337,-2.7468,-2.7716,-2.8126,-2.878,-2.8922,-2.9104,-2.934,-2.9352,-2.9352,-2.9352,-2.9352,-2.9525,-2.9871,-2.9871,-3.0044,-3.0398,-3.0398,-3.0025,-2.9922,0.0,0.0,-3.3618,-3.6071,-3.8294,-3.9215,-3.9976,-4.0781,-4.1644,-4.2844,-4.3673,-4.3453,-4.3707,0.0,-4.4231,-4.4722,-4.4959,-4.4621,-4.4401,-4.3978,-4.32,-4.2455,-4.1914,-4.1694,-4.254,-4.32,-4.3403,-4.3944,-4.435,-4.457,-4.4587,-4.4587,-4.4587,-4.4587,-4.4587,-4.4587,-4.4587,-4.4299,-4.3724,-4.2963,-4.2219,-4.1474,-4.051,-4.007,-4.007,-4.007,-4.007,-4.0121,-4.0703,-4.1268,-4.1853,-4.248,-4.3014,-4.3424,-4.2837,-4.2121,-4.128,-4.0339,-3.9648,-3.9122,-3.8973,-3.9057,-3.9122,-3.9122,-3.9237,-3.9331,-3.9093,-3.9038,-3.9038,-3.9038,-3.9038,-3.9093,-3.9313,-3.8744,-3.8212,-3.8432,-3.7679,-3.6964,-3.6964,-3.678,-3.656,-3.634,-3.5789,-3.5092,-3.4266,-3.3146,-3.1733,-2.9898,-2.9989,-2.9677,-2.8282,-2.7985,-2.8038,-2.8444,-2.8933,-2.9451,-2.9965,-3.0075,-3.0196,-3.0398,-3.0398,-3.0398,-3.0398,-3.0398,-3.0398,-3.0398,-3.0398,-3.0398,-3.0398,-3.0398,-3.0398,0.0,0.0,-3.2119,-3.5852,-3.8156,-3.9932,-4.154,-4.3201,-4.4215,-4.3504,-4.3995,-4.4316,-4.3555,-4.2844,-4.2591,-4.3335,-4.347,-4.3741,-4.4468,-4.3927,-4.3166,-4.2422,-4.1677,-4.095,0.0,-4.1474,-4.2625,-4.3369,-4.3436,-4.3792,-4.4536,-4.4587,-4.4587,-4.4587,-4.4587,-4.4587,-4.4587,-4.4587,-4.457,-4.4536,-4.3758,-4.298,-4.2202,-4.0747,-4.007,-4.007,-4.007,-4.007,-4.0121,-4.0703,-4.1268,-4.1853,-4.248,-4.3014,-4.3497,-4.3461,-4.2947,-4.2072,-4.0762,-4.0257,-4.0167,-3.9697,-3.9888,-4.0239,-4.0239,-4.0611,-4.0873,-4.0084,-3.9845,-3.9845,-3.9845,-3.9845,-4.0065,-4.0855,-4.0414,-4.0029,-4.0836,-3.9753,-3.8634,-3.8634,-3.7991,-3.7202,-3.6431,-3.6266,-3.5973,-3.5082,-3.4917,-3.4045,-3.1623,-3.0668,-2.9879,-2.903,-2.845,-2.8444,-2.9301,-2.9023,-2.9169,-2.9942,-3.0254,-3.0398,-3.0398,-3.0398,-3.0398,-3.0398,-3.0398,-3.0398,-3.0398,-3.0398,-3.0398,-3.0398,-3.0398,-3.0398,0.0,0.0,-3.6478,-3.8841,-4.154,-4.3637,-4.369,-4.4567,-4.4959,-4.369,-4.2844,-4.21,-4.1339,-4.0595,-4.0341,-4.1085,-4.2033,-4.2946,-4.3707,-4.3589,-4.3149,-4.2388,-4.1644,0.0,0.0,0.0,0.0,-4.1931,-4.2861,-4.3538,-4.3792,-4.4299,-4.4587,-4.4587,-4.4587,-4.4587,-4.4587,-4.4587,-4.4587,-4.457,-4.3792,-4.3014,-4.2269,-4.1779,-4.1288,-4.0866,-4.1235,-4.1106,-4.0703,-4.1682,-4.2203,-4.2462,-4.3014,-4.3339,-4.3497,-4.3497,-4.3314,-4.2965,-4.1969,-4.1296,-4.0805,-4.0668,-4.0702,-4.0823,-4.0823,-4.0684,-4.0454,-4.0182,-4.0109,-4.0109,-4.0109,-4.0404,-4.0763,-4.1056,-4.0891,-4.0781,-4.1056,-4.0689,-4.0304,-4.0304,-3.9643,-3.9001,-3.8726,-3.779,-3.6615,-3.5192,-3.4073,-3.3128,-3.2302,-3.1035,-3.0099,-2.9843,-2.9302,-2.9156,-2.9551,-2.9614,-2.9784,-3.0235,-3.0355,-3.0398,-3.0398,-3.0398,-3.0398,-3.0398,-3.0398,-3.0679,-3.1256,-3.1256,-3.1256,-3.1256,-3.1256,-3.1256,-3.4739,-3.7387,-3.9529,-4.1869,-4.4113,-4.5585,-4.5094,-4.5145,-4.479,-4.2997,-4.1441,-4.0104,-3.9089,-3.7635,-3.7195,-3.9005,-3.9884,-4.095,-4.276,-4.3014,-4.2929,-4.2726,-4.2033,0.0,0.0,0.0,0.0,-4.1221,-4.2591,-4.342,-4.342,-4.4147,-4.4587,-4.4587,-4.4587,-4.4587,-4.4587,-4.4587,-4.4587,-4.457,-4.4031,-4.3401,-4.2675,-4.2422,-4.2038,-4.1528,-4.1957,-4.1759,-4.1313,-4.2302,-4.2711,-4.2732,-4.3286,-4.3497,-4.3497,-4.3497,-4.3497,-4.3424,-4.291,-4.2396,-4.1974,-4.1974,-4.1974,-4.1974,-4.1974,-4.154,-4.1069,-4.098,-4.08,-4.0672,-4.089,-4.1243,-4.1607,-4.1901,-4.1754,-4.1625,-4.1901,-4.1515,-4.1203,-4.1479,-4.0653,-3.99,-3.99,-3.856,-3.711,-3.6064,-3.4504,-3.3256,-3.2687,-3.1715,-3.0882,-3.0388,-3.0097,-2.9908,-2.9799,-3.0018,-3.0209,-3.0398,-3.0398,-3.0398,-3.0398,-3.0398,-3.0398,-3.0398,-3.0398,-3.0679,-3.1237,-3.1545,-3.1545,-3.1237,-3.1545,-3.1698,-3.7449,-3.9467,-4.1271,-4.4823,-4.5771,-4.5771,-4.5618,-4.501,-4.3809,-4.1508,-3.98,-3.8244,0.0,0.0,-3.3474,-3.7077,-3.7263,-3.8193,-4.1796,-4.2388,-4.2726,0.0,0.0,0.0,0.0,0.0,0.0,-4.1322,0.0,-4.342,-4.342,-4.4147,-4.4587,-4.4587,-4.4587,-4.4604,-4.4637,-4.4677,-4.466,-4.4609,-4.4492,-4.413,-4.3491,-4.278,-4.2364,-4.2137,-4.2233,-4.2118,-4.1895,-4.248,-4.275,-4.2788,-4.3286,-4.3497,-4.3497,-4.3497,-4.3497,-4.3497,-4.3497,-4.3497,-4.3497,-4.3497,-4.3497,-4.3497,-4.3497,-4.3142,-4.2663,-4.239,-4.1922,-4.1614,-4.2187,-4.2326,-4.2543,-4.3314,-4.291,-4.2561,-4.3332,-4.2304,-4.146,-4.2213,-4.1093,-3.9992,-3.99,-3.8615,-3.7569,-3.7526,-3.6119,-3.4523,-3.297,-3.2676,-3.2133,-3.0881,-3.0847,-3.0688,-3.0117,-3.0273,-3.0398,-3.0398,-3.0398,-3.0398,-3.0398,-3.0398,-3.0398,-3.0398,-3.0436,-3.0494,-3.0533,-3.1371,-3.1371,-3.0609,-3.141,-3.1795,-4.0375,-4.3172,-4.5179,-4.5602,-4.6549,-4.6769,-4.4519,-4.342,-4.21,-3.9309,-3.6654,-3.4218,0.0,0.0,0.0,-3.4303,-3.7195,0.0,-4.1999,-4.3758,0.0,0.0,0.0,-4.3775,-4.3183,-4.3132,0.0,0.0,-4.2895,-4.342,-4.342,-4.4147,-4.4587,-4.4587,-4.4587,-4.484,-4.5415,-4.5874,-4.5818,-4.5267,-4.5217,-4.5114,-4.4974,-4.4768,-4.406,-4.2964,-4.3891,-4.3573,-4.2519,-4.3087,-4.3286,-4.3286,-4.3444,-4.3497,-4.3497,-4.3497,-4.3497,-4.3497,-4.3497,-4.3497,-4.3497,-4.3497,-4.3497,-4.3497,-4.3497,-4.3142,-4.2714,-4.2629,-4.2481,-4.2425,-4.2556,-4.2904,-4.324,-4.3442,-4.3332,-4.324,-4.3442,-4.3167,-4.2947,-4.3149,-4.2378,-4.1313,-4.0102,-3.9551,-3.8872,-3.7661,-3.6615,-3.5671,-3.4872,-3.3672,-3.284,-3.271,-3.1782,-3.1134,-3.0986,-3.0618,-3.0398,-3.0398,-3.0398,-3.0398,-3.0398,-3.0398,-3.0398,-3.0398,-3.1044,-3.166,-3.2256,-3.2487,-3.2814,-3.3218,-3.2795,-3.2929,-4.347,-4.5754,-4.7259,-4.7175,-4.7056,-4.6244,-4.3538,-4.1339,-3.9022,-3.6045,-3.3051,0.0,0.0,0.0,0.0,0.0,0.0,0.0,-4.1373,-4.32,-4.4299,0.0,-4.4587,0.0,-4.3978,-4.4231,-4.4113,0.0,-4.369,-4.3775,-4.3436,-4.4147,-4.4587,-4.4587,-4.4891,-4.5432,-4.6177,-4.7086,-4.7038,-4.5996,-4.6572,-4.6544,-4.5865,-4.5865,-4.5365,-4.4534,0.0,-4.4473,-4.356,-4.3521,-4.3497,-4.3497,-4.3497,-4.3497,-4.3497,-4.3497,-4.3497,-4.3497,-4.3497,-4.3497,-4.3497,-4.3497,-4.3497,-4.3497,-4.3497,-4.3142,-4.275,-4.2976,-4.2902,-4.2732,-4.2976,-4.325,-4.3497,-4.3497,-4.3497,-4.3497,-4.3497,-4.3497,-4.3387,-4.3039,-4.2598,-4.1901,-4.0634,-4.012,-3.9588,-3.867,-3.7661,-3.6949,-3.6756,-3.4853,-3.3559,-3.3581,-3.2866,-3.229,-3.2015,-3.1687,-3.1352,-3.0987,-3.0968,-3.0814,-3.0417,-3.0398,-3.0398,-3.0398,-3.1256,-3.1929,-3.2372,-3.3103,-3.3526,-3.3622,-3.3122,-3.3372,-4.6177,-4.7479,-4.8173,-4.8612,-4.7124,-4.4874,-4.2286,-3.8988,-3.5588,-3.2476,0.0,-2.7603,-2.7519,0.0,-2.73,-3.1579,0.0,-3.5571,-4.051,-4.2016,-4.3081,-4.4418,-4.4756,-4.4874,-4.4874,-4.5466,-4.5591,-4.4924,-4.4873,-4.4478,-4.3623,-4.4215,-4.4626,-4.472,-4.5507,-4.6243,-4.689,-4.8137,-4.8123,-4.6864,-4.7936,-4.777,-4.6524,-4.6524,-4.6391,-4.6194,0.0,0.0,-4.4654,-4.3956,-4.3589,-4.3497,-4.3497,-4.3497,-4.3497,-4.3497,-4.3497,-4.3497,-4.3497,-4.3497,-4.3497,-4.3497,-4.3497,-4.3497,-4.3497,-4.3178,-4.2902,-4.3375,-4.3178,-4.2902,-4.3375,-4.3497,-4.3497,-4.3497,-4.3497,-4.3497,-4.3497,-4.3497,-4.3277,-4.2598,-4.2451,-4.2194,-4.1405,-4.0689,-4.0171,-3.9963,-3.8887,-3.8134,-3.8331,-3.6179,-3.4534,-3.4227,-3.4105,-3.3765,-3.3128,-3.2968,-3.2602,-3.191,-3.1852,-3.1525,-3.0775,-3.0629,-3.0571,-3.0571,-3.1314,-3.1698,-3.1698,-3.316,-3.3583,-3.3064,-3.2949,-3.343,-4.7259,-4.8257,-4.8562,-4.7445,-4.5974,-4.369,-3.9597,-3.6705,0.0,0.0,0.0,-2.6708,-2.6099,-2.6793,0.0,-3.1749,0.0,0.0,0.0,0.0,-4.4282,0.0,0.0,0.0,0.0,0.0,0.0,0.0,0.0,0.0,-4.4473,-4.4502,-4.4814,-4.532,-4.6601,-4.736,-4.755,-4.8211,-4.8479,-4.8245,-4.7803,-4.7468,-4.7237,-4.7237,-4.6866,-4.6212,0.0,0.0,-4.4709,-4.4562,-4.4103,-4.3497,-4.3497,-4.3497,-4.3497,-4.3497,-4.3497,-4.3497,-4.3497,-4.3497,-4.3497,-4.3497,-4.3497,-4.3497,-4.3497,-4.3444,-4.3375,-4.3479,-4.3444,-4.3375,-4.3497,-4.3497,-4.3497,-4.3497,-4.3497,-4.3497,-4.3497,-4.3497,-4.3442,-4.3314,-4.3277,-4.3039,-4.2231,-4.1974,-4.1517,-4.0399,-3.9454,-3.8865,-3.8724,-3.7719,-3.6802,-3.6262,-3.5605,-3.487,-3.4045,-3.3314,-3.2833,-3.2699,-3.2699,-3.2622,-3.2468,-3.1833,-3.1468,-3.1468,-3.1621,-3.1698,-3.1698,-3.1987,-3.2776,-3.3949,-3.3237,-3.3757,-4.7513,-4.8443,-4.8748,-4.7648,-4.5365,-4.2219,-3.7736,0.0,0.0,0.0,0.0,-2.4588,-2.5223,0.0,0.0,0.0,0.0,0.0,0.0,0.0,0.0,0.0,0.0,0.0,0.0,0.0,0.0,0.0,0.0,0.0,-4.5615,-4.5563,-4.5873,-4.6578,-4.7245,-4.778,-4.8236,-4.8808,-4.8928,-4.8532,-4.8551,-4.8316,-4.7856,-4.7856,-4.7638,-4.7314,-4.7165,0.0,-4.5296,-4.4874,-4.4232,-4.3497,-4.3497,-4.3497,-4.3497,-4.3497,-4.3497,-4.3497,-4.3497,-4.3497,-4.3497,-4.3497,-4.3497,-4.3497,-4.3497,-4.3497,-4.3497,-4.3497,-4.3497,-4.3497,-4.3497,-4.3497,-4.3497,-4.3497,-4.3497,-4.3497,-4.3497,-4.3497,-4.3497,-4.3497,-4.3497,-4.3369,-4.2983,-4.2724,-4.2205,-4.1128,-4.0572,-4.0056,-3.9547,-3.9275,-3.8492,-3.6877,-3.6353,-3.5795,-3.4949,-3.4487,-3.4064,-3.3603,-3.3583,-3.3179,-3.2314,-3.2314,-3.191,-3.1044,-3.1891,-3.2122,-3.1698,-3.2122,-3.2968,-3.418,-3.3314,-3.3833,-4.7276,-4.8325,-4.8798,-4.7902,-4.484,-4.0849,-3.6288,-3.2055,0.0,0.0,-2.3482,-2.3226,-2.5084,0.0,0.0,0.0,0.0,0.0,0.0,0.0,0.0,0.0,0.0,0.0,0.0,0.0,0.0,0.0,0.0,0.0,0.0,-4.6524,-4.6902,-4.756,-4.7672,-4.8139,-4.8877,-4.9226,-4.9159,-4.8724,-4.9135,-4.8948,-4.8306,-4.8306,-4.8306,-4.8269,-4.7645,0.0,0.0,-4.5296,-4.458,-4.3975,-4.3626,-4.3608,-4.3736,-4.3552,-4.3497,-4.3497,-4.3497,-4.3497,-4.3497,-4.3497,-4.3497,-4.3497,-4.3497,-4.3497,-4.3497,-4.3497,-4.3497,-4.3497,-4.3497,-4.3497,-4.3497,-4.3497,-4.3497,-4.3497,-4.3497,-4.3497,-4.3513,-4.3597,-4.3597,-4.3612,-4.3712,-4.3434,-4.2885,-4.1921,-4.1665,-4.1207,-4.031,-4.0372,-3.9662,-3.7488,-3.7257,-3.6853,-3.5853,-3.5757,-3.5391,-3.4526,-3.4468,-3.3891,-3.2564,-3.2949,-3.2564,-3.1237,-3.2314,-3.2506,-3.1698,-3.2506,-3.3256,-3.391,-3.341,-3.4007,-4.6498,-4.7936,-4.8663,-4.7242,-4.4079,-4.0052,-3.5172,0.0,0.0,-2.5024,-2.4007,-2.4344,-2.6194,-2.5414,0.0,0.0,0.0,0.0,0.0,0.0,0.0,0.0,0.0,0.0,0.0,0.0,0.0,0.0,0.0,0.0,0.0,-4.6955,-4.7317,-4.7407,-4.7966,-4.8645,-4.9486,-4.8776,-4.8779,-4.9475,-4.8744,-4.8379,-4.8306,-4.8306,-4.8306,-4.8306,0.0,0.0,0.0,-4.6122,-4.5755,-4.5535,-4.4066,-4.3956,-4.4507,-4.3754,-4.3497,-4.3497,-4.3497,-4.3497,-4.3497,-4.3497,-4.3497,-4.3497,-4.3497,-4.3497,-4.3497,-4.3497,-4.3497,-4.3497,-4.3497,-4.3497,-4.3497,-4.3497,-4.3497,-4.3497,-4.3497,-4.3497,-4.3597,-4.3893,-4.3955,-4.4076,-4.4447,-4.4471,-4.397,-4.2623,-4.2404,-4.1915,-4.0633,-4.0489,-4.0123,-3.9161,-3.9065,-3.8392,-3.6738,-3.6603,-3.6238,-3.543,-3.5391,-3.5315,-3.5161,-3.4468,-3.4007,-3.3853,-3.3218,-3.2506,-3.1698,-3.2506,-3.2949,-3.3045,-3.3737,-3.4584,-4.4113,-4.6515,-4.7986,-4.6515,-4.3318,-3.9357,-3.4922,0.0,0.0,-2.4249,-2.3957,-2.4653,-2.6083,-2.5685,-2.6204,0.0,0.0,0.0,0.0,0.0,0.0,0.0,0.0,0.0,0.0,0.0,0.0,0.0,0.0,0.0,0.0,-4.8325,-4.7937,-4.7937,-4.8172,-4.8471,-4.8802,-4.8471,-4.8471,-4.8802,-4.8471,-4.8306,-4.8306,-4.8306,-4.8306,-4.8306,0.0,0.0,0.0,-4.6764,-4.6067,-4.5112,-4.447,-4.4121,-4.3938,-4.3608,-4.3497,-4.3497,-4.3497,-4.3497,-4.3497,-4.3497,-4.3497,-4.3497,-4.3497,-4.3497,-4.3497,-4.3497,-4.3497,-4.3497,-4.3497,-4.3497,-4.3497,-4.3497,-4.3497,-4.3497,-4.3497,-4.3646,-4.3818,-4.3986,-4.4223,-4.4419,-4.458,-4.4776,-4.4543,-4.3433,-4.3043,-4.2483,-4.1415,-4.0816,-4.0373,-4.0046,-3.9585,-3.8815,-3.7584,-3.7007,-3.6565,-3.6238,-3.5776,-3.5257,-3.4737,-3.4891,-3.4487,-3.343,-3.3583,-3.3276,-3.2429,-3.2737,-3.316,-3.368,-3.4026,-3.4661,-4.1102,-4.413,-4.6329,-4.5297,-4.1968,-3.8018,0.0,0.0,0.0,-2.4272,-2.42,-2.4939,-2.6177,-2.6161,-2.6583,-2.8506,0.0,-2.7476,0.0,0.0,0.0,0.0,0.0,0.0,0.0,0.0,0.0,0.0,0.0,0.0,0.0,-4.9352,-4.8416,-4.8673,-4.8434,-4.8306,-4.8306,-4.8306,-4.8306,-4.8306,-4.8306,-4.8306,-4.8306,-4.8306,-4.8306,-4.8306,0.0,0.0,0.0,-4.7223,-4.6452,-4.5369,-4.4892,-4.436,-4.3828,-4.3589,-4.3497,-4.3497,-4.3497,-4.3497,-4.3497,-4.3497,-4.3497,-4.3497,-4.3497,-4.3497,-4.3497,-4.3497,-4.3497,-4.3497,-4.3497,-4.3497,-4.3497,-4.3497,-4.3497,-4.3497,-4.3497,-4.3679,-4.3912,-4.4136,-4.4419,-4.4657,-4.4853,-4.5096,-4.4956,-4.4075,-4.3673,-4.3143,-4.2297,-4.1412,-4.0873,-4.0873,-4.0142,-3.9296,-3.845,-3.7584,-3.6969,-3.6719,-3.5949,-3.5218,-3.4603,-3.518,-3.493,-3.3699,-3.4276,-3.416,-3.3295,-3.3545,-3.3853,-3.4199,-3.4449,-3.4911,-3.7533,-4.0663,-4.3453,-4.3453,-3.9742,-3.5614,0.0,0.0,0.0,-2.5468,-2.5139,-2.5371,-2.6922,-2.6977,-2.7157,-2.8242,-2.7709,0.0,0.0,0.0,0.0,0.0,0.0,0.0,0.0,0.0,0.0,0.0,0.0,0.0,0.0,0.0,-4.8691,-4.9536,-4.8746,-4.8306,-4.8306,-4.8306,-4.8306,-4.8306,-4.8306,-4.8306,-4.8306,-4.8306,-4.8306,0.0,0.0,0.0,0.0,-4.7443,-4.7075,-4.6929,-4.5333,-4.4709,-4.4599,-4.3791,-4.3497,-4.3497,-4.3497,-4.3497,-4.3497,-4.3497,-4.3497,-4.3497,-4.3497,-4.3497,-4.3497,-4.3497,-4.3497,-4.3497,-4.3497,-4.3497,-4.3497,-4.3497,-4.3497,-4.3497,-4.3497,-4.3479,-4.3712,-4.4447,-4.4599,-4.4806,-4.5476,-4.5586,-4.5297,-4.4432,-4.4297,-4.3989,-4.3181,-4.2335,-4.1797,-4.1797,-4.1008,-4.0162,-3.9354,-3.8488,-3.7623,-3.6757,-3.5949,-3.5507,-3.5488,-3.5507,-3.5474,-3.5455,-3.5488,-3.5064,-3.418,-3.5045,-3.5026,-3.4218,-3.5084,-3.5474,-3.2763,-3.5284,-3.7195,-3.6705,-3.4815,-3.2576,-3.0641,0.0,0.0,-2.4426,-2.4828,-2.5465,-2.5946,-2.6863,-2.7913,-2.9035,-2.8997,0.0,0.0,0.0,0.0,0.0,0.0,0.0,0.0,0.0,0.0,0.0,0.0,0.0,0.0,0.0,-4.8691,-4.9554,-4.8746,-4.8306,-4.8306,-4.8306,-4.8306,-4.8306,-4.8306,-4.8306,-4.8306,-4.8306,0.0,0.0,0.0,0.0,0.0,-4.7223,-4.6471,-4.5424,-4.4911,-4.436,-4.3846,-4.3589,-4.3497,-4.3497,-4.3497,-4.3497,-4.3497,-4.3497,-4.3497,-4.3497,-4.3497,-4.3497,-4.3497,-4.3497,-4.3497,-4.3497,-4.3497,-4.3497,-4.3497,-4.3497,-4.3497,-4.3497,-4.3497,-4.3918,-4.4308,-4.4553,-4.4966,-4.5342,-4.5568,-4.5586,-4.5509,-4.522,-4.4682,-4.4201,-4.3951,-4.3201,-4.2701,-4.2701,-4.1912,-4.1046,-4.0181,-3.9354,-3.8527,-3.7642,-3.6796,-3.6084,-3.5512,-3.5493,-3.5493,-3.5493,-3.5493,-3.5372,-3.5084,-3.5372,-3.5372,-3.5103,-3.5372,-3.5493,0.0,-3.114,-3.2797,-3.2611,-3.1274,0.0,0.0,0.0,0.0,-2.4414,-2.5177,-2.587,-2.5729,-2.6877,-2.8047,-2.8601,-2.8558,0.0,0.0,0.0,0.0,0.0,0.0,0.0,0.0,0.0,0.0,0.0,0.0,0.0,0.0,0.0,-4.8691,-4.9554,-4.8746,-4.8306,-4.8306,-4.8306,-4.8306,-4.8306,-4.8306,-4.8306,-4.8306,-4.8306,0.0,0.0,0.0,0.0,0.0,-4.7113,-4.6159,-4.4709,-4.4709,-4.4213,-4.3497,-4.3497,-4.3497,-4.3497,-4.3497,-4.3497,-4.3497,-4.3497,-4.3497,-4.3497,-4.3497,-4.3497,-4.3497,-4.3497,-4.3497,-4.3497,-4.3497,-4.3497,-4.3497,-4.3497,-4.3497,-4.3497,-4.3497,-4.3943,-4.4419,-4.4553,-4.5033,-4.5438,-4.5586,-4.5586,-4.5586,-4.5586,-4.5143,-4.4778,-4.4778,-4.4066,-4.3547,-4.3547,-4.2797,-4.195,-4.1066,-3.995,-3.9065,-3.8527,-3.7353,-3.6488,-3.5968,-3.5661,-3.5493,-3.5493,-3.5493,-3.5493,-3.5493,-3.5493,-3.5493,-3.5493,-3.5493,-3.5493,0.0,0.0,0.0,0.0,0.0,0.0,0.0,0.0,0.0,0.0,0.0,0.0,-2.6087,-2.6968,-2.7666,-2.7495,-2.7196,0.0,0.0,0.0,0.0,0.0,0.0,0.0,0.0,0.0,0.0,0.0,0.0,0.0,0.0,0.0,0.0,-4.9462,-4.8728,-4.8306,-4.8306,-4.8306,-4.8306,-4.8306,-4.8251,-4.8214,-4.8214,-4.8214,0.0,0.0,0.0,0.0,0.0,-4.6966,-4.603,-4.4617,-4.4617,-4.4158,-4.3497,-4.3497,-4.3497,-4.3497,-4.3497,-4.3497,-4.3497,-4.3497,-4.3497,-4.3497,-4.3497,-4.3497,-4.3497,-4.3497,-4.3497,-4.3497,-4.3497,-4.3497,-4.3497,-4.3497,-4.3497,-4.3497,-4.3497,-4.3772,-4.4146,-4.4527,-4.4896,-4.5222,-4.555,-4.5586,-4.5586,-4.5586,-4.5586,-4.5586,-4.5586,-4.4893,-4.4393,-4.4393,-4.3662,-4.2835,-4.197,-4.0412,-3.9431,-3.9296,-3.7719,-3.6757,-3.6699,-3.593,-3.5493,-3.5493,-3.5493,-3.5493,-3.5493,-3.5493,-3.5493,-3.5493,-3.5493,-3.5493,-2.3156,0.0,-2.4188,-2.4357,-2.4064,0.0,0.0,0.0,0.0,0.0,0.0,0.0,0.0,0.0,0.0,0.0,0.0,0.0,0.0,0.0,0.0,0.0,0.0,0.0,0.0,0.0,0.0,0.0,0.0,0.0,0.0,0.0,0.0,-4.86,-4.8416,-4.8306,-4.8306,-4.8306,-4.8306,-4.8306,-4.77,-4.7388,-4.7388,-4.7388,0.0,0.0,0.0,0.0,-4.614,-4.5535,-4.469,-4.3773,-4.3773,-4.3663,-4.3497,-4.3497,-4.3497,-4.3497,-4.3497,-4.3497,-4.3497,-4.3497,-4.3497,-4.3497,-4.3497,-4.3497,-4.3497,-4.3497,-4.3497,-4.3497,-4.3497,-4.3497,-4.3497,-4.3497,-4.3497,-4.3497,-4.3497,-4.4004,-4.4501,-4.458,-4.5096,-4.5513,-4.5586,-4.5586,-4.5586,-4.5586,-4.5586,-4.5586,-4.5586,-4.5413,-4.5278,-4.5278,-4.4528,-4.3682,-4.2854,-4.1816,-4.0662,-3.9373,-3.8296,-3.7411,-3.6738,-3.593,-3.5493,-3.5493,-3.5493,-3.5493,-3.5493,-3.5493,-3.5493,-3.5493,-3.5493,-3.5493,-2.2686,-2.2747,-2.2745,-2.2521,-2.2757,-2.3057,0.0,0.0,0.0,0.0,0.0,0.0,0.0,0.0,0.0,0.0,0.0,0.0,0.0,0.0,0.0,0.0,0.0,0.0,0.0,0.0,0.0,0.0,0.0,0.0,0.0,0.0,0.0,0.0,-4.8306,-4.8306,-4.8306,-4.8306,-4.8122,-4.7755,-4.7333,-4.6929,-4.6562,-4.6562,0.0,0.0,0.0,0.0,-4.5333,-4.4892,-4.4232,-4.3497,-4.3497,-4.3497,-4.3497,-4.3497,-4.3497,-4.3497,-4.3497,-4.3497,-4.3497,-4.3497,-4.3497,-4.3497,-4.3497,-4.3497,-4.3497,-4.3497,-4.3497,-4.3497,-4.3497,-4.3497,-4.3589,-4.3956,-4.4048,-4.4048,-4.4048,-4.4643,-4.5051,-4.4655,-4.514,-4.5586,-4.5586,-4.5586,-4.5586,-4.5586,-4.5586,-4.5586,-4.5586,-4.5586,-4.5586,-4.5586,-4.5182,-4.4547,-4.372,-4.2874,-4.1662,-3.995,-3.8681,-3.7796,-3.7315,-3.6488,-3.6065,-3.6065,-3.5699,-3.5493,-3.5493,-3.5493,-3.5493,-3.5493,-3.5493,-3.5493,-2.3117,-2.3537,-2.3722,-2.2955,-2.3185,-2.3509,-2.3312,0.0,0.0,0.0,0.0,0.0,0.0,0.0,0.0,0.0,0.0,0.0,0.0,0.0,0.0,0.0,0.0,0.0,0.0,0.0,0.0,0.0,0.0,0.0,0.0,0.0,0.0,-4.8306,-4.8306,-4.8251,-4.8122,-4.8122,-4.7774,-4.7113,-4.6837,-4.6397,-4.5718,-4.5718,-4.5718,0.0,0.0,0.0,-4.4709,-4.458,-4.4121,-4.3497,-4.3497,-4.3497,-4.3497,-4.3497,-4.3497,-4.3497,-4.3497,-4.3497,-4.3497,-4.3497,-4.3497,-4.3497,-4.3497,-4.3497,-4.3497,-4.3497,-4.3497,-4.3497,-4.3497,-4.3497,-4.3699,-4.4525,-4.4709,-4.4709,-4.4709,-4.5264,-4.5553,-4.4749,-4.514,-4.5586,-4.5586,-4.5586,-4.5586,-4.5586,-4.5586,-4.5586,-4.5586,-4.5586,-4.5586,-4.5586,-4.5586,-4.524,-4.4374,-4.3682,-4.2547,-4.0796,-3.9123,-3.8142,-3.8007,-3.7161,-3.6699,-3.6699,-3.5911,-3.5493,-3.5493,-3.5493,-3.5551,-3.568,-3.568,-3.5757,-2.3189,-2.4713,-2.5773,-2.3647,-2.3693,-2.4155,-2.3723,0.0,0.0,0.0,0.0,0.0,0.0,0.0,0.0,0.0,0.0,0.0,0.0,0.0,0.0,0.0,0.0,0.0,0.0,0.0,0.0,0.0,0.0,0.0,0.0,0.0,0.0,-4.8306,-4.8306,-4.7976,-4.7297,-4.7297,-4.7241,-4.7095,-4.5736,-4.5002,-4.4892,-4.4892,-4.4892,0.0,0.0,-4.4819,-4.4654,-4.3975,-4.3608,-4.3497,-4.3497,-4.3497,-4.3497,-4.3497,-4.3497,-4.3497,-4.3497,-4.3497,-4.3497,-4.3497,-4.3497,-4.3497,-4.3497,-4.3497,-4.3497,-4.3497,-4.3497,-4.3497,-4.3497,-4.3497,-4.3699,-4.4525,-4.4709,-4.4709,-4.4709,-4.5264,-4.5553,-4.4749,-4.514,-4.5586,-4.5586,-4.5586,-4.5586,-4.5586,-4.5586,-4.5586,-4.5586,-4.5586,-4.5586,-4.5586,-4.5586,-4.524,-4.4374,-4.4182,-4.3393,-4.172,-4.0027,-3.8757,-3.8027,-3.7161,-3.6699,-3.6699,-3.5911,-3.5493,-3.5493,-3.5493,-3.5853,-3.6526,-3.6526,-3.6911,-2.3692,-2.4874,-2.5778,-2.4679,-2.5709,-2.6623,-2.5288,0.0,0.0,0.0,0.0,0.0,0.0,0.0,0.0,0.0,0.0,0.0,0.0,0.0,0.0,0.0,0.0,0.0,0.0,0.0,0.0,0.0,0.0,0.0,0.0,0.0,0.0,0.0,-4.7884,-4.748,-4.7113,-4.625,-4.581,-4.581,-4.5247,-4.4657,-4.4048,-4.4232,-4.4232,-4.4048,0.0,-4.4048,-4.4011,-4.3644,-4.3497,-4.3497,-4.3497,-4.3497,-4.3497,-4.3497,-4.3497,-4.3497,-4.3497,-4.3497,-4.3497,-4.3497,-4.3497,-4.3497,-4.3497,-4.3497,-4.3497,-4.3497,-4.3497,-4.3497,-4.3497,-4.3497,-4.3809,-4.5057,-4.5351,-4.5351,-4.5351,-4.5916,-4.6081,-4.4825,-4.514,-4.5586,-4.5586,-4.5586,-4.5586,-4.5586,-4.5586,-4.5586,-4.5586,-4.5586,-4.5586,-4.5586,-4.5586,-4.5432,-4.5028,-4.4566,-4.3374,-4.1219,-3.9969,-3.9123,-3.8719,-3.7873,-3.7411,-3.7411,-3.6584,-3.593,-3.5493,-3.5949,-3.6353,-3.6719,-3.718,-3.7623,-2.4132,-2.4905,-2.5585,-2.5219,0.0,-2.8092,-2.7254,0.0,0.0,0.0,0.0,0.0,0.0,0.0,0.0,0.0,0.0,0.0,0.0,0.0,0.0,0.0,0.0,0.0,0.0,0.0,0.0,0.0,0.0,0.0,0.0,0.0,0.0,0.0,-4.715,-4.6746,-4.6562,-4.5333,-4.4709,-4.4709,-4.4757,-4.4332,-4.3532,-4.3791,-4.3758,-4.3497,-4.3497,-4.3497,-4.3497,-4.3497,-4.3497,-4.3497,-4.3497,-4.3497,-4.3497,-4.3497,-4.3497,-4.3497,-4.3497,-4.3497,-4.3497,-4.3497,-4.3497,-4.3497,-4.3497,-4.3497,-4.3497,-4.3497,-4.3497,-4.3497,-4.3497,-4.371,-4.4241,-4.5589,-4.6044,-4.6112,-4.6044,-4.6464,-4.6414,-4.4991,-4.5201,-4.5586,-4.5586,-4.5586,-4.5586,-4.5586,-4.5586,-4.5586,-4.5586,-4.5586,-4.5586,-4.5586,-4.5586,-4.5586,-4.5586,-4.4797,-4.347,-4.1508,-4.0431,-3.9892,-3.9892,-3.8873,-3.8296,-3.8296,-3.745,-3.6699,-3.6103,-3.6699,-3.7123,-3.7315,-3.7988,-3.8411,-2.419,-2.5328,-2.6172,-2.4667,-2.4996,0.0,-2.9269,-2.941,0.0,-3.2735,0.0,0.0,0.0,0.0,0.0,0.0,0.0,0.0,0.0,0.0,0.0,0.0,0.0,0.0,0.0,0.0,0.0,0.0,0.0,0.0,0.0,0.0,0.0,0.0,0.0,-4.5626,-4.4892,-4.4764,-4.4709,-4.4709,-4.3973,-4.3569,-4.3497,-4.3513,-4.3513,-4.3497,-4.3497,-4.3497,-4.3497,-4.3497,-4.3497,-4.3497,-4.3497,-4.3497,-4.3497,-4.3497,-4.3497,-4.3497,-4.3497,-4.3497,-4.3497,-4.3497,-4.3497,-4.3497,-4.3497,-4.3497,-4.3497,-4.3497,-4.3497,-4.3497,-4.3497,-4.4313,-4.53,-4.5771,-4.6424,-4.6815,-4.6438,-4.6355,-4.6096,-4.5224,-4.5342,-4.5586,-4.5586,-4.5586,-4.5586,-4.5586,-4.5586,-4.5586,-4.5586,-4.5586,-4.5586,-4.5586,-4.5586,-4.5586,-4.5586,-4.4797,-4.422,-4.4047,-4.2508,-4.1623,-4.1623,-4.0065,-3.92,-3.92,-3.8354,-3.7873,-3.7815,-3.7873,-3.8315,-3.9104,-3.9181,-3.9604,-2.419,-2.5364,-2.6337,-2.5217,-2.5915,0.0,0.0,-3.1494,-3.2632,0.0,0.0,0.0,0.0,0.0,0.0,0.0,0.0,0.0,0.0,0.0,0.0,0.0,0.0,0.0,0.0,0.0,0.0,0.0,0.0,0.0,0.0,0.0,0.0,0.0,0.0,-4.5021,-4.4709,-4.4195,-4.3956,-4.3938,-4.3841,-4.3693,-4.3532,-4.3726,-4.3693,-4.3497,-4.3497,-4.3497,-4.3497,-4.3497,-4.3497,-4.3497,-4.3497,-4.3497,-4.3497,-4.3497,-4.3497,-4.3497,-4.3497,-4.3497,-4.3497,-4.3497,-4.3497,-4.3497,-4.3497,-4.3497,-4.3497,-4.3497,-4.3497,-4.3608,-4.4121,-4.4573,-4.5149,-4.6012,-4.6406,-4.6506,-4.6109,-4.6164,-4.6066,-4.5268,-4.5362,-4.5586,-4.5586,-4.5586,-4.5586,-4.5586,-4.5586,-4.5586,-4.5586,-4.5586,-4.5586,-4.5586,-4.5586,-4.5586,-4.5586,-4.5297,-4.5105,-4.5105,-4.3547,-4.2604,-4.2604,-4.2008,-4.1412,-4.0873,-4.0527,-3.9854,-3.8815,-3.9315,-3.9469,-3.9296,-3.9796,-4.02,-2.419,-2.4997,-2.5788,0.0,0.0,0.0,-3.1937,-3.3482,-3.4963,0.0,0.0,0.0,0.0,0.0,0.0,0.0,0.0,0.0,0.0,0.0,0.0,0.0,0.0,0.0,0.0,0.0,0.0,0.0,0.0,0.0,0.0,0.0,0.0,0.0,0.0,0.0,-4.4323,-4.3773,-4.3497,-4.3479,-4.3726,-4.3726,-4.3532,-4.3758,-4.3726,-4.3532,-4.3612,-4.3597,-4.3532,-4.3612,-4.3597,-4.3497,-4.3497,-4.3497,-4.3497,-4.3497,-4.3497,-4.3497,-4.3497,-4.3497,-4.3497,-4.3497,-4.3497,-4.3497,-4.3497,-4.3497,-4.3534,-4.3809,-4.3699,-4.3736,-4.48,-4.5047,-4.5278,-4.6206,-4.651,-4.6533,-4.6365,-4.6206,-4.5931,-4.5357,-4.5438,-4.5586,-4.5586,-4.5586,-4.5586,-4.5586,-4.5586,-4.5586,-4.5586,-4.5586,-4.5586,-4.5586,-4.5586,-4.5586,-4.5586,-4.5586,-4.5586,-4.5586,-4.4509,-4.3758,-4.3489,-4.3239,-4.2816,-4.222,-4.195,-4.1373,-4.0489,-4.0489,-4.0354,-4.0104,-4.0373,-4.0489,-2.419,-2.4208,-2.4468,0.0,0.0,0.0,0.0,0.0,0.0,0.0,0.0,0.0,0.0,0.0,0.0,0.0,0.0,0.0,0.0,0.0,0.0,0.0,0.0,0.0,0.0,0.0,0.0,0.0,0.0,0.0,0.0,0.0,0.0,0.0,0.0,0.0,-4.3497,-4.3497,-4.3497,-4.3497,-4.3497,-4.3497,-4.3497,-4.3497,-4.3497,-4.3513,-4.3849,-4.3804,-4.3548,-4.3849,-4.3804,-4.3497,-4.3497,-4.3497,-4.3497,-4.3497,-4.3497,-4.3497,-4.3497,-4.3497,-4.3497,-4.3497,-4.3497,-4.3497,-4.3497,-4.3479,-4.3663,-4.447,-4.4121,-4.3846,-4.5461,-4.5842,-4.5894,-4.6389,-4.6695,-4.7012,-4.7411,-4.6491,-4.5586,-4.5586,-4.5586,-4.5586,-4.5586,-4.5586,-4.5586,-4.5586,-4.5586,-4.5586,-4.5586,-4.5586,-4.5586,-4.5586,-4.5586,-4.5586,-4.5586,-4.5586,-4.5586,-4.5586,-4.5586,-4.5201,-4.4355,-4.3547,-4.3124,-4.3124,-4.2277,-4.2258,-4.3104,-4.1373,-4.095,-4.1777,-4.0912,-4.0489,-2.419,-2.5034,0.0,0.0,0.0,0.0,0.0,0.0,0.0,0.0,0.0,0.0,0.0,0.0,0.0,0.0,0.0,0.0,0.0,0.0,0.0,0.0,0.0,0.0,0.0,0.0,0.0,0.0,0.0,0.0,0.0,0.0,0.0,0.0,0.0,0.0,-4.3497,-4.3497,-4.3497,-4.3497,-4.3497,-4.3497,-4.3497,-4.3497,-4.3497,-4.3513,-4.3849,-4.3955,-4.3849,-4.3955,-4.3804,-4.3497,-4.3497,-4.3497,-4.3497,-4.3497,-4.3497,-4.3497,-4.3497,-4.3497,-4.3497,-4.3497,-4.3497,-4.3497,-4.3497,-4.366,-4.3841,-4.3876,-4.3863,-4.3961,-4.4443,-4.4766,-4.5119,-4.5857,-4.6252,-4.643,-4.6205,-4.5859,-4.5586,-4.5586,-4.5586,-4.5586,-4.5586,-4.5586,-4.5586,-4.5586,-4.5586,-4.5586,-4.5586,-4.5586,-4.5586,-4.5586,-4.5586,-4.5586,-4.5586,-4.5586,-4.5586,-4.5586,-4.5586,-4.547,-4.522,-4.4989,-4.4855,-4.4855,-4.4605,-4.4297,-4.3932,-4.2854,-4.2143,-4.1777,-4.0912,-4.0489,-2.4321,0.0,0.0,0.0,0.0,0.0,0.0,0.0,0.0,0.0,0.0,0.0,0.0,0.0,0.0,0.0,0.0,0.0,0.0,0.0,0.0,0.0,0.0,0.0,0.0,0.0,0.0,0.0,0.0,0.0,0.0,0.0,0.0,0.0,0.0,0.0,-4.302,-4.3332,-4.3497,-4.3497,-4.3497,-4.3497,-4.3497,-4.3497,-4.3497,-4.3513,-4.3726,-4.3974,-4.4223,-4.3912,-4.366,-4.3497,-4.3497,-4.3497,-4.3497,-4.3497,-4.3497,-4.3497,-4.3497,-4.3597,-4.3693,-4.3693,-4.3823,-4.3931,-4.3931,-4.4095,-4.425,-4.4383,-4.4216,-4.4121,-4.4587,-4.4664,-4.4839,-4.5773,-4.6024,-4.6051,-4.6088,-4.5836,-4.5586,-4.5586,-4.5586,-4.5586,-4.5586,-4.5586,-4.5586,-4.5586,-4.5586,-4.5586,-4.5586,-4.5586,-4.5586,-4.5586,-4.5586,-4.5586,-4.5586,-4.5586,-4.5586,-4.5586,-4.5586,-4.5586,-4.5586,-4.5586,-4.5586,-4.5586,-4.5259,-4.4989,-4.4797,-4.3662,-4.2989,-4.2758,-4.1566,-4.1008,0.0,0.0,0.0,0.0,0.0,0.0,0.0,0.0,0.0,0.0,0.0,0.0,0.0,0.0,0.0,0.0,0.0,0.0,0.0,0.0,0.0,0.0,0.0,0.0,0.0,0.0,0.0,0.0,0.0,0.0,0.0,0.0,0.0,0.0,0.0,0.0,-4.2304,-4.302,-4.3424,0.0,-4.3497,-4.3497,-4.3497,-4.3497,-4.3477,-4.3437,-4.3511,-4.3875,-4.4388,-4.3786,-4.3513,-4.3497,-4.3497,-4.3497,-4.3479,-4.3548,-4.3548,-4.3548,-4.3582,-4.3804,-4.4058,-4.4058,-4.429,-4.458,-4.458,-4.4606,-4.4801,-4.5504,-4.4928,-4.4344,-4.545,-4.5172,-4.4921,-4.597,-4.5898,-4.5817,-4.6605,-4.6163,-4.5586,-4.5586,-4.5586,-4.5586,-4.5586,-4.5586,-4.5586,-4.5586,-4.5586,-4.5586,-4.5586,-4.5586,-4.5586,-4.5586,-4.5586,-4.5586,-4.5586,-4.5586,-4.5586,-4.5586,-4.5586,-4.5586,-4.5586,-4.5586,-4.5586,-4.5586,-4.4816,-4.4797,-4.5586,-4.3989,-4.3585,-4.4259,-4.2662,-4.1893,0.0,-2.574,0.0,0.0,0.0,0.0,0.0,0.0,0.0,0.0,0.0,0.0,0.0,0.0,0.0,0.0,0.0,0.0,0.0,0.0,0.0,0.0,0.0,0.0,0.0,0.0,0.0,0.0,0.0,0.0,0.0,0.0,0.0,0.0,0.0,-4.1846,-4.2304,-4.247,-4.2873,0.0,-4.3497,-4.3497,-4.3497,-4.3497,-4.3295,-4.2983,-4.3633,-4.3613,-4.323,-4.3695,-4.3758,-4.3497,-4.3497,-4.3497,-4.3548,-4.3804,-4.3912,-4.3943,-4.4252,-4.4419,-4.4474,-4.4474,-4.4527,-4.458,-4.458,-4.4781,-4.4981,-4.4884,-4.4865,-4.4915,-4.5194,-4.5122,-4.5113,-4.563,-4.5666,-4.5643,-4.5836,-4.572,-4.5586,-4.5586,-4.5586,-4.5586,-4.5586,-4.5586,-4.5586,-4.5586,-4.5586,-4.5586,-4.5586,-4.5586,-4.5586,-4.5586,-4.5586,-4.5586,-4.5586,-4.5586,-4.5586,-4.5586,-4.5586,-4.5586,-4.5586,-4.5586,-4.5586,-4.5586,-4.5413,-4.5413,-4.5586,-4.4547,-4.4124,-4.4278,-4.3278,-4.245,0.0,0.0,0.0,0.0,0.0,0.0,0.0,0.0,0.0,0.0,0.0,0.0,0.0,0.0,0.0,0.0,0.0,0.0,0.0,0.0,0.0,0.0,0.0,0.0,0.0,0.0,0.0,0.0,0.0,0.0,0.0,0.0,0.0,0.0,-4.091,-4.113,-4.1148,-4.1919,-4.2506,-4.2928,-4.3314,-4.3296,-4.2928,-4.3314,-4.325,-4.2805,-4.3058,-4.2811,-4.2294,-4.2909,-4.3074,-4.2947,-4.3332,-4.3497,-4.3548,-4.3881,-4.4016,-4.4076,-4.4474,-4.4726,-4.4849,-4.4849,-4.4943,-4.5096,-4.5096,-4.5201,-4.5302,-4.514,-4.5096,-4.5159,-4.5302,-4.5222,-4.518,-4.5513,-4.5586,-4.5586,-4.5586,-4.5586,-4.5586,-4.5586,-4.5586,-4.5586,-4.5586,-4.5586,-4.5586,-4.5586,-4.5586,-4.5586,-4.5586,-4.5586,-4.5586,-4.5586,-4.5586,-4.5586,-4.5586,-4.5586,-4.5586,-4.5586,-4.5586,-4.5586,-4.5586,-4.5586,-4.5586,-4.5586,-4.5586,-4.5586,-4.5586,-4.5143,-4.4913,-4.4893,-4.4066,-4.322,0.0,0.0,0.0,0.0,0.0,0.0,0.0,0.0,0.0,0.0,0.0,0.0,0.0,0.0,0.0,0.0,0.0,0.0,0.0,0.0,0.0,0.0,0.0,0.0,0.0,0.0,0.0,0.0,0.0,0.0,0.0,0.0,-4.0175,-3.9496,-4.0267,-4.0432,-3.99,-4.1222,-4.1956,-4.2103,-4.2812,-4.2842,-4.2263,-4.2926,-4.2889,-4.2289,-4.2202,-4.1859,-4.1359,-4.1899,-4.2084,-4.2176,-4.3048,-4.3327,-4.3345,-4.3918,-4.4087,-4.4146,-4.4553,-4.4919,-4.5201,-4.5201,-4.5362,-4.5586,-4.5586,-4.5586,-4.5586,-4.5586,-4.54,-4.5243,-4.5513,-4.5381,-4.5262,-4.5531,-4.5586,-4.5586,-4.5586,-4.5586,-4.5586,-4.5586,-4.5586,-4.5586,-4.5586,-4.5586,-4.5586,-4.5586,-4.5586,-4.5586,-4.5586,-4.5586,-4.5586,-4.5586,-4.5586,-4.5586,-4.5586,-4.5586,-4.5586,-4.5586,-4.5586,-4.5586,-4.5586,-4.5586,-4.5586,-4.5586,-4.5586,-4.5586,-4.5586,-4.5586,-4.5509,-4.5355,-4.4778,-4.3932,0.0,0.0,0.0,0.0,0.0,0.0,0.0,0.0,0.0,0.0,0.0,0.0,0.0,0.0,0.0,0.0,0.0,0.0,0.0,0.0,0.0,0.0,0.0,0.0,0.0,0.0,0.0,0.0,0.0,0.0,0.0,-3.7588,-3.7918,-3.7808,-3.8597,-3.9294,-3.9882,-4.0102,-4.0579,-4.1277,-4.1662,-4.1913,-4.2036,-4.2149,-4.1502,-4.0357,-4.1297,-4.1119,-4.0197,-4.096,-4.1277,-4.1364,-4.2465,-4.2736,-4.2625,-4.4018,-4.4527,-4.458,-4.4919,-4.5243,-4.5531,-4.5531,-4.5568,-4.5586,-4.5586,-4.5586,-4.5586,-4.5586,-4.5568,-4.5531,-4.5586,-4.5568,-4.5531,-4.5586,-4.5586,-4.5586,-4.5586,-4.5586,-4.5586,-4.5586,-4.5586,-4.5586,-4.5586,-4.5586,-4.5586,-4.5586,-4.5586,-4.5586,-4.5586,-4.5586,-4.5586,-4.5586,-4.5586,-4.5586,-4.5586,-4.5586,-4.5586,-4.5586,-4.5586,-4.5586,-4.5586,-4.5586,-4.5586,-4.5586,-4.5586,-4.5586,-4.5586,-4.5586,-4.5201,-4.4489,-4.5124,-4.4182,0.0,0.0,0.0,0.0,0.0,0.0,0.0,0.0,0.0,0.0,0.0,0.0,0.0,0.0,0.0,0.0,0.0,0.0,0.0,0.0,0.0,0.0,0.0,0.0,0.0,0.0,0.0,0.0,0.0,0.0,-3.6303,-3.6633,-3.7019,-3.7477,-3.7404,-3.7955,-3.9221,-3.9239,-3.9952,-4.1385,-4.1707,-4.1687,-4.1324,-4.173,-4.1366,-4.0439,-4.0929,-4.0611,-3.9786,-4.0598,-4.1213,-4.1754,-4.2706,-4.3154,-4.3367,-4.4499,-4.4757,-4.4657,-4.5201,-4.5476,-4.5586,-4.5586,-4.5586,-4.5586,-4.5586,-4.5586,-4.5586,-4.5586,-4.5586,-4.5586,-4.5586,-4.5586,-4.5586,-4.5586,-4.5586,-4.5586,-4.5586,-4.597,-4.6336,-4.6336,-4.5932,-4.5586,-4.5586,-4.5586,-4.5586,-4.5586,-4.5586,-4.5586,-4.5586,-4.5586,-4.5586,-4.5586,-4.5586,-4.5586,-4.5586,-4.5586,-4.5586,-4.5586,-4.5586,-4.5586,-4.5586,-4.5586,-4.5586,-4.5586,-4.5586,-4.5586,-4.5586,-4.5586,-4.5143,-4.4316,-4.4682,-4.3778,0.0,0.0,0.0,0.0,0.0,0.0,0.0,0.0,0.0,0.0,0.0,0.0,0.0,0.0,0.0,0.0,0.0,0.0,0.0,0.0,0.0,0.0,0.0,0.0,0.0,0.0,0.0,0.0,0.0,0.0,-3.5349,-3.555,-3.6028,-3.6835,-3.6486,-3.6872,-3.8083,-3.8285,-3.9187,-4.0774,-4.1249,-4.1198,-4.0729,-4.1224,-4.1206,-4.0729,-4.064,-4.0231,-3.9656,-4.0481,-4.1222,-4.1901,-4.2919,-4.3517,-4.3905,-4.4569,-4.4732,-4.4657,-4.5161,-4.54,-4.5495,-4.5568,-4.5586,-4.5586,-4.5586,-4.5586,-4.5586,-4.5586,-4.5586,-4.5586,-4.5586,-4.5586,-4.5586,-4.5586,-4.5586,-4.5586,-4.5586,-4.6105,-4.6567,-4.6567,-4.6028,-4.5586,-4.5586,-4.5586,-4.5586,-4.5586,-4.5586,-4.5586,-4.5586,-4.5586,-4.5586,-4.5586,-4.5586,-4.5586,-4.5586,-4.5586,-4.5605,-4.5643,-4.5605,-4.5605,-4.5643,-4.5605,-4.5586,-4.5586,-4.5586,-4.5586,-4.5586,-4.5586,-4.5047,-4.3989,-4.4201,-4.3278,0.0,0.0,0.0,0.0,0.0,0.0,0.0,0.0,0.0,0.0,0.0,0.0,0.0,0.0,0.0,0.0,0.0,0.0,0.0,0.0,0.0,0.0,0.0,0.0,0.0,0.0,0.0,0.0,0.0,0.0,-3.2761,-3.3532,-3.4302,-3.5082,-3.5899,-3.634,-3.6413,-3.7165,-3.7914,-3.858,-3.9354,-3.9998,-4.0515,-4.0546,-4.0566,-4.0499,-4.0234,-3.9939,-3.9656,-4.0547,-4.0929,-4.1137,-4.268,-4.3297,-4.3378,-4.3876,-4.429,-4.4606,-4.4631,-4.4872,-4.518,-4.5495,-4.5586,-4.5586,-4.5586,-4.5586,-4.5586,-4.5586,-4.5586,-4.5586,-4.5586,-4.5586,-4.5586,-4.5586,-4.5586,-4.5586,-4.5586,-4.5624,-4.5663,-4.5663,-4.5624,-4.5586,-4.5586,-4.5586,-4.5586,-4.5586,-4.5586,-4.5586,-4.5586,-4.5586,-4.5586,-4.5586,-4.5586,-4.5586,-4.5586,-4.5586,-4.5643,-4.5776,-4.568,-4.5643,-4.5776,-4.568,-4.5586,-4.5586,-4.5586,-4.5586,-4.5586,-4.5586,-4.4759,-4.3181,-4.3932,-4.2951,0.0,0.0,0.0,0.0,0.0,0.0,0.0,0.0,0.0,0.0,0.0,0.0,0.0,0.0,0.0,0.0,0.0,0.0,0.0,0.0,0.0,0.0,0.0,0.0,0.0,0.0,0.0,0.0,0.0,0.0,-3.1806,-3.21,-3.2632,-3.3413,-3.377,-3.452,-3.5773,-3.6752,-3.7727,-3.8648,-3.8952,-3.9585,-4.0489,-4.0489,-4.0489,-4.0489,-4.0389,-4.0285,-4.0252,-4.1112,-4.1801,-4.2432,-4.3522,-4.4037,-4.4171,-4.455,-4.4508,-4.4233,-4.4501,-4.4825,-4.5118,-4.5243,-4.5419,-4.5586,-4.5586,-4.5586,-4.5586,-4.5586,-4.5586,-4.5586,-4.5586,-4.5586,-4.5586,-4.5586,-4.5586,-4.5586,-4.5586,-4.5586,-4.5759,-4.6336,-4.597,-4.5586,-4.5586,-4.5586,-4.5586,-4.5586,-4.5586,-4.5586,-4.5586,-4.5586,-4.5586,-4.5586,-4.5586,-4.5586,-4.5586,-4.5586,-4.5605,-4.568,-4.5624,-4.5605,-4.568,-4.5624,-4.5586,-4.5586,-4.5586,-4.5586,-4.5586,-4.5586,-4.4739,-4.3104,-4.3393,-4.2431,0.0,0.0,0.0,0.0,0.0,0.0,0.0,0.0,0.0,0.0,0.0,0.0,0.0,0.0,0.0,0.0,0.0,0.0,0.0,0.0,0.0,0.0,0.0,0.0,0.0,0.0,0.0,0.0,0.0,0.0,-3.098,-3.0999,-3.1366,-3.2173,-3.2467,-3.3213,-3.4494,-3.589,-3.6993,-3.7832,-3.8195,-3.8969,-4.0085,-4.0085,-4.0239,-4.0489,-4.0489,-4.0489,-4.0566,-4.145,-4.2316,-4.3181,-4.3864,-4.4376,-4.4757,-4.4757,-4.4409,-4.4028,-4.4308,-4.4631,-4.4943,-4.5074,-4.5322,-4.5586,-4.5586,-4.5586,-4.5586,-4.5586,-4.5586,-4.5586,-4.5586,-4.5586,-4.5586,-4.5586,-4.5586,-4.5586,-4.5586,-4.5586,-4.5759,-4.6355,-4.599,-4.5586,-4.5586,-4.5586,-4.5586,-4.5586,-4.5586,-4.5586,-4.5586,-4.5586,-4.5586,-4.5586,-4.5586,-4.5586,-4.5586,-4.5586,-4.5605,-4.5643,-4.5605,-4.5605,-4.568,-4.5605,-4.5586,-4.5586,-4.5586,-4.5586,-4.5586,-4.5297,-4.4451,-4.3085,-4.2797,-4.1893,0.0,0.0,0.0,0.0,0.0,0.0,0.0,0.0,0.0,0.0,0.0,0.0,0.0,0.0,0.0,0.0,0.0,0.0,0.0,0.0,0.0,0.0,0.0,0.0,0.0,0.0,0.0,0.0,0.0,-2.9329,-3.0118,-3.0173,-3.0522,-3.1292,-3.2118,-3.254,-3.2577,-3.4482,-3.56,-3.5886,-3.6958,-3.8108,-3.9258,-3.9277,-3.9719,-4.0469,-4.0489,-4.0489,-4.0566,-4.145,-4.2297,-4.3107,-4.3616,-4.4334,-4.4992,-4.4271,-4.4016,-4.4016,-4.4016,-4.4261,-4.4676,-4.4988,-4.5322,-4.5586,-4.5586,-4.5586,-4.5586,-4.5586,-4.5586,-4.5586,-4.5586,-4.5586,-4.5586,-4.5586,-4.5586,-4.5586,-4.5586,-4.5586,-4.5586,-4.5586,-4.5586,-4.5586,-4.5586,-4.5586,-4.5586,-4.5586,-4.5586,-4.5586,-4.5586,-4.5586,-4.5586,-4.5586,-4.5586,-4.5586,-4.5586,-4.5586,-4.5643,-4.5796,-4.568,-4.5643,-4.5796,-4.568,-4.5586,-4.5586,-4.5586,-4.5586,-4.5586,-4.4739,-4.3912,-4.3085,-4.2181,-4.1316,-2.4545,0.0,0.0,0.0,0.0,0.0,0.0,0.0,0.0,0.0,0.0,0.0,0.0,0.0,0.0,0.0,0.0,0.0,0.0,0.0,0.0,0.0,0.0,0.0,0.0,0.0,0.0,0.0,-2.8136,-2.8484,-2.9292,-2.9347,-2.9439,-2.9659,-3.0627,-3.1426,-3.202,-3.3318,-3.4433,-3.5321,-3.6212,-3.7228,-3.8373,-3.9008,-3.9411,-3.9662,-4.0239,-4.0489,-4.0566,-4.145,-4.195,-4.228,-4.3651,-4.4154,-4.4173,-4.4379,-4.4233,-4.4016,-4.4016,-4.4261,-4.4676,-4.4988,-4.5322,-4.5586,-4.5586,-4.5586,-4.5586,-4.5586,-4.5586,-4.5586,-4.5586,-4.5586,-4.5586,-4.5586,-4.5586,-4.5586,-4.5586,-4.5586,-4.5586,-4.5586,-4.5586,-4.5586,-4.5586,-4.5586,-4.5586,-4.5586,-4.5586,-4.5586,-4.5586,-4.5586,-4.5586,-4.5586,-4.5586,-4.5586,-4.5586,-4.5586,-4.5605,-4.5643,-4.5605,-4.5605,-4.5643,-4.5605,-4.5586,-4.5586,-4.5586,-4.5586,-4.5586,-4.5355,-4.4489,-4.3066,-4.1566,-4.0719,0.0,0.0,0.0,0.0,0.0,0.0,0.0,0.0,0.0,0.0,0.0,0.0,0.0,0.0,0.0,0.0,0.0,0.0,0.0,0.0,0.0,0.0,0.0,0.0,0.0,0.0,0.0,0.0,-2.7291,-2.7512,-2.797,-2.8007,-2.8154,-2.8503,-2.9418,-3.0368,-3.1297,-3.2371,-3.3449,-3.4549,-3.5146,-3.6328,-3.8027,-3.8527,-3.9142,-3.9815,-4.0296,-4.0489,-4.0527,-4.1046,-4.147,-4.1912,-4.2874,-4.3484,-4.3833,-4.4151,-4.4259,-4.4233,-4.4233,-4.4501,-4.4849,-4.5052,-4.5322,-4.5586,-4.5586,-4.5586,-4.5586,-4.5586,-4.5586,-4.5586,-4.5586,-4.5586,-4.5586,-4.5586,-4.5586,-4.5586,-4.5586,-4.5586,-4.5586,-4.5586,-4.5586,-4.5586,-4.5586,-4.5586,-4.5586,-4.5586,-4.5586,-4.5586,-4.5586,-4.5586,-4.5586,-4.5586,-4.5586,-4.5586,-4.5586,-4.5586,-4.5586,-4.5586,-4.5586,-4.5586,-4.5586,-4.5586,-4.5586,-4.5586,-4.5586,-4.5413,-4.5047,-4.5047,-4.4374,-4.3066,-4.1681,-4.1239,0.0,0.0,0.0,0.0,0.0,0.0,-2.0501,-1.984,-1.962,0.0,0.0,0.0,0.0,0.0,0.0,0.0,0.0,0.0,0.0,0.0,0.0,0.0,0.0,0.0,0.0,0.0,-2.6465,-2.6465,-2.6557,-2.6521,-2.6337,-2.6502,-2.6888,-2.7512,-2.8415,-2.9363,-3.0304,-3.1467,-3.2559,-3.3522,-3.3954,-3.5359,-3.7584,-3.7777,-3.8661,-4.0065,-4.0181,-4.0277,-4.0354,-4.0354,-4.0873,-4.1681,-4.1873,-4.2678,-4.3745,-4.3895,-4.425,-4.4676,-4.4676,-4.4849,-4.5096,-4.514,-4.5362,-4.5586,-4.5586,-4.5586,-4.5586,-4.5586,-4.5586,-4.5586,-4.5586,-4.5586,-4.5586,-4.5586,-4.5586,-4.5586,-4.5586,-4.5586,-4.5586,-4.5586,-4.5586,-4.5586,-4.5586,-4.5586,-4.5586,-4.5586,-4.5586,-4.5586,-4.5586,-4.5586,-4.5586,-4.5586,-4.5586,-4.5586,-4.5586,-4.5586,-4.5586,-4.5586,-4.5586,-4.5586,-4.5586,-4.5586,-4.5586,-4.5586,-4.5586,-4.522,-4.4432,-4.4259,-4.3797,-4.3085,-4.2316,-4.2354,0.0,0.0,0.0,0.0,0.0,0.0,-2.3382,-2.3235,-2.3015,0.0,0.0,0.0,0.0,0.0,0.0,0.0,0.0,0.0,0.0,0.0,0.0,0.0,0.0,0.0,0.0,0.0,-2.5621,-2.5621,-2.6227,-2.6043,-2.474,-2.5897,-2.6374,-2.588,-2.7429,-2.8386,-2.8594,-3.0284,-3.1367,-3.1787,-3.3207,-3.4251,-3.4988,-3.6334,-3.7142,-3.7488,-3.818,-3.8892,-3.9527,-3.9527,-4.0008,-4.0893,-4.2297,-4.3013,-4.3366,-4.4456,-4.49,-4.4988,-4.4988,-4.5052,-4.514,-4.5419,-4.555,-4.5586,-4.5586,-4.5586,-4.5586,-4.5586,-4.5586,-4.5586,-4.5586,-4.5586,-4.5586,-4.5586,-4.5586,-4.5586,-4.5586,-4.5586,-4.5586,-4.5586,-4.5586,-4.5586,-4.5586,-4.5586,-4.5586,-4.5586,-4.5586,-4.5586,-4.5586,-4.5586,-4.5586,-4.5586,-4.5586,-4.5586,-4.5586,-4.5586,-4.5586,-4.5586,-4.5586,-4.5586,-4.5586,-4.5586,-4.5586,-4.5586,-4.5586,-4.5509,-4.5336,-4.3989,-4.3258,-4.3104,-4.2931,-4.2931,0.0,0.0,0.0,-2.419,0.0,0.0,0.0,-2.1749,0.0,0.0,0.0,0.0,0.0,0.0,0.0,0.0,0.0,0.0,0.0,0.0,0.0,0.0,0.0,0.0,0.0,0.0,-2.4795,-2.4795,-2.5181,-2.5052,-2.4245,-2.4961,-2.5461,-2.5541,-2.6433,-2.7417,-2.8431,-2.938,-3.0411,-3.1511,-3.2354,-3.3489,-3.4872,-3.5718,-3.6565,-3.7411,-3.8277,-3.8892,-3.9315,-3.9719,-4.0142,-4.0585,-4.145,-4.2335,-4.3184,-4.3847,-4.4365,-4.4767,-4.5189,-4.5055,-4.4806,-4.5396,-4.5586,-4.5586,-4.5586,-4.5586,-4.5586,-4.5586,-4.5586,-4.5586,-4.5586,-4.5586,-4.5586,-4.5586,-4.5586,-4.5586,-4.5586,-4.5586,-4.5586,-4.5586,-4.5586,-4.5586,-4.5586,-4.5586,-4.5586,-4.5586,-4.5586,-4.5586,-4.5586,-4.5586,-4.5586,-4.5586,-4.5586,-4.5586,-4.5586,-4.5586,-4.5586,-4.5586,-4.5586,-4.5586,-4.5586,-4.5586,-4.5586,-4.5586,-4.4778,-4.4547,-4.4951,-4.3701,-4.3528,-4.4335,-4.3893,-4.3932,0.0,0.0,0.0,0.0,0.0,-2.3511,0.0,0.0,0.0,0.0,0.0,0.0,0.0,0.0,0.0,0.0,0.0,0.0,0.0,0.0,0.0,0.0,0.0,0.0,0.0,0.0,-2.419,-2.419,-2.419,-2.419,-2.419,-2.419,-2.4579,-2.5393,-2.5631,-2.6637,-2.8503,-2.8731,-2.9717,-3.1448,-3.1621,-3.2872,-3.5007,-3.518,-3.6084,-3.7565,-3.8257,-3.8738,-3.9104,-3.9738,-4.02,-4.0508,-4.0681,-4.1604,-4.2893,-4.3201,-4.3739,-4.4412,-4.5297,-4.5143,-4.4662,-4.5355,-4.5586,-4.5586,-4.5586,-4.5586,-4.5586,-4.5586,-4.5586,-4.5586,-4.5586,-4.5586,-4.5586,-4.5586,-4.5586,-4.5586,-4.5586,-4.5586,-4.5586,-4.5586,-4.5586,-4.5586,-4.5586,-4.5586,-4.5586,-4.5586,-4.5586,-4.5586,-4.5586,-4.5586,-4.5586,-4.5586,-4.5586,-4.5586,-4.5586,-4.5586,-4.5586,-4.5586,-4.5586,-4.5586,-4.5586,-4.5586,-4.5586,-4.5586,-4.4259,-4.3816,-4.4297,-4.3816,-4.4105,-4.5105,-4.472,-4.4836,0.0,0.0,0.0,0.0,-2.419,0.0,0.0,0.0,0.0,0.0,0.0,0.0,0.0,0.0,0.0,0.0,0.0,0.0,0.0,0.0,0.0,0.0,0.0,0.0,0.0,0.0,0.0,-2.419,-2.419,-2.419,-2.419,-2.419,-2.4246,-2.4357,-2.5398,-2.6446,-2.7453,-2.8524,-2.9571,-3.0552,-3.1333,-3.2237,-3.3218,-3.4007,-3.4872,-3.5795,-3.5892,-3.6776,-3.8142,-3.8257,-3.9161,-4.0566,-4.1354,-4.1777,-4.2143,-4.3624,-4.422,-4.4412,-4.5297,-4.5528,-4.547,-4.5566,-4.5586,-4.5586,-4.5586,-4.5586,-4.5586,-4.5586,-4.5586,-4.5586,-4.5586,-4.5586,-4.5586,-4.5586,-4.5586,-4.5586,-4.5586,-4.5586,-4.5586,-4.5586,-4.5586,-4.5586,-4.5586,-4.5586,-4.5586,-4.5586,-4.5586,-4.5586,-4.5586,-4.5586,-4.5586,-4.5586,-4.5586,-4.5586,-4.5586,-4.5586,-4.5586,-4.5586,-4.5586,-4.5586,-4.5586,-4.5586,-4.5586,-4.5586,-4.5413,-4.497,-4.4297,-4.497,-4.4643,-4.3412,-4.4797,-4.5086,0.0,0.0,0.0,0.0,0.0,0.0,0.0,0.0,-2.419,0.0,0.0,0.0,0.0,0.0,0.0,0.0,0.0,0.0,0.0,0.0,0.0,0.0,0.0,0.0,0.0,0.0,0.0,0.0,0.0,-2.419,-2.419,-2.419,-2.4247,-2.4375,-2.4973,-2.5769,-2.6716,-2.7838,-2.8813,-2.966,-3.0525,-3.1641,-3.291,-3.3276,-3.4199,-3.5545,-3.5988,-3.6603,-3.7276,-3.7796,-3.87,-3.9835,-4.02,-4.095,-4.195,-4.3162,-4.3605,-4.3797,-4.5143,-4.5259,-4.4932,-4.5432,-4.5586,-4.5586,-4.5586,-4.5586,-4.5586,-4.5586,-4.5586,-4.5586,-4.5586,-4.5586,-4.5586,-4.5586,-4.5586,-4.5586,-4.5586,-4.5586,-4.5586,-4.5586,-4.5586,-4.5586,-4.5586,-4.5586,-4.5586,-4.5586,-4.5586,-4.5586,-4.5586,-4.5586,-4.5586,-4.5586,-4.5586,-4.5586,-4.5586,-4.5586,-4.5586,-4.5586,-4.5586,-4.5586,-4.5586,-4.5586,-4.5586,-4.5586,-4.5086,-4.4662,-4.4297,-4.4662,-4.4239,-4.3143,-4.4816,-4.5393,-2.419,0.0,0.0,0.0,0.0,0.0,0.0,0.0,0.0,0.0,0.0,0.0,0.0,0.0,0.0,0.0,0.0,0.0,0.0,0.0,0.0,0.0,0.0,0.0,0.0,0.0,0.0,0.0,-2.419,0.0,-2.419,-2.4266,-2.4339,-2.4495,-2.4727,-2.5321,-2.6276,-2.7363,-2.8294,-2.9102,-2.9987,-3.1275,-3.2891,-3.2891,-3.3853,-3.5532,-3.6122,-3.6507,-3.6757,-3.7392,-3.8161,-3.8969,-3.92,-4.0046,-4.1277,-4.2604,-4.3104,-4.3335,-4.5009,-4.5182,-4.4759,-4.5393,-4.5586,-4.5586,-4.5586,-4.5586,-4.5586,-4.5586,-4.5586,-4.5586,-4.5586,-4.5586,-4.5586,-4.5586,-4.5586,-4.5586,-4.5586,-4.5586,-4.5586,-4.5586,-4.5586,-4.5586,-4.5586,-4.5586,-4.5586,-4.5586,-4.5586,-4.5586,-4.5586,-4.5586,-4.5586,-4.5586,-4.5586,-4.5586,-4.5586,-4.5586,-4.5586,-4.5586,-4.5586,-4.5586,-4.5586,-4.5586,-4.5586,-4.5586,-4.497,-4.4432,-4.397,-4.4432,-4.4124,-4.3143,-4.4816,-4.547,0.0,0.0,0.0,-2.4247,0.0,0.0,0.0,0.0,-2.419,0.0,0.0,0.0,0.0,0.0,0.0,-2.419,0.0,0.0,0.0,0.0,0.0,0.0,0.0,0.0,0.0,0.0,0.0,0.0,-2.419,0.0,-2.419,-2.4393,-2.4495,-2.4495,-2.4818,-2.5399,-2.6289,-2.7363,-2.8294,-2.9102,-2.9987,-3.1275,-3.2891,-3.2891,-3.3853,-3.5493,-3.5532,-3.5988,-3.6699,-3.6738,-3.7257,-3.8123,-3.8969,-3.9335,-3.9681,-4.2181,-4.3104,-4.3335,-4.5009,-4.5566,-4.5547,-4.5586,-4.5586,-4.5586,-4.5586,-4.5586,-4.5586,-4.5586,-4.5586,-4.5586,-4.5586,-4.5586,-4.5586,-4.5586,-4.5586,-4.5586,-4.5586,-4.5586,-4.5586,-4.5586,-4.5586,-4.5586,-4.5586,-4.5586,-4.5586,-4.5586,-4.5586,-4.5586,-4.5586,-4.5586,-4.5586,-4.5586,-4.5586,-4.5586,-4.5586,-4.5586,-4.5586,-4.5586,-4.5586,-4.5586,-4.5586,-4.5586,-4.5586,-4.5586,-4.5566,-4.4759,-4.3143,-4.4759,-4.4701,-4.3143,-4.4816,-4.5143,0.0,0.0,-2.4321,-2.4375,0.0,0.0,0.0,0.0,0.0,0.0,0.0,0.0,0.0,0.0,-2.4357,-2.4228,-2.419,0.0,0.0,0.0,0.0,0.0,0.0,0.0,0.0,0.0,0.0,-2.419,-2.419,-2.419,0.0,-2.4393,-2.4495,-2.4495,-2.4831,-2.543,-2.6289,-2.7363,-2.8294,-2.9102,-2.9987,-3.1006,-3.2102,-3.2102,-3.3026,-3.4641,-3.4641,-3.5122,-3.5911,-3.5911,-3.6392,-3.7238,-3.8104,-3.8796,-3.9527,-4.1508,-4.2239,-4.2489,-4.4162,-4.4739,-4.4836,-4.5413,-4.5586,-4.5586,-4.5586,-4.5586,-4.5586,-4.5586,-4.5586,-4.5586,-4.5586,-4.5586,-4.5586,-4.5586,-4.5586,-4.5586,-4.5586,-4.5586,-4.5586,-4.5586,-4.5586,-4.5586,-4.5586,-4.5586,-4.5586,-4.5586,-4.5586,-4.5586,-4.5586,-4.5586,-4.5586,-4.5586,-4.5586,-4.5586,-4.5586,-4.5586,-4.5586,-4.5586,-4.5586,-4.5586,-4.5586,-4.5586,-4.5586,-4.5586,-4.5586,-4.5028,-4.3893,-4.5028,-4.5009,-4.3912,-4.5066,-4.5432,-2.419,-2.4266,0.0,-2.4375,-2.441,0.0,-2.4654,0.0,0.0,0.0,0.0,0.0,0.0,0.0,0.0,-2.4321,-2.4247,-2.419,0.0,-2.419,0.0,0.0,0.0,0.0,0.0,0.0,-2.419,-2.419,-2.419,-2.419,0.0,0.0,-2.4545,-2.4591,-2.4858,-2.5302,-2.5941,-2.7231,-2.8159,-2.8679,-2.9852,-3.0871,-3.1698,-3.1698,-3.2602,-3.4199,-3.4199,-3.4699,-3.5493,-3.5493,-3.5815,-3.6392,-3.7546,-3.8334,-3.9084,-4.1066,-4.2181,-4.2893,-4.4278,-4.4759,-4.4855,-4.5413,-4.5586,-4.5586,-4.5586,-4.5586,-4.5586,-4.5586,-4.5586,-4.5586,-4.5586,-4.5586,-4.5586,-4.5586,-4.5586,-4.5586,-4.5586,-4.5586,-4.5586,-4.5586,-4.5586,-4.5586,-4.5586,-4.5586,-4.5586,-4.5586,-4.5586,-4.5586,-4.5586,-4.5586,-4.5586,-4.5586,-4.5586,-4.5586,-4.5586,-4.5586,-4.5586,-4.5586,-4.5586,-4.5586,-4.5586,-4.5586,-4.574,-4.6067,-4.5759,-4.5316,-4.4759,-4.5316,-4.5143,-4.4316,-4.5182,-4.5586]}]]